<?xml version="1.0" encoding="UTF-8" standalone="no" ?>
<gpx xmlns="http://www.topografix.com/GPX/1/1" xmlns:xsi="http://www.w3.org/2001/XMLSchema-instance" xsi:schemaLocation="http://www.topografix.com/GPX/1/1 http://www.topografix.com/GPX/1/1/gpx.xsd" version="1.1" creator="VisuGPX - https://www.visugpx.com">
  <metadata>
    <name>ChateauLandon45km</name>
    <desc><![CDATA[Randonnee VTT du 7 mai 2017 Circuit de 45 km]]></desc>
  </metadata>
  <trk>
    <name><![CDATA[Export on GPSies.com]]></name>
    <trkseg>
      <trkpt lat="48.14768" lon="2.69388">
        <ele>99</ele>
        <time>2017-04-05T19:38:50Z</time>
      </trkpt>
      <trkpt lat="48.14771" lon="2.69393">
        <ele>99</ele>
        <time>2017-04-05T19:40:50Z</time>
      </trkpt>
      <trkpt lat="48.1479" lon="2.69398">
        <ele>99</ele>
        <time>2017-04-05T19:42:50Z</time>
      </trkpt>
      <trkpt lat="48.14797" lon="2.69403">
        <ele>99</ele>
        <time>2017-04-05T19:44:50Z</time>
      </trkpt>
      <trkpt lat="48.14805" lon="2.69419">
        <ele>100</ele>
        <time>2017-04-05T19:46:50Z</time>
      </trkpt>
      <trkpt lat="48.14811" lon="2.69467">
        <ele>100</ele>
        <time>2017-04-05T19:48:50Z</time>
      </trkpt>
      <trkpt lat="48.14817" lon="2.69525">
        <ele>100</ele>
        <time>2017-04-05T19:50:50Z</time>
      </trkpt>
      <trkpt lat="48.14821" lon="2.69564">
        <ele>101</ele>
        <time>2017-04-05T19:52:50Z</time>
      </trkpt>
      <trkpt lat="48.14823" lon="2.69577">
        <ele>101</ele>
        <time>2017-04-05T19:54:50Z</time>
      </trkpt>
      <trkpt lat="48.1483" lon="2.6964">
        <ele>101</ele>
        <time>2017-04-05T19:56:50Z</time>
      </trkpt>
      <trkpt lat="48.14831" lon="2.69646">
        <ele>101</ele>
        <time>2017-04-05T19:58:50Z</time>
      </trkpt>
      <trkpt lat="48.14835" lon="2.6968">
        <ele>101</ele>
        <time>2017-04-05T20:00:50Z</time>
      </trkpt>
      <trkpt lat="48.14836" lon="2.69683">
        <ele>101</ele>
        <time>2017-04-05T20:02:50Z</time>
      </trkpt>
      <trkpt lat="48.14842" lon="2.69686">
        <ele>101</ele>
        <time>2017-04-05T20:04:50Z</time>
      </trkpt>
      <trkpt lat="48.1485" lon="2.69684">
        <ele>101</ele>
        <time>2017-04-05T20:06:50Z</time>
      </trkpt>
      <trkpt lat="48.14865" lon="2.69679">
        <ele>101</ele>
        <time>2017-04-05T20:08:50Z</time>
      </trkpt>
      <trkpt lat="48.14869" lon="2.69677">
        <ele>101</ele>
        <time>2017-04-05T20:10:50Z</time>
      </trkpt>
      <trkpt lat="48.1489" lon="2.69669">
        <ele>102</ele>
        <time>2017-04-05T20:12:50Z</time>
      </trkpt>
      <trkpt lat="48.14926" lon="2.69653">
        <ele>102</ele>
        <time>2017-04-05T20:14:50Z</time>
      </trkpt>
      <trkpt lat="48.14946" lon="2.69644">
        <ele>102</ele>
        <time>2017-04-05T20:16:50Z</time>
      </trkpt>
      <trkpt lat="48.14951" lon="2.69655">
        <ele>102</ele>
        <time>2017-04-05T20:18:50Z</time>
      </trkpt>
      <trkpt lat="48.14953" lon="2.69661">
        <ele>102</ele>
        <time>2017-04-05T20:20:50Z</time>
      </trkpt>
      <trkpt lat="48.14963" lon="2.69701">
        <ele>101</ele>
        <time>2017-04-05T20:22:50Z</time>
      </trkpt>
      <trkpt lat="48.14976" lon="2.69756">
        <ele>101</ele>
        <time>2017-04-05T20:24:50Z</time>
      </trkpt>
      <trkpt lat="48.14989" lon="2.69806">
        <ele>100</ele>
        <time>2017-04-05T20:26:50Z</time>
      </trkpt>
      <trkpt lat="48.14991" lon="2.69811">
        <ele>100</ele>
        <time>2017-04-05T20:28:50Z</time>
      </trkpt>
      <trkpt lat="48.14996" lon="2.69834">
        <ele>99</ele>
        <time>2017-04-05T20:30:50Z</time>
      </trkpt>
      <trkpt lat="48.14994" lon="2.69851">
        <ele>100</ele>
        <time>2017-04-05T20:32:50Z</time>
      </trkpt>
      <trkpt lat="48.14991" lon="2.69863">
        <ele>100</ele>
        <time>2017-04-05T20:34:50Z</time>
      </trkpt>
      <trkpt lat="48.14975" lon="2.69962">
        <ele>101</ele>
        <time>2017-04-05T20:36:50Z</time>
      </trkpt>
      <trkpt lat="48.14972" lon="2.69986">
        <ele>100</ele>
        <time>2017-04-05T20:38:50Z</time>
      </trkpt>
      <trkpt lat="48.14968" lon="2.70018">
        <ele>99</ele>
        <time>2017-04-05T20:40:50Z</time>
      </trkpt>
      <trkpt lat="48.14965" lon="2.70041">
        <ele>99</ele>
        <time>2017-04-05T20:42:50Z</time>
      </trkpt>
      <trkpt lat="48.14948" lon="2.70161">
        <ele>98</ele>
        <time>2017-04-05T20:44:50Z</time>
      </trkpt>
      <trkpt lat="48.14942" lon="2.7019">
        <ele>97</ele>
        <time>2017-04-05T20:46:50Z</time>
      </trkpt>
      <trkpt lat="48.14937" lon="2.70202">
        <ele>97</ele>
        <time>2017-04-05T20:48:50Z</time>
      </trkpt>
      <trkpt lat="48.14924" lon="2.70215">
        <ele>97</ele>
        <time>2017-04-05T20:50:50Z</time>
      </trkpt>
      <trkpt lat="48.14919" lon="2.70218">
        <ele>97</ele>
        <time>2017-04-05T20:52:50Z</time>
      </trkpt>
      <trkpt lat="48.14916" lon="2.70221">
        <ele>97</ele>
        <time>2017-04-05T20:54:50Z</time>
      </trkpt>
      <trkpt lat="48.14912" lon="2.70225">
        <ele>96</ele>
        <time>2017-04-05T20:56:50Z</time>
      </trkpt>
      <trkpt lat="48.14908" lon="2.70229">
        <ele>96</ele>
        <time>2017-04-05T20:58:50Z</time>
      </trkpt>
      <trkpt lat="48.14896" lon="2.70241">
        <ele>96</ele>
        <time>2017-04-05T21:00:50Z</time>
      </trkpt>
      <trkpt lat="48.14881" lon="2.70261">
        <ele>91</ele>
        <time>2017-04-05T21:02:50Z</time>
      </trkpt>
      <trkpt lat="48.1488" lon="2.70263">
        <ele>91</ele>
        <time>2017-04-05T21:04:50Z</time>
      </trkpt>
      <trkpt lat="48.14879" lon="2.70266">
        <ele>91</ele>
        <time>2017-04-05T21:06:50Z</time>
      </trkpt>
      <trkpt lat="48.14879" lon="2.70269">
        <ele>90</ele>
        <time>2017-04-05T21:08:50Z</time>
      </trkpt>
      <trkpt lat="48.1488" lon="2.70273">
        <ele>90</ele>
        <time>2017-04-05T21:10:50Z</time>
      </trkpt>
      <trkpt lat="48.14889" lon="2.70286">
        <ele>90</ele>
        <time>2017-04-05T21:12:50Z</time>
      </trkpt>
      <trkpt lat="48.14893" lon="2.70291">
        <ele>90</ele>
        <time>2017-04-05T21:14:50Z</time>
      </trkpt>
      <trkpt lat="48.14901" lon="2.70304">
        <ele>90</ele>
        <time>2017-04-05T21:16:50Z</time>
      </trkpt>
      <trkpt lat="48.14905" lon="2.70312">
        <ele>89</ele>
        <time>2017-04-05T21:18:50Z</time>
      </trkpt>
      <trkpt lat="48.14907" lon="2.70322">
        <ele>89</ele>
        <time>2017-04-05T21:20:50Z</time>
      </trkpt>
      <trkpt lat="48.14912" lon="2.70343">
        <ele>86</ele>
        <time>2017-04-05T21:22:50Z</time>
      </trkpt>
      <trkpt lat="48.1492" lon="2.70363">
        <ele>89</ele>
        <time>2017-04-05T21:24:50Z</time>
      </trkpt>
      <trkpt lat="48.14935" lon="2.70392">
        <ele>87</ele>
        <time>2017-04-05T21:26:50Z</time>
      </trkpt>
      <trkpt lat="48.14945" lon="2.70413">
        <ele>87</ele>
        <time>2017-04-05T21:28:50Z</time>
      </trkpt>
      <trkpt lat="48.14958" lon="2.70448">
        <ele>84</ele>
        <time>2017-04-05T21:30:50Z</time>
      </trkpt>
      <trkpt lat="48.14969" lon="2.70483">
        <ele>85</ele>
        <time>2017-04-05T21:32:50Z</time>
      </trkpt>
      <trkpt lat="48.14978" lon="2.7052">
        <ele>82</ele>
        <time>2017-04-05T21:34:50Z</time>
      </trkpt>
      <trkpt lat="48.14987" lon="2.70559">
        <ele>81</ele>
        <time>2017-04-05T21:36:50Z</time>
      </trkpt>
      <trkpt lat="48.14993" lon="2.70585">
        <ele>81</ele>
        <time>2017-04-05T21:38:50Z</time>
      </trkpt>
      <trkpt lat="48.14998" lon="2.70612">
        <ele>79</ele>
        <time>2017-04-05T21:40:50Z</time>
      </trkpt>
      <trkpt lat="48.15002" lon="2.70638">
        <ele>82</ele>
        <time>2017-04-05T21:42:50Z</time>
      </trkpt>
      <trkpt lat="48.15004" lon="2.70651">
        <ele>81</ele>
        <time>2017-04-05T21:44:50Z</time>
      </trkpt>
      <trkpt lat="48.15008" lon="2.70687">
        <ele>80</ele>
        <time>2017-04-05T21:46:50Z</time>
      </trkpt>
      <trkpt lat="48.15008" lon="2.70698">
        <ele>80</ele>
        <time>2017-04-05T21:48:50Z</time>
      </trkpt>
      <trkpt lat="48.15007" lon="2.70728">
        <ele>79</ele>
        <time>2017-04-05T21:50:50Z</time>
      </trkpt>
      <trkpt lat="48.15013" lon="2.70747">
        <ele>78</ele>
        <time>2017-04-05T21:52:50Z</time>
      </trkpt>
      <trkpt lat="48.15014" lon="2.7076">
        <ele>79</ele>
        <time>2017-04-05T21:54:50Z</time>
      </trkpt>
      <trkpt lat="48.15015" lon="2.70784">
        <ele>80</ele>
        <time>2017-04-05T21:56:50Z</time>
      </trkpt>
      <trkpt lat="48.15017" lon="2.70826">
        <ele>79</ele>
        <time>2017-04-05T21:58:50Z</time>
      </trkpt>
      <trkpt lat="48.15016" lon="2.70851">
        <ele>80</ele>
        <time>2017-04-05T22:00:50Z</time>
      </trkpt>
      <trkpt lat="48.15013" lon="2.70927">
        <ele>80</ele>
        <time>2017-04-05T22:02:50Z</time>
      </trkpt>
      <trkpt lat="48.15013" lon="2.70969">
        <ele>79</ele>
        <time>2017-04-05T22:04:50Z</time>
      </trkpt>
      <trkpt lat="48.15018" lon="2.70993">
        <ele>78</ele>
        <time>2017-04-05T22:06:50Z</time>
      </trkpt>
      <trkpt lat="48.1502" lon="2.70996">
        <ele>78</ele>
        <time>2017-04-05T22:08:50Z</time>
      </trkpt>
      <trkpt lat="48.15031" lon="2.71015">
        <ele>76</ele>
        <time>2017-04-05T22:10:50Z</time>
      </trkpt>
      <trkpt lat="48.15033" lon="2.7102">
        <ele>76</ele>
        <time>2017-04-05T22:12:50Z</time>
      </trkpt>
      <trkpt lat="48.15043" lon="2.71042">
        <ele>76</ele>
        <time>2017-04-05T22:14:50Z</time>
      </trkpt>
      <trkpt lat="48.15046" lon="2.71047">
        <ele>76</ele>
        <time>2017-04-05T22:16:50Z</time>
      </trkpt>
      <trkpt lat="48.15057" lon="2.71059">
        <ele>76</ele>
        <time>2017-04-05T22:18:50Z</time>
      </trkpt>
      <trkpt lat="48.15061" lon="2.71061">
        <ele>76</ele>
        <time>2017-04-05T22:20:50Z</time>
      </trkpt>
      <trkpt lat="48.15069" lon="2.71064">
        <ele>76</ele>
        <time>2017-04-05T22:22:50Z</time>
      </trkpt>
      <trkpt lat="48.15081" lon="2.71065">
        <ele>76</ele>
        <time>2017-04-05T22:24:50Z</time>
      </trkpt>
      <trkpt lat="48.15085" lon="2.71065">
        <ele>77</ele>
        <time>2017-04-05T22:26:50Z</time>
      </trkpt>
      <trkpt lat="48.15093" lon="2.71063">
        <ele>77</ele>
        <time>2017-04-05T22:28:50Z</time>
      </trkpt>
      <trkpt lat="48.15101" lon="2.71058">
        <ele>77</ele>
        <time>2017-04-05T22:30:50Z</time>
      </trkpt>
      <trkpt lat="48.1513" lon="2.71031">
        <ele>78</ele>
        <time>2017-04-05T22:32:50Z</time>
      </trkpt>
      <trkpt lat="48.15143" lon="2.71021">
        <ele>77</ele>
        <time>2017-04-05T22:34:50Z</time>
      </trkpt>
      <trkpt lat="48.15157" lon="2.71017">
        <ele>77</ele>
        <time>2017-04-05T22:36:50Z</time>
      </trkpt>
      <trkpt lat="48.15184" lon="2.71018">
        <ele>81</ele>
        <time>2017-04-05T22:38:50Z</time>
      </trkpt>
      <trkpt lat="48.15202" lon="2.71018">
        <ele>83</ele>
        <time>2017-04-05T22:40:50Z</time>
      </trkpt>
      <trkpt lat="48.1521" lon="2.71017">
        <ele>83</ele>
        <time>2017-04-05T22:42:50Z</time>
      </trkpt>
      <trkpt lat="48.15232" lon="2.71015">
        <ele>85</ele>
        <time>2017-04-05T22:44:50Z</time>
      </trkpt>
      <trkpt lat="48.15242" lon="2.71017">
        <ele>86</ele>
        <time>2017-04-05T22:46:50Z</time>
      </trkpt>
      <trkpt lat="48.15249" lon="2.7102">
        <ele>86</ele>
        <time>2017-04-05T22:48:50Z</time>
      </trkpt>
      <trkpt lat="48.1525" lon="2.71022">
        <ele>92</ele>
        <time>2017-04-05T22:50:50Z</time>
      </trkpt>
      <trkpt lat="48.15257" lon="2.71026">
        <ele>92</ele>
        <time>2017-04-05T22:52:50Z</time>
      </trkpt>
      <trkpt lat="48.15262" lon="2.71028">
        <ele>93</ele>
        <time>2017-04-05T22:54:50Z</time>
      </trkpt>
      <trkpt lat="48.15273" lon="2.71033">
        <ele>93</ele>
        <time>2017-04-05T22:56:50Z</time>
      </trkpt>
      <trkpt lat="48.15275" lon="2.71033">
        <ele>93</ele>
        <time>2017-04-05T22:58:50Z</time>
      </trkpt>
      <trkpt lat="48.15281" lon="2.71035">
        <ele>94</ele>
        <time>2017-04-05T23:00:50Z</time>
      </trkpt>
      <trkpt lat="48.15286" lon="2.71036">
        <ele>94</ele>
        <time>2017-04-05T23:02:50Z</time>
      </trkpt>
      <trkpt lat="48.15301" lon="2.71039">
        <ele>95</ele>
        <time>2017-04-05T23:04:50Z</time>
      </trkpt>
      <trkpt lat="48.15304" lon="2.7104">
        <ele>95</ele>
        <time>2017-04-05T23:06:50Z</time>
      </trkpt>
      <trkpt lat="48.15312" lon="2.71043">
        <ele>95</ele>
        <time>2017-04-05T23:08:50Z</time>
      </trkpt>
      <trkpt lat="48.15324" lon="2.71048">
        <ele>96</ele>
        <time>2017-04-05T23:10:50Z</time>
      </trkpt>
      <trkpt lat="48.15329" lon="2.71052">
        <ele>97</ele>
        <time>2017-04-05T23:12:50Z</time>
      </trkpt>
      <trkpt lat="48.15339" lon="2.71061">
        <ele>100</ele>
        <time>2017-04-05T23:14:50Z</time>
      </trkpt>
      <trkpt lat="48.15344" lon="2.71069">
        <ele>100</ele>
        <time>2017-04-05T23:16:50Z</time>
      </trkpt>
      <trkpt lat="48.15349" lon="2.71088">
        <ele>102</ele>
        <time>2017-04-05T23:18:50Z</time>
      </trkpt>
      <trkpt lat="48.15353" lon="2.71099">
        <ele>102</ele>
        <time>2017-04-05T23:20:50Z</time>
      </trkpt>
      <trkpt lat="48.15358" lon="2.71111">
        <ele>102</ele>
        <time>2017-04-05T23:22:50Z</time>
      </trkpt>
      <trkpt lat="48.1536" lon="2.71115">
        <ele>102</ele>
        <time>2017-04-05T23:24:50Z</time>
      </trkpt>
      <trkpt lat="48.15362" lon="2.7112">
        <ele>102</ele>
        <time>2017-04-05T23:26:50Z</time>
      </trkpt>
      <trkpt lat="48.15363" lon="2.71135">
        <ele>102</ele>
        <time>2017-04-05T23:28:50Z</time>
      </trkpt>
      <trkpt lat="48.15358" lon="2.71137">
        <ele>102</ele>
        <time>2017-04-05T23:30:50Z</time>
      </trkpt>
      <trkpt lat="48.15349" lon="2.71134">
        <ele>102</ele>
        <time>2017-04-05T23:32:50Z</time>
      </trkpt>
      <trkpt lat="48.15338" lon="2.71129">
        <ele>102</ele>
        <time>2017-04-05T23:34:50Z</time>
      </trkpt>
      <trkpt lat="48.1533" lon="2.71137">
        <ele>100</ele>
        <time>2017-04-05T23:36:50Z</time>
      </trkpt>
      <trkpt lat="48.15307" lon="2.71147">
        <ele>99</ele>
        <time>2017-04-05T23:38:50Z</time>
      </trkpt>
      <trkpt lat="48.15303" lon="2.71161">
        <ele>100</ele>
        <time>2017-04-05T23:40:50Z</time>
      </trkpt>
      <trkpt lat="48.15304" lon="2.71176">
        <ele>101</ele>
        <time>2017-04-05T23:42:50Z</time>
      </trkpt>
      <trkpt lat="48.15298" lon="2.71178">
        <ele>101</ele>
        <time>2017-04-05T23:44:50Z</time>
      </trkpt>
      <trkpt lat="48.15287" lon="2.71183">
        <ele>100</ele>
        <time>2017-04-05T23:46:50Z</time>
      </trkpt>
      <trkpt lat="48.15283" lon="2.71191">
        <ele>100</ele>
        <time>2017-04-05T23:48:50Z</time>
      </trkpt>
      <trkpt lat="48.1528" lon="2.71197">
        <ele>100</ele>
        <time>2017-04-05T23:50:50Z</time>
      </trkpt>
      <trkpt lat="48.15265" lon="2.71217">
        <ele>100</ele>
        <time>2017-04-05T23:52:50Z</time>
      </trkpt>
      <trkpt lat="48.1526" lon="2.71223">
        <ele>100</ele>
        <time>2017-04-05T23:54:50Z</time>
      </trkpt>
      <trkpt lat="48.15257" lon="2.71228">
        <ele>101</ele>
        <time>2017-04-05T23:56:50Z</time>
      </trkpt>
      <trkpt lat="48.15254" lon="2.71239">
        <ele>101</ele>
        <time>2017-04-05T23:58:50Z</time>
      </trkpt>
      <trkpt lat="48.15254" lon="2.71246">
        <ele>101</ele>
        <time>2017-04-06T00:00:50Z</time>
      </trkpt>
      <trkpt lat="48.15253" lon="2.71248">
        <ele>101</ele>
        <time>2017-04-06T00:02:50Z</time>
      </trkpt>
      <trkpt lat="48.15249" lon="2.71259">
        <ele>99</ele>
        <time>2017-04-06T00:04:50Z</time>
      </trkpt>
      <trkpt lat="48.15247" lon="2.71275">
        <ele>97</ele>
        <time>2017-04-06T00:06:50Z</time>
      </trkpt>
      <trkpt lat="48.15248" lon="2.71278">
        <ele>97</ele>
        <time>2017-04-06T00:08:50Z</time>
      </trkpt>
      <trkpt lat="48.15249" lon="2.71297">
        <ele>97</ele>
        <time>2017-04-06T00:10:50Z</time>
      </trkpt>
      <trkpt lat="48.15248" lon="2.71311">
        <ele>98</ele>
        <time>2017-04-06T00:12:50Z</time>
      </trkpt>
      <trkpt lat="48.15248" lon="2.71315">
        <ele>98</ele>
        <time>2017-04-06T00:14:50Z</time>
      </trkpt>
      <trkpt lat="48.15251" lon="2.71322">
        <ele>100</ele>
        <time>2017-04-06T00:16:50Z</time>
      </trkpt>
      <trkpt lat="48.15256" lon="2.71325">
        <ele>100</ele>
        <time>2017-04-06T00:18:50Z</time>
      </trkpt>
      <trkpt lat="48.15272" lon="2.71324">
        <ele>100</ele>
        <time>2017-04-06T00:20:50Z</time>
      </trkpt>
      <trkpt lat="48.15286" lon="2.7132">
        <ele>101</ele>
        <time>2017-04-06T00:22:50Z</time>
      </trkpt>
      <trkpt lat="48.15299" lon="2.71314">
        <ele>101</ele>
        <time>2017-04-06T00:24:50Z</time>
      </trkpt>
      <trkpt lat="48.15314" lon="2.7131">
        <ele>101</ele>
        <time>2017-04-06T00:26:50Z</time>
      </trkpt>
      <trkpt lat="48.15327" lon="2.71308">
        <ele>101</ele>
        <time>2017-04-06T00:28:50Z</time>
      </trkpt>
      <trkpt lat="48.15341" lon="2.71308">
        <ele>102</ele>
        <time>2017-04-06T00:30:50Z</time>
      </trkpt>
      <trkpt lat="48.15344" lon="2.71306">
        <ele>102</ele>
        <time>2017-04-06T00:32:50Z</time>
      </trkpt>
      <trkpt lat="48.15354" lon="2.713">
        <ele>102</ele>
        <time>2017-04-06T00:34:50Z</time>
      </trkpt>
      <trkpt lat="48.15359" lon="2.71304">
        <ele>102</ele>
        <time>2017-04-06T00:36:50Z</time>
      </trkpt>
      <trkpt lat="48.15361" lon="2.71303">
        <ele>102</ele>
        <time>2017-04-06T00:38:50Z</time>
      </trkpt>
      <trkpt lat="48.15364" lon="2.71299">
        <ele>102</ele>
        <time>2017-04-06T00:40:50Z</time>
      </trkpt>
      <trkpt lat="48.15383" lon="2.71282">
        <ele>102</ele>
        <time>2017-04-06T00:42:50Z</time>
      </trkpt>
      <trkpt lat="48.15385" lon="2.71279">
        <ele>102</ele>
        <time>2017-04-06T00:44:50Z</time>
      </trkpt>
      <trkpt lat="48.15394" lon="2.7127">
        <ele>102</ele>
        <time>2017-04-06T00:46:50Z</time>
      </trkpt>
      <trkpt lat="48.15405" lon="2.71257">
        <ele>103</ele>
        <time>2017-04-06T00:48:50Z</time>
      </trkpt>
      <trkpt lat="48.15416" lon="2.71246">
        <ele>103</ele>
        <time>2017-04-06T00:50:50Z</time>
      </trkpt>
      <trkpt lat="48.15417" lon="2.71242">
        <ele>103</ele>
        <time>2017-04-06T00:52:50Z</time>
      </trkpt>
      <trkpt lat="48.15419" lon="2.71241">
        <ele>103</ele>
        <time>2017-04-06T00:54:50Z</time>
      </trkpt>
      <trkpt lat="48.15423" lon="2.7124">
        <ele>103</ele>
        <time>2017-04-06T00:56:50Z</time>
      </trkpt>
      <trkpt lat="48.15434" lon="2.71233">
        <ele>103</ele>
        <time>2017-04-06T00:58:50Z</time>
      </trkpt>
      <trkpt lat="48.15447" lon="2.71225">
        <ele>103</ele>
        <time>2017-04-06T01:00:50Z</time>
      </trkpt>
      <trkpt lat="48.15457" lon="2.71212">
        <ele>103</ele>
        <time>2017-04-06T01:02:50Z</time>
      </trkpt>
      <trkpt lat="48.15463" lon="2.71201">
        <ele>103</ele>
        <time>2017-04-06T01:04:50Z</time>
      </trkpt>
      <trkpt lat="48.15466" lon="2.71195">
        <ele>103</ele>
        <time>2017-04-06T01:06:50Z</time>
      </trkpt>
      <trkpt lat="48.15468" lon="2.71172">
        <ele>103</ele>
        <time>2017-04-06T01:08:50Z</time>
      </trkpt>
      <trkpt lat="48.15467" lon="2.71151">
        <ele>103</ele>
        <time>2017-04-06T01:10:50Z</time>
      </trkpt>
      <trkpt lat="48.15463" lon="2.7113">
        <ele>103</ele>
        <time>2017-04-06T01:12:50Z</time>
      </trkpt>
      <trkpt lat="48.15461" lon="2.71117">
        <ele>103</ele>
        <time>2017-04-06T01:14:50Z</time>
      </trkpt>
      <trkpt lat="48.15455" lon="2.71089">
        <ele>103</ele>
        <time>2017-04-06T01:16:50Z</time>
      </trkpt>
      <trkpt lat="48.15448" lon="2.71048">
        <ele>101</ele>
        <time>2017-04-06T01:18:50Z</time>
      </trkpt>
      <trkpt lat="48.15444" lon="2.71024">
        <ele>100</ele>
        <time>2017-04-06T01:20:50Z</time>
      </trkpt>
      <trkpt lat="48.15445" lon="2.71018">
        <ele>100</ele>
        <time>2017-04-06T01:22:50Z</time>
      </trkpt>
      <trkpt lat="48.15447" lon="2.71013">
        <ele>100</ele>
        <time>2017-04-06T01:24:50Z</time>
      </trkpt>
      <trkpt lat="48.1545" lon="2.7101">
        <ele>100</ele>
        <time>2017-04-06T01:26:50Z</time>
      </trkpt>
      <trkpt lat="48.1546" lon="2.71003">
        <ele>100</ele>
        <time>2017-04-06T01:28:50Z</time>
      </trkpt>
      <trkpt lat="48.15464" lon="2.71002">
        <ele>100</ele>
        <time>2017-04-06T01:30:50Z</time>
      </trkpt>
      <trkpt lat="48.15492" lon="2.70994">
        <ele>99</ele>
        <time>2017-04-06T01:32:50Z</time>
      </trkpt>
      <trkpt lat="48.15512" lon="2.70992">
        <ele>99</ele>
        <time>2017-04-06T01:34:50Z</time>
      </trkpt>
      <trkpt lat="48.15524" lon="2.70992">
        <ele>99</ele>
        <time>2017-04-06T01:36:50Z</time>
      </trkpt>
      <trkpt lat="48.15559" lon="2.70989">
        <ele>99</ele>
        <time>2017-04-06T01:38:50Z</time>
      </trkpt>
      <trkpt lat="48.15625" lon="2.70985">
        <ele>101</ele>
        <time>2017-04-06T01:40:50Z</time>
      </trkpt>
      <trkpt lat="48.15659" lon="2.70984">
        <ele>101</ele>
        <time>2017-04-06T01:42:50Z</time>
      </trkpt>
      <trkpt lat="48.15694" lon="2.70982">
        <ele>102</ele>
        <time>2017-04-06T01:44:50Z</time>
      </trkpt>
      <trkpt lat="48.15699" lon="2.70981">
        <ele>102</ele>
        <time>2017-04-06T01:46:50Z</time>
      </trkpt>
      <trkpt lat="48.15719" lon="2.7098">
        <ele>103</ele>
        <time>2017-04-06T01:48:50Z</time>
      </trkpt>
      <trkpt lat="48.15748" lon="2.70979">
        <ele>103</ele>
        <time>2017-04-06T01:50:50Z</time>
      </trkpt>
      <trkpt lat="48.15772" lon="2.70981">
        <ele>104</ele>
        <time>2017-04-06T01:52:50Z</time>
      </trkpt>
      <trkpt lat="48.15792" lon="2.7098">
        <ele>104</ele>
        <time>2017-04-06T01:54:50Z</time>
      </trkpt>
      <trkpt lat="48.15796" lon="2.70967">
        <ele>104</ele>
        <time>2017-04-06T01:56:50Z</time>
      </trkpt>
      <trkpt lat="48.15803" lon="2.70944">
        <ele>104</ele>
        <time>2017-04-06T01:58:50Z</time>
      </trkpt>
      <trkpt lat="48.15805" lon="2.70927">
        <ele>105</ele>
        <time>2017-04-06T02:00:50Z</time>
      </trkpt>
      <trkpt lat="48.15805" lon="2.70924">
        <ele>105</ele>
        <time>2017-04-06T02:02:50Z</time>
      </trkpt>
      <trkpt lat="48.15806" lon="2.7092">
        <ele>105</ele>
        <time>2017-04-06T02:04:50Z</time>
      </trkpt>
      <trkpt lat="48.15808" lon="2.70913">
        <ele>105</ele>
        <time>2017-04-06T02:06:50Z</time>
      </trkpt>
      <trkpt lat="48.15815" lon="2.709">
        <ele>105</ele>
        <time>2017-04-06T02:08:50Z</time>
      </trkpt>
      <trkpt lat="48.15817" lon="2.7089">
        <ele>105</ele>
        <time>2017-04-06T02:10:50Z</time>
      </trkpt>
      <trkpt lat="48.15811" lon="2.70878">
        <ele>105</ele>
        <time>2017-04-06T02:12:50Z</time>
      </trkpt>
      <trkpt lat="48.15726" lon="2.70816">
        <ele>104</ele>
        <time>2017-04-06T02:14:50Z</time>
      </trkpt>
      <trkpt lat="48.15661" lon="2.7077">
        <ele>103</ele>
        <time>2017-04-06T02:16:50Z</time>
      </trkpt>
      <trkpt lat="48.1564" lon="2.70754">
        <ele>103</ele>
        <time>2017-04-06T02:18:50Z</time>
      </trkpt>
      <trkpt lat="48.15523" lon="2.70668">
        <ele>103</ele>
        <time>2017-04-06T02:20:50Z</time>
      </trkpt>
      <trkpt lat="48.1552" lon="2.70664">
        <ele>103</ele>
        <time>2017-04-06T02:22:50Z</time>
      </trkpt>
      <trkpt lat="48.15519" lon="2.70653">
        <ele>103</ele>
        <time>2017-04-06T02:24:50Z</time>
      </trkpt>
      <trkpt lat="48.15519" lon="2.7064">
        <ele>103</ele>
        <time>2017-04-06T02:26:50Z</time>
      </trkpt>
      <trkpt lat="48.15521" lon="2.70613">
        <ele>103</ele>
        <time>2017-04-06T02:28:50Z</time>
      </trkpt>
      <trkpt lat="48.15525" lon="2.70533">
        <ele>103</ele>
        <time>2017-04-06T02:30:50Z</time>
      </trkpt>
      <trkpt lat="48.15529" lon="2.70473">
        <ele>102</ele>
        <time>2017-04-06T02:32:50Z</time>
      </trkpt>
      <trkpt lat="48.15532" lon="2.70417">
        <ele>102</ele>
        <time>2017-04-06T02:34:50Z</time>
      </trkpt>
      <trkpt lat="48.15534" lon="2.70358">
        <ele>102</ele>
        <time>2017-04-06T02:36:50Z</time>
      </trkpt>
      <trkpt lat="48.15534" lon="2.70315">
        <ele>101</ele>
        <time>2017-04-06T02:38:50Z</time>
      </trkpt>
      <trkpt lat="48.15534" lon="2.70279">
        <ele>100</ele>
        <time>2017-04-06T02:40:50Z</time>
      </trkpt>
      <trkpt lat="48.15533" lon="2.70212">
        <ele>99</ele>
        <time>2017-04-06T02:42:50Z</time>
      </trkpt>
      <trkpt lat="48.15534" lon="2.70192">
        <ele>99</ele>
        <time>2017-04-06T02:44:50Z</time>
      </trkpt>
      <trkpt lat="48.15535" lon="2.70183">
        <ele>99</ele>
        <time>2017-04-06T02:46:50Z</time>
      </trkpt>
      <trkpt lat="48.15538" lon="2.70161">
        <ele>97</ele>
        <time>2017-04-06T02:48:50Z</time>
      </trkpt>
      <trkpt lat="48.15539" lon="2.7015">
        <ele>97</ele>
        <time>2017-04-06T02:50:50Z</time>
      </trkpt>
      <trkpt lat="48.15541" lon="2.70128">
        <ele>96</ele>
        <time>2017-04-06T02:52:50Z</time>
      </trkpt>
      <trkpt lat="48.15542" lon="2.70119">
        <ele>96</ele>
        <time>2017-04-06T02:54:50Z</time>
      </trkpt>
      <trkpt lat="48.15544" lon="2.7011">
        <ele>96</ele>
        <time>2017-04-06T02:56:50Z</time>
      </trkpt>
      <trkpt lat="48.1555" lon="2.70095">
        <ele>95</ele>
        <time>2017-04-06T02:58:50Z</time>
      </trkpt>
      <trkpt lat="48.15552" lon="2.70079">
        <ele>93</ele>
        <time>2017-04-06T03:00:50Z</time>
      </trkpt>
      <trkpt lat="48.1555" lon="2.70073">
        <ele>93</ele>
        <time>2017-04-06T03:02:50Z</time>
      </trkpt>
      <trkpt lat="48.15546" lon="2.7007">
        <ele>93</ele>
        <time>2017-04-06T03:04:50Z</time>
      </trkpt>
      <trkpt lat="48.15537" lon="2.70067">
        <ele>93</ele>
        <time>2017-04-06T03:06:50Z</time>
      </trkpt>
      <trkpt lat="48.15532" lon="2.70067">
        <ele>93</ele>
        <time>2017-04-06T03:08:50Z</time>
      </trkpt>
      <trkpt lat="48.15512" lon="2.70063">
        <ele>93</ele>
        <time>2017-04-06T03:10:50Z</time>
      </trkpt>
      <trkpt lat="48.15502" lon="2.70059">
        <ele>93</ele>
        <time>2017-04-06T03:12:50Z</time>
      </trkpt>
      <trkpt lat="48.15497" lon="2.70056">
        <ele>94</ele>
        <time>2017-04-06T03:14:50Z</time>
      </trkpt>
      <trkpt lat="48.15483" lon="2.70046">
        <ele>94</ele>
        <time>2017-04-06T03:16:50Z</time>
      </trkpt>
      <trkpt lat="48.15474" lon="2.70038">
        <ele>94</ele>
        <time>2017-04-06T03:18:50Z</time>
      </trkpt>
      <trkpt lat="48.15467" lon="2.70029">
        <ele>94</ele>
        <time>2017-04-06T03:20:50Z</time>
      </trkpt>
      <trkpt lat="48.1544" lon="2.69995">
        <ele>91</ele>
        <time>2017-04-06T03:22:50Z</time>
      </trkpt>
      <trkpt lat="48.1542" lon="2.69967">
        <ele>91</ele>
        <time>2017-04-06T03:24:50Z</time>
      </trkpt>
      <trkpt lat="48.15416" lon="2.69963">
        <ele>90</ele>
        <time>2017-04-06T03:26:50Z</time>
      </trkpt>
      <trkpt lat="48.154" lon="2.69954">
        <ele>89</ele>
        <time>2017-04-06T03:28:50Z</time>
      </trkpt>
      <trkpt lat="48.15378" lon="2.69945">
        <ele>89</ele>
        <time>2017-04-06T03:30:50Z</time>
      </trkpt>
      <trkpt lat="48.15368" lon="2.69944">
        <ele>89</ele>
        <time>2017-04-06T03:32:50Z</time>
      </trkpt>
      <trkpt lat="48.15359" lon="2.69945">
        <ele>89</ele>
        <time>2017-04-06T03:34:50Z</time>
      </trkpt>
      <trkpt lat="48.15331" lon="2.69957">
        <ele>87</ele>
        <time>2017-04-06T03:36:50Z</time>
      </trkpt>
      <trkpt lat="48.15321" lon="2.6996">
        <ele>87</ele>
        <time>2017-04-06T03:38:50Z</time>
      </trkpt>
      <trkpt lat="48.15292" lon="2.69964">
        <ele>86</ele>
        <time>2017-04-06T03:40:50Z</time>
      </trkpt>
      <trkpt lat="48.15261" lon="2.6996">
        <ele>85</ele>
        <time>2017-04-06T03:42:50Z</time>
      </trkpt>
      <trkpt lat="48.15247" lon="2.69957">
        <ele>85</ele>
        <time>2017-04-06T03:44:50Z</time>
      </trkpt>
      <trkpt lat="48.15245" lon="2.69953">
        <ele>85</ele>
        <time>2017-04-06T03:46:50Z</time>
      </trkpt>
      <trkpt lat="48.15246" lon="2.69941">
        <ele>84</ele>
        <time>2017-04-06T03:48:50Z</time>
      </trkpt>
      <trkpt lat="48.15256" lon="2.6992">
        <ele>84</ele>
        <time>2017-04-06T03:50:50Z</time>
      </trkpt>
      <trkpt lat="48.15267" lon="2.69902">
        <ele>85</ele>
        <time>2017-04-06T03:52:50Z</time>
      </trkpt>
      <trkpt lat="48.1527" lon="2.69897">
        <ele>85</ele>
        <time>2017-04-06T03:54:50Z</time>
      </trkpt>
      <trkpt lat="48.15284" lon="2.69874">
        <ele>87</ele>
        <time>2017-04-06T03:56:50Z</time>
      </trkpt>
      <trkpt lat="48.15287" lon="2.69867">
        <ele>87</ele>
        <time>2017-04-06T03:58:50Z</time>
      </trkpt>
      <trkpt lat="48.15296" lon="2.69848">
        <ele>87</ele>
        <time>2017-04-06T04:00:50Z</time>
      </trkpt>
      <trkpt lat="48.15308" lon="2.69825">
        <ele>90</ele>
        <time>2017-04-06T04:02:50Z</time>
      </trkpt>
      <trkpt lat="48.15313" lon="2.69812">
        <ele>90</ele>
        <time>2017-04-06T04:04:50Z</time>
      </trkpt>
      <trkpt lat="48.15322" lon="2.69786">
        <ele>90</ele>
        <time>2017-04-06T04:06:50Z</time>
      </trkpt>
      <trkpt lat="48.15326" lon="2.69769">
        <ele>91</ele>
        <time>2017-04-06T04:08:50Z</time>
      </trkpt>
      <trkpt lat="48.15332" lon="2.69751">
        <ele>93</ele>
        <time>2017-04-06T04:10:50Z</time>
      </trkpt>
      <trkpt lat="48.15334" lon="2.6975">
        <ele>93</ele>
        <time>2017-04-06T04:12:50Z</time>
      </trkpt>
      <trkpt lat="48.15341" lon="2.69747">
        <ele>94</ele>
        <time>2017-04-06T04:14:50Z</time>
      </trkpt>
      <trkpt lat="48.15372" lon="2.69733">
        <ele>96</ele>
        <time>2017-04-06T04:16:50Z</time>
      </trkpt>
      <trkpt lat="48.15404" lon="2.69715">
        <ele>97</ele>
        <time>2017-04-06T04:18:50Z</time>
      </trkpt>
      <trkpt lat="48.15419" lon="2.69703">
        <ele>99</ele>
        <time>2017-04-06T04:20:50Z</time>
      </trkpt>
      <trkpt lat="48.15428" lon="2.69696">
        <ele>99</ele>
        <time>2017-04-06T04:22:50Z</time>
      </trkpt>
      <trkpt lat="48.15437" lon="2.69686">
        <ele>99</ele>
        <time>2017-04-06T04:24:50Z</time>
      </trkpt>
      <trkpt lat="48.15454" lon="2.69667">
        <ele>99</ele>
        <time>2017-04-06T04:26:50Z</time>
      </trkpt>
      <trkpt lat="48.15475" lon="2.69645">
        <ele>100</ele>
        <time>2017-04-06T04:28:50Z</time>
      </trkpt>
      <trkpt lat="48.15551" lon="2.69559">
        <ele>102</ele>
        <time>2017-04-06T04:30:50Z</time>
      </trkpt>
      <trkpt lat="48.15569" lon="2.69539">
        <ele>102</ele>
        <time>2017-04-06T04:32:50Z</time>
      </trkpt>
      <trkpt lat="48.15583" lon="2.69521">
        <ele>102</ele>
        <time>2017-04-06T04:34:50Z</time>
      </trkpt>
      <trkpt lat="48.15617" lon="2.69473">
        <ele>102</ele>
        <time>2017-04-06T04:36:50Z</time>
      </trkpt>
      <trkpt lat="48.15638" lon="2.69458">
        <ele>102</ele>
        <time>2017-04-06T04:38:50Z</time>
      </trkpt>
      <trkpt lat="48.15664" lon="2.69446">
        <ele>102</ele>
        <time>2017-04-06T04:40:50Z</time>
      </trkpt>
      <trkpt lat="48.15691" lon="2.69435">
        <ele>102</ele>
        <time>2017-04-06T04:42:50Z</time>
      </trkpt>
      <trkpt lat="48.15706" lon="2.69431">
        <ele>102</ele>
        <time>2017-04-06T04:44:50Z</time>
      </trkpt>
      <trkpt lat="48.15718" lon="2.69426">
        <ele>103</ele>
        <time>2017-04-06T04:46:50Z</time>
      </trkpt>
      <trkpt lat="48.15747" lon="2.69411">
        <ele>103</ele>
        <time>2017-04-06T04:48:50Z</time>
      </trkpt>
      <trkpt lat="48.15762" lon="2.694">
        <ele>103</ele>
        <time>2017-04-06T04:50:50Z</time>
      </trkpt>
      <trkpt lat="48.15769" lon="2.69392">
        <ele>103</ele>
        <time>2017-04-06T04:52:50Z</time>
      </trkpt>
      <trkpt lat="48.15772" lon="2.69388">
        <ele>103</ele>
        <time>2017-04-06T04:54:50Z</time>
      </trkpt>
      <trkpt lat="48.15792" lon="2.69355">
        <ele>103</ele>
        <time>2017-04-06T04:56:50Z</time>
      </trkpt>
      <trkpt lat="48.15795" lon="2.6935">
        <ele>103</ele>
        <time>2017-04-06T04:58:50Z</time>
      </trkpt>
      <trkpt lat="48.15815" lon="2.69298">
        <ele>102</ele>
        <time>2017-04-06T05:00:50Z</time>
      </trkpt>
      <trkpt lat="48.15837" lon="2.69246">
        <ele>101</ele>
        <time>2017-04-06T05:02:50Z</time>
      </trkpt>
      <trkpt lat="48.15852" lon="2.6922">
        <ele>101</ele>
        <time>2017-04-06T05:04:50Z</time>
      </trkpt>
      <trkpt lat="48.15881" lon="2.69174">
        <ele>101</ele>
        <time>2017-04-06T05:06:50Z</time>
      </trkpt>
      <trkpt lat="48.15896" lon="2.69149">
        <ele>101</ele>
        <time>2017-04-06T05:08:50Z</time>
      </trkpt>
      <trkpt lat="48.15944" lon="2.69068">
        <ele>101</ele>
        <time>2017-04-06T05:10:50Z</time>
      </trkpt>
      <trkpt lat="48.15957" lon="2.69044">
        <ele>101</ele>
        <time>2017-04-06T05:12:50Z</time>
      </trkpt>
      <trkpt lat="48.15971" lon="2.69023">
        <ele>102</ele>
        <time>2017-04-06T05:14:50Z</time>
      </trkpt>
      <trkpt lat="48.15977" lon="2.69012">
        <ele>102</ele>
        <time>2017-04-06T05:16:50Z</time>
      </trkpt>
      <trkpt lat="48.15986" lon="2.68999">
        <ele>102</ele>
        <time>2017-04-06T05:18:50Z</time>
      </trkpt>
      <trkpt lat="48.15989" lon="2.68999">
        <ele>102</ele>
        <time>2017-04-06T05:20:50Z</time>
      </trkpt>
      <trkpt lat="48.16001" lon="2.69007">
        <ele>102</ele>
        <time>2017-04-06T05:22:50Z</time>
      </trkpt>
      <trkpt lat="48.16027" lon="2.69029">
        <ele>102</ele>
        <time>2017-04-06T05:24:50Z</time>
      </trkpt>
      <trkpt lat="48.16089" lon="2.6908">
        <ele>103</ele>
        <time>2017-04-06T05:26:50Z</time>
      </trkpt>
      <trkpt lat="48.16116" lon="2.69102">
        <ele>103</ele>
        <time>2017-04-06T05:28:50Z</time>
      </trkpt>
      <trkpt lat="48.16171" lon="2.69147">
        <ele>105</ele>
        <time>2017-04-06T05:30:50Z</time>
      </trkpt>
      <trkpt lat="48.16201" lon="2.69171">
        <ele>104</ele>
        <time>2017-04-06T05:32:50Z</time>
      </trkpt>
      <trkpt lat="48.16233" lon="2.69197">
        <ele>105</ele>
        <time>2017-04-06T05:34:50Z</time>
      </trkpt>
      <trkpt lat="48.16282" lon="2.69234">
        <ele>105</ele>
        <time>2017-04-06T05:36:50Z</time>
      </trkpt>
      <trkpt lat="48.16287" lon="2.69234">
        <ele>105</ele>
        <time>2017-04-06T05:38:50Z</time>
      </trkpt>
      <trkpt lat="48.16289" lon="2.69232">
        <ele>106</ele>
        <time>2017-04-06T05:40:50Z</time>
      </trkpt>
      <trkpt lat="48.16305" lon="2.69213">
        <ele>106</ele>
        <time>2017-04-06T05:42:50Z</time>
      </trkpt>
      <trkpt lat="48.16311" lon="2.6922">
        <ele>106</ele>
        <time>2017-04-06T05:44:50Z</time>
      </trkpt>
      <trkpt lat="48.16314" lon="2.69247">
        <ele>106</ele>
        <time>2017-04-06T05:46:50Z</time>
      </trkpt>
      <trkpt lat="48.16319" lon="2.69277">
        <ele>105</ele>
        <time>2017-04-06T05:48:50Z</time>
      </trkpt>
      <trkpt lat="48.16322" lon="2.69307">
        <ele>105</ele>
        <time>2017-04-06T05:50:50Z</time>
      </trkpt>
      <trkpt lat="48.16324" lon="2.69328">
        <ele>104</ele>
        <time>2017-04-06T05:52:50Z</time>
      </trkpt>
      <trkpt lat="48.16334" lon="2.69427">
        <ele>106</ele>
        <time>2017-04-06T05:54:50Z</time>
      </trkpt>
      <trkpt lat="48.1634" lon="2.69493">
        <ele>107</ele>
        <time>2017-04-06T05:56:50Z</time>
      </trkpt>
      <trkpt lat="48.16346" lon="2.69549">
        <ele>108</ele>
        <time>2017-04-06T05:58:50Z</time>
      </trkpt>
      <trkpt lat="48.1635" lon="2.69571">
        <ele>108</ele>
        <time>2017-04-06T06:00:50Z</time>
      </trkpt>
      <trkpt lat="48.16352" lon="2.69573">
        <ele>108</ele>
        <time>2017-04-06T06:02:50Z</time>
      </trkpt>
      <trkpt lat="48.16362" lon="2.69575">
        <ele>108</ele>
        <time>2017-04-06T06:04:50Z</time>
      </trkpt>
      <trkpt lat="48.16404" lon="2.69577">
        <ele>108</ele>
        <time>2017-04-06T06:06:50Z</time>
      </trkpt>
      <trkpt lat="48.1644" lon="2.69576">
        <ele>108</ele>
        <time>2017-04-06T06:08:50Z</time>
      </trkpt>
      <trkpt lat="48.16475" lon="2.69574">
        <ele>108</ele>
        <time>2017-04-06T06:10:50Z</time>
      </trkpt>
      <trkpt lat="48.16547" lon="2.69566">
        <ele>108</ele>
        <time>2017-04-06T06:12:50Z</time>
      </trkpt>
      <trkpt lat="48.16582" lon="2.6956">
        <ele>108</ele>
        <time>2017-04-06T06:14:50Z</time>
      </trkpt>
      <trkpt lat="48.16613" lon="2.69552">
        <ele>108</ele>
        <time>2017-04-06T06:16:50Z</time>
      </trkpt>
      <trkpt lat="48.16617" lon="2.69551">
        <ele>108</ele>
        <time>2017-04-06T06:18:50Z</time>
      </trkpt>
      <trkpt lat="48.16656" lon="2.69532">
        <ele>108</ele>
        <time>2017-04-06T06:20:50Z</time>
      </trkpt>
      <trkpt lat="48.16698" lon="2.69509">
        <ele>109</ele>
        <time>2017-04-06T06:22:50Z</time>
      </trkpt>
      <trkpt lat="48.16724" lon="2.69493">
        <ele>109</ele>
        <time>2017-04-06T06:24:50Z</time>
      </trkpt>
      <trkpt lat="48.1675" lon="2.69476">
        <ele>109</ele>
        <time>2017-04-06T06:26:50Z</time>
      </trkpt>
      <trkpt lat="48.16782" lon="2.6946">
        <ele>109</ele>
        <time>2017-04-06T06:28:50Z</time>
      </trkpt>
      <trkpt lat="48.16847" lon="2.69427">
        <ele>109</ele>
        <time>2017-04-06T06:30:50Z</time>
      </trkpt>
      <trkpt lat="48.16881" lon="2.69408">
        <ele>110</ele>
        <time>2017-04-06T06:32:50Z</time>
      </trkpt>
      <trkpt lat="48.16919" lon="2.69384">
        <ele>110</ele>
        <time>2017-04-06T06:34:50Z</time>
      </trkpt>
      <trkpt lat="48.1695" lon="2.69366">
        <ele>110</ele>
        <time>2017-04-06T06:36:50Z</time>
      </trkpt>
      <trkpt lat="48.1699" lon="2.69346">
        <ele>110</ele>
        <time>2017-04-06T06:38:50Z</time>
      </trkpt>
      <trkpt lat="48.17035" lon="2.69326">
        <ele>111</ele>
        <time>2017-04-06T06:40:50Z</time>
      </trkpt>
      <trkpt lat="48.17062" lon="2.69311">
        <ele>111</ele>
        <time>2017-04-06T06:42:50Z</time>
      </trkpt>
      <trkpt lat="48.17087" lon="2.69299">
        <ele>111</ele>
        <time>2017-04-06T06:44:50Z</time>
      </trkpt>
      <trkpt lat="48.17226" lon="2.69234">
        <ele>110</ele>
        <time>2017-04-06T06:46:50Z</time>
      </trkpt>
      <trkpt lat="48.17251" lon="2.69221">
        <ele>110</ele>
        <time>2017-04-06T06:48:50Z</time>
      </trkpt>
      <trkpt lat="48.17274" lon="2.69208">
        <ele>110</ele>
        <time>2017-04-06T06:50:50Z</time>
      </trkpt>
      <trkpt lat="48.17293" lon="2.69197">
        <ele>110</ele>
        <time>2017-04-06T06:52:50Z</time>
      </trkpt>
      <trkpt lat="48.1731" lon="2.69189">
        <ele>110</ele>
        <time>2017-04-06T06:54:50Z</time>
      </trkpt>
      <trkpt lat="48.17341" lon="2.69171">
        <ele>110</ele>
        <time>2017-04-06T06:56:50Z</time>
      </trkpt>
      <trkpt lat="48.17382" lon="2.69147">
        <ele>110</ele>
        <time>2017-04-06T06:58:50Z</time>
      </trkpt>
      <trkpt lat="48.17453" lon="2.69109">
        <ele>112</ele>
        <time>2017-04-06T07:00:50Z</time>
      </trkpt>
      <trkpt lat="48.1748" lon="2.69093">
        <ele>113</ele>
        <time>2017-04-06T07:02:50Z</time>
      </trkpt>
      <trkpt lat="48.17511" lon="2.69081">
        <ele>114</ele>
        <time>2017-04-06T07:04:50Z</time>
      </trkpt>
      <trkpt lat="48.17536" lon="2.69072">
        <ele>114</ele>
        <time>2017-04-06T07:06:50Z</time>
      </trkpt>
      <trkpt lat="48.1756" lon="2.69065">
        <ele>113</ele>
        <time>2017-04-06T07:08:50Z</time>
      </trkpt>
      <trkpt lat="48.17588" lon="2.69062">
        <ele>113</ele>
        <time>2017-04-06T07:10:50Z</time>
      </trkpt>
      <trkpt lat="48.17605" lon="2.69062">
        <ele>113</ele>
        <time>2017-04-06T07:12:50Z</time>
      </trkpt>
      <trkpt lat="48.17615" lon="2.69061">
        <ele>113</ele>
        <time>2017-04-06T07:14:50Z</time>
      </trkpt>
      <trkpt lat="48.17649" lon="2.69055">
        <ele>113</ele>
        <time>2017-04-06T07:16:50Z</time>
      </trkpt>
      <trkpt lat="48.17718" lon="2.69042">
        <ele>112</ele>
        <time>2017-04-06T07:18:50Z</time>
      </trkpt>
      <trkpt lat="48.17753" lon="2.69038">
        <ele>111</ele>
        <time>2017-04-06T07:20:50Z</time>
      </trkpt>
      <trkpt lat="48.17797" lon="2.69029">
        <ele>112</ele>
        <time>2017-04-06T07:22:50Z</time>
      </trkpt>
      <trkpt lat="48.17829" lon="2.6902">
        <ele>112</ele>
        <time>2017-04-06T07:24:50Z</time>
      </trkpt>
      <trkpt lat="48.17863" lon="2.69007">
        <ele>112</ele>
        <time>2017-04-06T07:26:50Z</time>
      </trkpt>
      <trkpt lat="48.17899" lon="2.69002">
        <ele>111</ele>
        <time>2017-04-06T07:28:50Z</time>
      </trkpt>
      <trkpt lat="48.17936" lon="2.69001">
        <ele>110</ele>
        <time>2017-04-06T07:30:50Z</time>
      </trkpt>
      <trkpt lat="48.18009" lon="2.69002">
        <ele>110</ele>
        <time>2017-04-06T07:32:50Z</time>
      </trkpt>
      <trkpt lat="48.18048" lon="2.69001">
        <ele>111</ele>
        <time>2017-04-06T07:34:50Z</time>
      </trkpt>
      <trkpt lat="48.18127" lon="2.68998">
        <ele>114</ele>
        <time>2017-04-06T07:36:50Z</time>
      </trkpt>
      <trkpt lat="48.1817" lon="2.68995">
        <ele>115</ele>
        <time>2017-04-06T07:38:50Z</time>
      </trkpt>
      <trkpt lat="48.18216" lon="2.68989">
        <ele>115</ele>
        <time>2017-04-06T07:40:50Z</time>
      </trkpt>
      <trkpt lat="48.1824" lon="2.68987">
        <ele>115</ele>
        <time>2017-04-06T07:42:50Z</time>
      </trkpt>
      <trkpt lat="48.1825" lon="2.68988">
        <ele>115</ele>
        <time>2017-04-06T07:44:50Z</time>
      </trkpt>
      <trkpt lat="48.18264" lon="2.68986">
        <ele>114</ele>
        <time>2017-04-06T07:46:50Z</time>
      </trkpt>
      <trkpt lat="48.18291" lon="2.68983">
        <ele>113</ele>
        <time>2017-04-06T07:48:50Z</time>
      </trkpt>
      <trkpt lat="48.18313" lon="2.68979">
        <ele>112</ele>
        <time>2017-04-06T07:50:50Z</time>
      </trkpt>
      <trkpt lat="48.18322" lon="2.68989">
        <ele>112</ele>
        <time>2017-04-06T07:52:50Z</time>
      </trkpt>
      <trkpt lat="48.18335" lon="2.6901">
        <ele>111</ele>
        <time>2017-04-06T07:54:50Z</time>
      </trkpt>
      <trkpt lat="48.18346" lon="2.69029">
        <ele>111</ele>
        <time>2017-04-06T07:56:50Z</time>
      </trkpt>
      <trkpt lat="48.18347" lon="2.69034">
        <ele>111</ele>
        <time>2017-04-06T07:58:50Z</time>
      </trkpt>
      <trkpt lat="48.18352" lon="2.69056">
        <ele>111</ele>
        <time>2017-04-06T08:00:50Z</time>
      </trkpt>
      <trkpt lat="48.18355" lon="2.69066">
        <ele>111</ele>
        <time>2017-04-06T08:02:50Z</time>
      </trkpt>
      <trkpt lat="48.18359" lon="2.69076">
        <ele>111</ele>
        <time>2017-04-06T08:04:50Z</time>
      </trkpt>
      <trkpt lat="48.18363" lon="2.69086">
        <ele>112</ele>
        <time>2017-04-06T08:06:50Z</time>
      </trkpt>
      <trkpt lat="48.18365" lon="2.69103">
        <ele>113</ele>
        <time>2017-04-06T08:08:50Z</time>
      </trkpt>
      <trkpt lat="48.1837" lon="2.69121">
        <ele>113</ele>
        <time>2017-04-06T08:10:50Z</time>
      </trkpt>
      <trkpt lat="48.18376" lon="2.69143">
        <ele>113</ele>
        <time>2017-04-06T08:12:50Z</time>
      </trkpt>
      <trkpt lat="48.18385" lon="2.69172">
        <ele>115</ele>
        <time>2017-04-06T08:14:50Z</time>
      </trkpt>
      <trkpt lat="48.18389" lon="2.69195">
        <ele>115</ele>
        <time>2017-04-06T08:16:50Z</time>
      </trkpt>
      <trkpt lat="48.18394" lon="2.69214">
        <ele>115</ele>
        <time>2017-04-06T08:18:50Z</time>
      </trkpt>
      <trkpt lat="48.18398" lon="2.69225">
        <ele>115</ele>
        <time>2017-04-06T08:20:50Z</time>
      </trkpt>
      <trkpt lat="48.184" lon="2.69227">
        <ele>115</ele>
        <time>2017-04-06T08:22:50Z</time>
      </trkpt>
      <trkpt lat="48.18406" lon="2.69231">
        <ele>116</ele>
        <time>2017-04-06T08:24:50Z</time>
      </trkpt>
      <trkpt lat="48.18416" lon="2.69238">
        <ele>116</ele>
        <time>2017-04-06T08:26:50Z</time>
      </trkpt>
      <trkpt lat="48.18435" lon="2.69249">
        <ele>116</ele>
        <time>2017-04-06T08:28:50Z</time>
      </trkpt>
      <trkpt lat="48.18461" lon="2.69264">
        <ele>116</ele>
        <time>2017-04-06T08:30:50Z</time>
      </trkpt>
      <trkpt lat="48.18473" lon="2.69274">
        <ele>116</ele>
        <time>2017-04-06T08:32:50Z</time>
      </trkpt>
      <trkpt lat="48.18481" lon="2.69279">
        <ele>115</ele>
        <time>2017-04-06T08:34:50Z</time>
      </trkpt>
      <trkpt lat="48.18486" lon="2.69281">
        <ele>115</ele>
        <time>2017-04-06T08:36:50Z</time>
      </trkpt>
      <trkpt lat="48.18504" lon="2.69291">
        <ele>115</ele>
        <time>2017-04-06T08:38:50Z</time>
      </trkpt>
      <trkpt lat="48.18521" lon="2.693">
        <ele>115</ele>
        <time>2017-04-06T08:40:50Z</time>
      </trkpt>
      <trkpt lat="48.18535" lon="2.69308">
        <ele>114</ele>
        <time>2017-04-06T08:42:50Z</time>
      </trkpt>
      <trkpt lat="48.18558" lon="2.6932">
        <ele>114</ele>
        <time>2017-04-06T08:44:50Z</time>
      </trkpt>
      <trkpt lat="48.18573" lon="2.69325">
        <ele>115</ele>
        <time>2017-04-06T08:46:50Z</time>
      </trkpt>
      <trkpt lat="48.18574" lon="2.69326">
        <ele>115</ele>
        <time>2017-04-06T08:48:50Z</time>
      </trkpt>
      <trkpt lat="48.1858" lon="2.6933">
        <ele>115</ele>
        <time>2017-04-06T08:50:50Z</time>
      </trkpt>
      <trkpt lat="48.18595" lon="2.6934">
        <ele>115</ele>
        <time>2017-04-06T08:52:50Z</time>
      </trkpt>
      <trkpt lat="48.18606" lon="2.69347">
        <ele>114</ele>
        <time>2017-04-06T08:54:50Z</time>
      </trkpt>
      <trkpt lat="48.18622" lon="2.69353">
        <ele>114</ele>
        <time>2017-04-06T08:56:50Z</time>
      </trkpt>
      <trkpt lat="48.18638" lon="2.6936">
        <ele>114</ele>
        <time>2017-04-06T08:58:50Z</time>
      </trkpt>
      <trkpt lat="48.18641" lon="2.69362">
        <ele>114</ele>
        <time>2017-04-06T09:00:50Z</time>
      </trkpt>
      <trkpt lat="48.18652" lon="2.69371">
        <ele>114</ele>
        <time>2017-04-06T09:02:50Z</time>
      </trkpt>
      <trkpt lat="48.18667" lon="2.69388">
        <ele>111</ele>
        <time>2017-04-06T09:04:50Z</time>
      </trkpt>
      <trkpt lat="48.18679" lon="2.69402">
        <ele>111</ele>
        <time>2017-04-06T09:06:50Z</time>
      </trkpt>
      <trkpt lat="48.18693" lon="2.69421">
        <ele>112</ele>
        <time>2017-04-06T09:08:50Z</time>
      </trkpt>
      <trkpt lat="48.187" lon="2.6943">
        <ele>112</ele>
        <time>2017-04-06T09:10:50Z</time>
      </trkpt>
      <trkpt lat="48.18719" lon="2.69457">
        <ele>112</ele>
        <time>2017-04-06T09:12:50Z</time>
      </trkpt>
      <trkpt lat="48.18731" lon="2.69477">
        <ele>111</ele>
        <time>2017-04-06T09:14:50Z</time>
      </trkpt>
      <trkpt lat="48.18742" lon="2.69496">
        <ele>111</ele>
        <time>2017-04-06T09:16:50Z</time>
      </trkpt>
      <trkpt lat="48.18756" lon="2.69513">
        <ele>109</ele>
        <time>2017-04-06T09:18:50Z</time>
      </trkpt>
      <trkpt lat="48.1878" lon="2.69527">
        <ele>108</ele>
        <time>2017-04-06T09:20:50Z</time>
      </trkpt>
      <trkpt lat="48.18787" lon="2.69531">
        <ele>108</ele>
        <time>2017-04-06T09:22:50Z</time>
      </trkpt>
      <trkpt lat="48.18803" lon="2.69539">
        <ele>108</ele>
        <time>2017-04-06T09:24:50Z</time>
      </trkpt>
      <trkpt lat="48.18816" lon="2.69553">
        <ele>107</ele>
        <time>2017-04-06T09:26:50Z</time>
      </trkpt>
      <trkpt lat="48.1882" lon="2.69567">
        <ele>107</ele>
        <time>2017-04-06T09:28:50Z</time>
      </trkpt>
      <trkpt lat="48.18822" lon="2.69585">
        <ele>108</ele>
        <time>2017-04-06T09:30:50Z</time>
      </trkpt>
      <trkpt lat="48.18824" lon="2.69598">
        <ele>108</ele>
        <time>2017-04-06T09:32:50Z</time>
      </trkpt>
      <trkpt lat="48.18825" lon="2.6961">
        <ele>108</ele>
        <time>2017-04-06T09:34:50Z</time>
      </trkpt>
      <trkpt lat="48.18825" lon="2.69634">
        <ele>108</ele>
        <time>2017-04-06T09:36:50Z</time>
      </trkpt>
      <trkpt lat="48.18825" lon="2.69656">
        <ele>108</ele>
        <time>2017-04-06T09:38:50Z</time>
      </trkpt>
      <trkpt lat="48.18827" lon="2.69679">
        <ele>107</ele>
        <time>2017-04-06T09:40:50Z</time>
      </trkpt>
      <trkpt lat="48.18832" lon="2.69706">
        <ele>107</ele>
        <time>2017-04-06T09:42:50Z</time>
      </trkpt>
      <trkpt lat="48.18854" lon="2.69769">
        <ele>104</ele>
        <time>2017-04-06T09:44:50Z</time>
      </trkpt>
      <trkpt lat="48.18858" lon="2.69778">
        <ele>104</ele>
        <time>2017-04-06T09:46:50Z</time>
      </trkpt>
      <trkpt lat="48.18865" lon="2.69793">
        <ele>104</ele>
        <time>2017-04-06T09:48:50Z</time>
      </trkpt>
      <trkpt lat="48.18866" lon="2.69797">
        <ele>104</ele>
        <time>2017-04-06T09:50:50Z</time>
      </trkpt>
      <trkpt lat="48.1887" lon="2.69821">
        <ele>104</ele>
        <time>2017-04-06T09:52:50Z</time>
      </trkpt>
      <trkpt lat="48.18873" lon="2.69838">
        <ele>103</ele>
        <time>2017-04-06T09:54:50Z</time>
      </trkpt>
      <trkpt lat="48.18875" lon="2.69852">
        <ele>103</ele>
        <time>2017-04-06T09:56:50Z</time>
      </trkpt>
      <trkpt lat="48.18876" lon="2.69859">
        <ele>103</ele>
        <time>2017-04-06T09:58:50Z</time>
      </trkpt>
      <trkpt lat="48.18878" lon="2.69894">
        <ele>103</ele>
        <time>2017-04-06T10:00:50Z</time>
      </trkpt>
      <trkpt lat="48.18878" lon="2.69903">
        <ele>103</ele>
        <time>2017-04-06T10:02:50Z</time>
      </trkpt>
      <trkpt lat="48.18877" lon="2.69937">
        <ele>102</ele>
        <time>2017-04-06T10:04:50Z</time>
      </trkpt>
      <trkpt lat="48.18875" lon="2.69957">
        <ele>102</ele>
        <time>2017-04-06T10:06:50Z</time>
      </trkpt>
      <trkpt lat="48.18873" lon="2.69975">
        <ele>101</ele>
        <time>2017-04-06T10:08:50Z</time>
      </trkpt>
      <trkpt lat="48.18872" lon="2.69982">
        <ele>101</ele>
        <time>2017-04-06T10:10:50Z</time>
      </trkpt>
      <trkpt lat="48.18872" lon="2.69989">
        <ele>101</ele>
        <time>2017-04-06T10:12:50Z</time>
      </trkpt>
      <trkpt lat="48.18878" lon="2.70002">
        <ele>100</ele>
        <time>2017-04-06T10:14:50Z</time>
      </trkpt>
      <trkpt lat="48.18894" lon="2.70014">
        <ele>100</ele>
        <time>2017-04-06T10:16:50Z</time>
      </trkpt>
      <trkpt lat="48.18903" lon="2.70015">
        <ele>100</ele>
        <time>2017-04-06T10:18:50Z</time>
      </trkpt>
      <trkpt lat="48.18906" lon="2.69999">
        <ele>100</ele>
        <time>2017-04-06T10:20:50Z</time>
      </trkpt>
      <trkpt lat="48.18912" lon="2.69966">
        <ele>101</ele>
        <time>2017-04-06T10:22:50Z</time>
      </trkpt>
      <trkpt lat="48.18913" lon="2.69951">
        <ele>102</ele>
        <time>2017-04-06T10:26:50Z</time>
      </trkpt>
      <trkpt lat="48.18913" lon="2.6995">
        <ele>102</ele>
        <time>2017-04-06T10:28:50Z</time>
      </trkpt>
      <trkpt lat="48.18913" lon="2.69942">
        <ele>102</ele>
        <time>2017-04-06T10:30:50Z</time>
      </trkpt>
      <trkpt lat="48.18915" lon="2.69921">
        <ele>103</ele>
        <time>2017-04-06T10:32:50Z</time>
      </trkpt>
      <trkpt lat="48.18916" lon="2.69915">
        <ele>103</ele>
        <time>2017-04-06T10:34:50Z</time>
      </trkpt>
      <trkpt lat="48.18916" lon="2.69907">
        <ele>103</ele>
        <time>2017-04-06T10:36:50Z</time>
      </trkpt>
      <trkpt lat="48.18913" lon="2.69881">
        <ele>103</ele>
        <time>2017-04-06T10:38:50Z</time>
      </trkpt>
      <trkpt lat="48.18908" lon="2.69847">
        <ele>104</ele>
        <time>2017-04-06T10:40:50Z</time>
      </trkpt>
      <trkpt lat="48.18906" lon="2.69835">
        <ele>104</ele>
        <time>2017-04-06T10:42:50Z</time>
      </trkpt>
      <trkpt lat="48.18904" lon="2.69804">
        <ele>104</ele>
        <time>2017-04-06T10:44:50Z</time>
      </trkpt>
      <trkpt lat="48.18904" lon="2.69782">
        <ele>105</ele>
        <time>2017-04-06T10:46:50Z</time>
      </trkpt>
      <trkpt lat="48.18904" lon="2.69761">
        <ele>105</ele>
        <time>2017-04-06T10:48:50Z</time>
      </trkpt>
      <trkpt lat="48.18899" lon="2.69727">
        <ele>106</ele>
        <time>2017-04-06T10:50:50Z</time>
      </trkpt>
      <trkpt lat="48.18898" lon="2.69699">
        <ele>105</ele>
        <time>2017-04-06T10:52:50Z</time>
      </trkpt>
      <trkpt lat="48.18898" lon="2.6966">
        <ele>105</ele>
        <time>2017-04-06T10:54:50Z</time>
      </trkpt>
      <trkpt lat="48.189" lon="2.69634">
        <ele>105</ele>
        <time>2017-04-06T10:56:50Z</time>
      </trkpt>
      <trkpt lat="48.18906" lon="2.69601">
        <ele>105</ele>
        <time>2017-04-06T10:58:50Z</time>
      </trkpt>
      <trkpt lat="48.18914" lon="2.69587">
        <ele>104</ele>
        <time>2017-04-06T11:00:50Z</time>
      </trkpt>
      <trkpt lat="48.18919" lon="2.69582">
        <ele>104</ele>
        <time>2017-04-06T11:02:50Z</time>
      </trkpt>
      <trkpt lat="48.18923" lon="2.6958">
        <ele>104</ele>
        <time>2017-04-06T11:04:50Z</time>
      </trkpt>
      <trkpt lat="48.18936" lon="2.69566">
        <ele>105</ele>
        <time>2017-04-06T11:06:50Z</time>
      </trkpt>
      <trkpt lat="48.18947" lon="2.69558">
        <ele>105</ele>
        <time>2017-04-06T11:08:50Z</time>
      </trkpt>
      <trkpt lat="48.18948" lon="2.69557">
        <ele>105</ele>
        <time>2017-04-06T11:10:50Z</time>
      </trkpt>
      <trkpt lat="48.18953" lon="2.69553">
        <ele>106</ele>
        <time>2017-04-06T11:12:50Z</time>
      </trkpt>
      <trkpt lat="48.18961" lon="2.69544">
        <ele>106</ele>
        <time>2017-04-06T11:14:50Z</time>
      </trkpt>
      <trkpt lat="48.18964" lon="2.6954">
        <ele>106</ele>
        <time>2017-04-06T11:16:50Z</time>
      </trkpt>
      <trkpt lat="48.18979" lon="2.69526">
        <ele>106</ele>
        <time>2017-04-06T11:18:50Z</time>
      </trkpt>
      <trkpt lat="48.18986" lon="2.69514">
        <ele>105</ele>
        <time>2017-04-06T11:20:50Z</time>
      </trkpt>
      <trkpt lat="48.1899" lon="2.69509">
        <ele>105</ele>
        <time>2017-04-06T11:22:50Z</time>
      </trkpt>
      <trkpt lat="48.19009" lon="2.69486">
        <ele>106</ele>
        <time>2017-04-06T11:24:50Z</time>
      </trkpt>
      <trkpt lat="48.19034" lon="2.6946">
        <ele>106</ele>
        <time>2017-04-06T11:26:50Z</time>
      </trkpt>
      <trkpt lat="48.19045" lon="2.69445">
        <ele>106</ele>
        <time>2017-04-06T11:28:50Z</time>
      </trkpt>
      <trkpt lat="48.19053" lon="2.69421">
        <ele>106</ele>
        <time>2017-04-06T11:30:50Z</time>
      </trkpt>
      <trkpt lat="48.19057" lon="2.69399">
        <ele>105</ele>
        <time>2017-04-06T11:32:50Z</time>
      </trkpt>
      <trkpt lat="48.19057" lon="2.69395">
        <ele>105</ele>
        <time>2017-04-06T11:34:50Z</time>
      </trkpt>
      <trkpt lat="48.19063" lon="2.69363">
        <ele>105</ele>
        <time>2017-04-06T11:36:50Z</time>
      </trkpt>
      <trkpt lat="48.19066" lon="2.69332">
        <ele>104</ele>
        <time>2017-04-06T11:38:50Z</time>
      </trkpt>
      <trkpt lat="48.19071" lon="2.69306">
        <ele>105</ele>
        <time>2017-04-06T11:40:50Z</time>
      </trkpt>
      <trkpt lat="48.19074" lon="2.69289">
        <ele>105</ele>
        <time>2017-04-06T11:42:50Z</time>
      </trkpt>
      <trkpt lat="48.19077" lon="2.69269">
        <ele>105</ele>
        <time>2017-04-06T11:44:50Z</time>
      </trkpt>
      <trkpt lat="48.19081" lon="2.69234">
        <ele>105</ele>
        <time>2017-04-06T11:46:50Z</time>
      </trkpt>
      <trkpt lat="48.19087" lon="2.692">
        <ele>106</ele>
        <time>2017-04-06T11:48:50Z</time>
      </trkpt>
      <trkpt lat="48.1909" lon="2.69181">
        <ele>105</ele>
        <time>2017-04-06T11:50:50Z</time>
      </trkpt>
      <trkpt lat="48.191" lon="2.69119">
        <ele>106</ele>
        <time>2017-04-06T11:52:50Z</time>
      </trkpt>
      <trkpt lat="48.19105" lon="2.69079">
        <ele>107</ele>
        <time>2017-04-06T11:54:50Z</time>
      </trkpt>
      <trkpt lat="48.19106" lon="2.69048">
        <ele>108</ele>
        <time>2017-04-06T11:56:50Z</time>
      </trkpt>
      <trkpt lat="48.1911" lon="2.68948">
        <ele>110</ele>
        <time>2017-04-06T11:58:50Z</time>
      </trkpt>
      <trkpt lat="48.19113" lon="2.68893">
        <ele>108</ele>
        <time>2017-04-06T12:00:50Z</time>
      </trkpt>
      <trkpt lat="48.1912" lon="2.6885">
        <ele>108</ele>
        <time>2017-04-06T12:02:50Z</time>
      </trkpt>
      <trkpt lat="48.19128" lon="2.68817">
        <ele>107</ele>
        <time>2017-04-06T12:04:50Z</time>
      </trkpt>
      <trkpt lat="48.1914" lon="2.68777">
        <ele>107</ele>
        <time>2017-04-06T12:06:50Z</time>
      </trkpt>
      <trkpt lat="48.19164" lon="2.68689">
        <ele>107</ele>
        <time>2017-04-06T12:08:50Z</time>
      </trkpt>
      <trkpt lat="48.19185" lon="2.68615">
        <ele>109</ele>
        <time>2017-04-06T12:10:50Z</time>
      </trkpt>
      <trkpt lat="48.19194" lon="2.68581">
        <ele>110</ele>
        <time>2017-04-06T12:12:50Z</time>
      </trkpt>
      <trkpt lat="48.19195" lon="2.68578">
        <ele>110</ele>
        <time>2017-04-06T12:14:50Z</time>
      </trkpt>
      <trkpt lat="48.19215" lon="2.68504">
        <ele>111</ele>
        <time>2017-04-06T12:16:50Z</time>
      </trkpt>
      <trkpt lat="48.19227" lon="2.68467">
        <ele>110</ele>
        <time>2017-04-06T12:18:50Z</time>
      </trkpt>
      <trkpt lat="48.19228" lon="2.6846">
        <ele>110</ele>
        <time>2017-04-06T12:22:50Z</time>
      </trkpt>
      <trkpt lat="48.19245" lon="2.68401">
        <ele>110</ele>
        <time>2017-04-06T12:24:50Z</time>
      </trkpt>
      <trkpt lat="48.19255" lon="2.68367">
        <ele>112</ele>
        <time>2017-04-06T12:26:50Z</time>
      </trkpt>
      <trkpt lat="48.19266" lon="2.68328">
        <ele>111</ele>
        <time>2017-04-06T12:28:50Z</time>
      </trkpt>
      <trkpt lat="48.19288" lon="2.68247">
        <ele>111</ele>
        <time>2017-04-06T12:30:50Z</time>
      </trkpt>
      <trkpt lat="48.19291" lon="2.68237">
        <ele>111</ele>
        <time>2017-04-06T12:32:50Z</time>
      </trkpt>
      <trkpt lat="48.19307" lon="2.6818">
        <ele>111</ele>
        <time>2017-04-06T12:34:50Z</time>
      </trkpt>
      <trkpt lat="48.19317" lon="2.68139">
        <ele>111</ele>
        <time>2017-04-06T12:36:50Z</time>
      </trkpt>
      <trkpt lat="48.19318" lon="2.68092">
        <ele>111</ele>
        <time>2017-04-06T12:38:50Z</time>
      </trkpt>
      <trkpt lat="48.19318" lon="2.68074">
        <ele>111</ele>
        <time>2017-04-06T12:40:50Z</time>
      </trkpt>
      <trkpt lat="48.19318" lon="2.67949">
        <ele>111</ele>
        <time>2017-04-06T12:42:50Z</time>
      </trkpt>
      <trkpt lat="48.1932" lon="2.67895">
        <ele>111</ele>
        <time>2017-04-06T12:44:50Z</time>
      </trkpt>
      <trkpt lat="48.19324" lon="2.67888">
        <ele>111</ele>
        <time>2017-04-06T12:46:50Z</time>
      </trkpt>
      <trkpt lat="48.19329" lon="2.67887">
        <ele>111</ele>
        <time>2017-04-06T12:48:50Z</time>
      </trkpt>
      <trkpt lat="48.19347" lon="2.6789">
        <ele>112</ele>
        <time>2017-04-06T12:50:50Z</time>
      </trkpt>
      <trkpt lat="48.19379" lon="2.67892">
        <ele>112</ele>
        <time>2017-04-06T12:52:50Z</time>
      </trkpt>
      <trkpt lat="48.19413" lon="2.67893">
        <ele>112</ele>
        <time>2017-04-06T12:54:50Z</time>
      </trkpt>
      <trkpt lat="48.19447" lon="2.67892">
        <ele>113</ele>
        <time>2017-04-06T12:56:50Z</time>
      </trkpt>
      <trkpt lat="48.19475" lon="2.6789">
        <ele>113</ele>
        <time>2017-04-06T12:58:50Z</time>
      </trkpt>
      <trkpt lat="48.19501" lon="2.6789">
        <ele>114</ele>
        <time>2017-04-06T13:00:50Z</time>
      </trkpt>
      <trkpt lat="48.19527" lon="2.67888">
        <ele>114</ele>
        <time>2017-04-06T13:02:50Z</time>
      </trkpt>
      <trkpt lat="48.19555" lon="2.67888">
        <ele>114</ele>
        <time>2017-04-06T13:04:50Z</time>
      </trkpt>
      <trkpt lat="48.19571" lon="2.6788">
        <ele>114</ele>
        <time>2017-04-06T13:06:50Z</time>
      </trkpt>
      <trkpt lat="48.19601" lon="2.67867">
        <ele>114</ele>
        <time>2017-04-06T13:08:50Z</time>
      </trkpt>
      <trkpt lat="48.19648" lon="2.67848">
        <ele>113</ele>
        <time>2017-04-06T13:10:50Z</time>
      </trkpt>
      <trkpt lat="48.1969" lon="2.67831">
        <ele>114</ele>
        <time>2017-04-06T13:12:50Z</time>
      </trkpt>
      <trkpt lat="48.19724" lon="2.67817">
        <ele>114</ele>
        <time>2017-04-06T13:14:50Z</time>
      </trkpt>
      <trkpt lat="48.19782" lon="2.67793">
        <ele>115</ele>
        <time>2017-04-06T13:16:50Z</time>
      </trkpt>
      <trkpt lat="48.19812" lon="2.67782">
        <ele>115</ele>
        <time>2017-04-06T13:18:50Z</time>
      </trkpt>
      <trkpt lat="48.19849" lon="2.67766">
        <ele>116</ele>
        <time>2017-04-06T13:20:50Z</time>
      </trkpt>
      <trkpt lat="48.19873" lon="2.67757">
        <ele>116</ele>
        <time>2017-04-06T13:22:50Z</time>
      </trkpt>
      <trkpt lat="48.19904" lon="2.67744">
        <ele>116</ele>
        <time>2017-04-06T13:24:50Z</time>
      </trkpt>
      <trkpt lat="48.19935" lon="2.67731">
        <ele>116</ele>
        <time>2017-04-06T13:26:50Z</time>
      </trkpt>
      <trkpt lat="48.1996" lon="2.67721">
        <ele>116</ele>
        <time>2017-04-06T13:28:50Z</time>
      </trkpt>
      <trkpt lat="48.20007" lon="2.67703">
        <ele>117</ele>
        <time>2017-04-06T13:30:50Z</time>
      </trkpt>
      <trkpt lat="48.20037" lon="2.6769">
        <ele>117</ele>
        <time>2017-04-06T13:32:50Z</time>
      </trkpt>
      <trkpt lat="48.2006" lon="2.67681">
        <ele>117</ele>
        <time>2017-04-06T13:34:50Z</time>
      </trkpt>
      <trkpt lat="48.20091" lon="2.67668">
        <ele>117</ele>
        <time>2017-04-06T13:36:50Z</time>
      </trkpt>
      <trkpt lat="48.20094" lon="2.67667">
        <ele>117</ele>
        <time>2017-04-06T13:38:50Z</time>
      </trkpt>
      <trkpt lat="48.2011" lon="2.6766">
        <ele>117</ele>
        <time>2017-04-06T13:40:50Z</time>
      </trkpt>
      <trkpt lat="48.2013" lon="2.67652">
        <ele>117</ele>
        <time>2017-04-06T13:42:50Z</time>
      </trkpt>
      <trkpt lat="48.20166" lon="2.67638">
        <ele>117</ele>
        <time>2017-04-06T13:44:50Z</time>
      </trkpt>
      <trkpt lat="48.20245" lon="2.67604">
        <ele>116</ele>
        <time>2017-04-06T13:46:50Z</time>
      </trkpt>
      <trkpt lat="48.20275" lon="2.67591">
        <ele>115</ele>
        <time>2017-04-06T13:48:50Z</time>
      </trkpt>
      <trkpt lat="48.20338" lon="2.67567">
        <ele>115</ele>
        <time>2017-04-06T13:50:50Z</time>
      </trkpt>
      <trkpt lat="48.20408" lon="2.67537">
        <ele>115</ele>
        <time>2017-04-06T13:52:50Z</time>
      </trkpt>
      <trkpt lat="48.20437" lon="2.67528">
        <ele>115</ele>
        <time>2017-04-06T13:54:50Z</time>
      </trkpt>
      <trkpt lat="48.20458" lon="2.6752">
        <ele>115</ele>
        <time>2017-04-06T13:56:50Z</time>
      </trkpt>
      <trkpt lat="48.20487" lon="2.67507">
        <ele>115</ele>
        <time>2017-04-06T13:58:50Z</time>
      </trkpt>
      <trkpt lat="48.20516" lon="2.67496">
        <ele>115</ele>
        <time>2017-04-06T14:00:50Z</time>
      </trkpt>
      <trkpt lat="48.2056" lon="2.67478">
        <ele>114</ele>
        <time>2017-04-06T14:02:50Z</time>
      </trkpt>
      <trkpt lat="48.2057" lon="2.67475">
        <ele>114</ele>
        <time>2017-04-06T14:04:50Z</time>
      </trkpt>
      <trkpt lat="48.20596" lon="2.6747">
        <ele>114</ele>
        <time>2017-04-06T14:06:50Z</time>
      </trkpt>
      <trkpt lat="48.20636" lon="2.6746">
        <ele>114</ele>
        <time>2017-04-06T14:08:50Z</time>
      </trkpt>
      <trkpt lat="48.20664" lon="2.67454">
        <ele>114</ele>
        <time>2017-04-06T14:10:50Z</time>
      </trkpt>
      <trkpt lat="48.207" lon="2.67445">
        <ele>113</ele>
        <time>2017-04-06T14:12:50Z</time>
      </trkpt>
      <trkpt lat="48.20724" lon="2.6744">
        <ele>113</ele>
        <time>2017-04-06T14:14:50Z</time>
      </trkpt>
      <trkpt lat="48.20836" lon="2.67413">
        <ele>114</ele>
        <time>2017-04-06T14:16:50Z</time>
      </trkpt>
      <trkpt lat="48.209" lon="2.674">
        <ele>117</ele>
        <time>2017-04-06T14:18:50Z</time>
      </trkpt>
      <trkpt lat="48.20916" lon="2.67396">
        <ele>117</ele>
        <time>2017-04-06T14:20:50Z</time>
      </trkpt>
      <trkpt lat="48.20954" lon="2.67385">
        <ele>118</ele>
        <time>2017-04-06T14:22:50Z</time>
      </trkpt>
      <trkpt lat="48.20969" lon="2.67381">
        <ele>118</ele>
        <time>2017-04-06T14:24:50Z</time>
      </trkpt>
      <trkpt lat="48.20992" lon="2.67375">
        <ele>118</ele>
        <time>2017-04-06T14:26:50Z</time>
      </trkpt>
      <trkpt lat="48.21014" lon="2.67369">
        <ele>117</ele>
        <time>2017-04-06T14:28:50Z</time>
      </trkpt>
      <trkpt lat="48.21042" lon="2.67367">
        <ele>116</ele>
        <time>2017-04-06T14:30:50Z</time>
      </trkpt>
      <trkpt lat="48.21055" lon="2.67364">
        <ele>116</ele>
        <time>2017-04-06T14:32:50Z</time>
      </trkpt>
      <trkpt lat="48.21069" lon="2.67361">
        <ele>116</ele>
        <time>2017-04-06T14:34:50Z</time>
      </trkpt>
      <trkpt lat="48.21084" lon="2.67356">
        <ele>115</ele>
        <time>2017-04-06T14:36:50Z</time>
      </trkpt>
      <trkpt lat="48.21114" lon="2.67347">
        <ele>114</ele>
        <time>2017-04-06T14:38:50Z</time>
      </trkpt>
      <trkpt lat="48.21199" lon="2.67328">
        <ele>111</ele>
        <time>2017-04-06T14:40:50Z</time>
      </trkpt>
      <trkpt lat="48.21228" lon="2.67321">
        <ele>111</ele>
        <time>2017-04-06T14:42:50Z</time>
      </trkpt>
      <trkpt lat="48.21269" lon="2.67313">
        <ele>112</ele>
        <time>2017-04-06T14:44:50Z</time>
      </trkpt>
      <trkpt lat="48.21297" lon="2.67305">
        <ele>112</ele>
        <time>2017-04-06T14:46:50Z</time>
      </trkpt>
      <trkpt lat="48.21323" lon="2.67297">
        <ele>113</ele>
        <time>2017-04-06T14:48:50Z</time>
      </trkpt>
      <trkpt lat="48.21349" lon="2.67289">
        <ele>114</ele>
        <time>2017-04-06T14:50:50Z</time>
      </trkpt>
      <trkpt lat="48.21382" lon="2.67277">
        <ele>113</ele>
        <time>2017-04-06T14:52:50Z</time>
      </trkpt>
      <trkpt lat="48.21386" lon="2.67276">
        <ele>113</ele>
        <time>2017-04-06T14:54:50Z</time>
      </trkpt>
      <trkpt lat="48.21403" lon="2.67269">
        <ele>113</ele>
        <time>2017-04-06T14:56:50Z</time>
      </trkpt>
      <trkpt lat="48.21419" lon="2.67261">
        <ele>112</ele>
        <time>2017-04-06T14:58:50Z</time>
      </trkpt>
      <trkpt lat="48.21428" lon="2.67251">
        <ele>112</ele>
        <time>2017-04-06T15:00:50Z</time>
      </trkpt>
      <trkpt lat="48.21436" lon="2.67254">
        <ele>112</ele>
        <time>2017-04-06T15:02:50Z</time>
      </trkpt>
      <trkpt lat="48.21439" lon="2.67257">
        <ele>112</ele>
        <time>2017-04-06T15:04:50Z</time>
      </trkpt>
      <trkpt lat="48.21468" lon="2.67274">
        <ele>112</ele>
        <time>2017-04-06T15:06:50Z</time>
      </trkpt>
      <trkpt lat="48.21487" lon="2.67278">
        <ele>112</ele>
        <time>2017-04-06T15:08:50Z</time>
      </trkpt>
      <trkpt lat="48.2151" lon="2.67278">
        <ele>112</ele>
        <time>2017-04-06T15:10:50Z</time>
      </trkpt>
      <trkpt lat="48.21531" lon="2.6728">
        <ele>112</ele>
        <time>2017-04-06T15:12:50Z</time>
      </trkpt>
      <trkpt lat="48.21555" lon="2.67281">
        <ele>112</ele>
        <time>2017-04-06T15:14:50Z</time>
      </trkpt>
      <trkpt lat="48.21608" lon="2.67287">
        <ele>112</ele>
        <time>2017-04-06T15:16:50Z</time>
      </trkpt>
      <trkpt lat="48.21666" lon="2.67294">
        <ele>112</ele>
        <time>2017-04-06T15:18:50Z</time>
      </trkpt>
      <trkpt lat="48.21691" lon="2.673">
        <ele>112</ele>
        <time>2017-04-06T15:20:50Z</time>
      </trkpt>
      <trkpt lat="48.21707" lon="2.67304">
        <ele>112</ele>
        <time>2017-04-06T15:22:50Z</time>
      </trkpt>
      <trkpt lat="48.21722" lon="2.67308">
        <ele>112</ele>
        <time>2017-04-06T15:24:50Z</time>
      </trkpt>
      <trkpt lat="48.21748" lon="2.67318">
        <ele>112</ele>
        <time>2017-04-06T15:26:50Z</time>
      </trkpt>
      <trkpt lat="48.21773" lon="2.6733">
        <ele>112</ele>
        <time>2017-04-06T15:28:50Z</time>
      </trkpt>
      <trkpt lat="48.21797" lon="2.67338">
        <ele>113</ele>
        <time>2017-04-06T15:30:50Z</time>
      </trkpt>
      <trkpt lat="48.2182" lon="2.67344">
        <ele>112</ele>
        <time>2017-04-06T15:32:50Z</time>
      </trkpt>
      <trkpt lat="48.21859" lon="2.67349">
        <ele>111</ele>
        <time>2017-04-06T15:34:50Z</time>
      </trkpt>
      <trkpt lat="48.2187" lon="2.6735">
        <ele>111</ele>
        <time>2017-04-06T15:36:50Z</time>
      </trkpt>
      <trkpt lat="48.21877" lon="2.67351">
        <ele>111</ele>
        <time>2017-04-06T15:38:50Z</time>
      </trkpt>
      <trkpt lat="48.21885" lon="2.67351">
        <ele>110</ele>
        <time>2017-04-06T15:40:50Z</time>
      </trkpt>
      <trkpt lat="48.2189" lon="2.6735">
        <ele>110</ele>
        <time>2017-04-06T15:42:50Z</time>
      </trkpt>
      <trkpt lat="48.21922" lon="2.67417">
        <ele>109</ele>
        <time>2017-04-06T15:44:50Z</time>
      </trkpt>
      <trkpt lat="48.21962" lon="2.67512">
        <ele>110</ele>
        <time>2017-04-06T15:46:50Z</time>
      </trkpt>
      <trkpt lat="48.21983" lon="2.6746">
        <ele>109</ele>
        <time>2017-04-06T15:48:50Z</time>
      </trkpt>
      <trkpt lat="48.22005" lon="2.67406">
        <ele>109</ele>
        <time>2017-04-06T15:50:50Z</time>
      </trkpt>
      <trkpt lat="48.22023" lon="2.67351">
        <ele>110</ele>
        <time>2017-04-06T15:52:50Z</time>
      </trkpt>
      <trkpt lat="48.22046" lon="2.67323">
        <ele>111</ele>
        <time>2017-04-06T15:54:50Z</time>
      </trkpt>
      <trkpt lat="48.22079" lon="2.6731">
        <ele>111</ele>
        <time>2017-04-06T15:56:50Z</time>
      </trkpt>
      <trkpt lat="48.22095" lon="2.67372">
        <ele>111</ele>
        <time>2017-04-06T15:58:50Z</time>
      </trkpt>
      <trkpt lat="48.22112" lon="2.67436">
        <ele>111</ele>
        <time>2017-04-06T16:00:50Z</time>
      </trkpt>
      <trkpt lat="48.22129" lon="2.67496">
        <ele>111</ele>
        <time>2017-04-06T16:02:50Z</time>
      </trkpt>
      <trkpt lat="48.22143" lon="2.67552">
        <ele>111</ele>
        <time>2017-04-06T16:04:50Z</time>
      </trkpt>
      <trkpt lat="48.22162" lon="2.67602">
        <ele>111</ele>
        <time>2017-04-06T16:06:50Z</time>
      </trkpt>
      <trkpt lat="48.22175" lon="2.67653">
        <ele>111</ele>
        <time>2017-04-06T16:08:50Z</time>
      </trkpt>
      <trkpt lat="48.22192" lon="2.67715">
        <ele>109</ele>
        <time>2017-04-06T16:10:50Z</time>
      </trkpt>
      <trkpt lat="48.22206" lon="2.67769">
        <ele>108</ele>
        <time>2017-04-06T16:12:50Z</time>
      </trkpt>
      <trkpt lat="48.22222" lon="2.67805">
        <ele>108</ele>
        <time>2017-04-06T16:14:50Z</time>
      </trkpt>
      <trkpt lat="48.22251" lon="2.67921">
        <ele>110</ele>
        <time>2017-04-06T16:16:50Z</time>
      </trkpt>
      <trkpt lat="48.22253" lon="2.6793">
        <ele>109</ele>
        <time>2017-04-06T16:18:50Z</time>
      </trkpt>
      <trkpt lat="48.22246" lon="2.67947">
        <ele>112</ele>
        <time>2017-04-06T16:20:50Z</time>
      </trkpt>
      <trkpt lat="48.22236" lon="2.67965">
        <ele>112</ele>
        <time>2017-04-06T16:22:50Z</time>
      </trkpt>
      <trkpt lat="48.22229" lon="2.67986">
        <ele>112</ele>
        <time>2017-04-06T16:24:50Z</time>
      </trkpt>
      <trkpt lat="48.22228" lon="2.68004">
        <ele>111</ele>
        <time>2017-04-06T16:26:50Z</time>
      </trkpt>
      <trkpt lat="48.22228" lon="2.68031">
        <ele>111</ele>
        <time>2017-04-06T16:28:50Z</time>
      </trkpt>
      <trkpt lat="48.22228" lon="2.68051">
        <ele>111</ele>
        <time>2017-04-06T16:30:50Z</time>
      </trkpt>
      <trkpt lat="48.22229" lon="2.68073">
        <ele>110</ele>
        <time>2017-04-06T16:32:50Z</time>
      </trkpt>
      <trkpt lat="48.22231" lon="2.68089">
        <ele>108</ele>
        <time>2017-04-06T16:34:50Z</time>
      </trkpt>
      <trkpt lat="48.22232" lon="2.68098">
        <ele>108</ele>
        <time>2017-04-06T16:36:50Z</time>
      </trkpt>
      <trkpt lat="48.22233" lon="2.68124">
        <ele>107</ele>
        <time>2017-04-06T16:38:50Z</time>
      </trkpt>
      <trkpt lat="48.22236" lon="2.68158">
        <ele>106</ele>
        <time>2017-04-06T16:40:50Z</time>
      </trkpt>
      <trkpt lat="48.22237" lon="2.68177">
        <ele>103</ele>
        <time>2017-04-06T16:42:50Z</time>
      </trkpt>
      <trkpt lat="48.22237" lon="2.68186">
        <ele>102</ele>
        <time>2017-04-06T16:44:50Z</time>
      </trkpt>
      <trkpt lat="48.22237" lon="2.68193">
        <ele>102</ele>
        <time>2017-04-06T16:46:50Z</time>
      </trkpt>
      <trkpt lat="48.22236" lon="2.68223">
        <ele>100</ele>
        <time>2017-04-06T16:48:50Z</time>
      </trkpt>
      <trkpt lat="48.22236" lon="2.6824">
        <ele>100</ele>
        <time>2017-04-06T16:50:50Z</time>
      </trkpt>
      <trkpt lat="48.22236" lon="2.68261">
        <ele>98</ele>
        <time>2017-04-06T16:52:50Z</time>
      </trkpt>
      <trkpt lat="48.22237" lon="2.68293">
        <ele>98</ele>
        <time>2017-04-06T16:54:50Z</time>
      </trkpt>
      <trkpt lat="48.22239" lon="2.68323">
        <ele>97</ele>
        <time>2017-04-06T16:56:50Z</time>
      </trkpt>
      <trkpt lat="48.22248" lon="2.68371">
        <ele>100</ele>
        <time>2017-04-06T16:58:50Z</time>
      </trkpt>
      <trkpt lat="48.22257" lon="2.68399">
        <ele>99</ele>
        <time>2017-04-06T17:00:50Z</time>
      </trkpt>
      <trkpt lat="48.22256" lon="2.68406">
        <ele>99</ele>
        <time>2017-04-06T17:02:50Z</time>
      </trkpt>
      <trkpt lat="48.22257" lon="2.68419">
        <ele>100</ele>
        <time>2017-04-06T17:04:50Z</time>
      </trkpt>
      <trkpt lat="48.22259" lon="2.68428">
        <ele>101</ele>
        <time>2017-04-06T17:06:50Z</time>
      </trkpt>
      <trkpt lat="48.2226" lon="2.68439">
        <ele>101</ele>
        <time>2017-04-06T17:08:50Z</time>
      </trkpt>
      <trkpt lat="48.22263" lon="2.6846">
        <ele>102</ele>
        <time>2017-04-06T17:10:50Z</time>
      </trkpt>
      <trkpt lat="48.22264" lon="2.68479">
        <ele>102</ele>
        <time>2017-04-06T17:12:50Z</time>
      </trkpt>
      <trkpt lat="48.22266" lon="2.68513">
        <ele>105</ele>
        <time>2017-04-06T17:14:50Z</time>
      </trkpt>
      <trkpt lat="48.22269" lon="2.68552">
        <ele>106</ele>
        <time>2017-04-06T17:16:50Z</time>
      </trkpt>
      <trkpt lat="48.22271" lon="2.68593">
        <ele>109</ele>
        <time>2017-04-06T17:18:50Z</time>
      </trkpt>
      <trkpt lat="48.22275" lon="2.68641">
        <ele>110</ele>
        <time>2017-04-06T17:20:50Z</time>
      </trkpt>
      <trkpt lat="48.22277" lon="2.68658">
        <ele>110</ele>
        <time>2017-04-06T17:22:50Z</time>
      </trkpt>
      <trkpt lat="48.2228" lon="2.68679">
        <ele>111</ele>
        <time>2017-04-06T17:24:50Z</time>
      </trkpt>
      <trkpt lat="48.22283" lon="2.68701">
        <ele>112</ele>
        <time>2017-04-06T17:26:50Z</time>
      </trkpt>
      <trkpt lat="48.22289" lon="2.6877">
        <ele>113</ele>
        <time>2017-04-06T17:28:50Z</time>
      </trkpt>
      <trkpt lat="48.22291" lon="2.68818">
        <ele>114</ele>
        <time>2017-04-06T17:30:50Z</time>
      </trkpt>
      <trkpt lat="48.22292" lon="2.68852">
        <ele>115</ele>
        <time>2017-04-06T17:32:50Z</time>
      </trkpt>
      <trkpt lat="48.22292" lon="2.68886">
        <ele>115</ele>
        <time>2017-04-06T17:34:50Z</time>
      </trkpt>
      <trkpt lat="48.22291" lon="2.68925">
        <ele>116</ele>
        <time>2017-04-06T17:36:50Z</time>
      </trkpt>
      <trkpt lat="48.22289" lon="2.69017">
        <ele>116</ele>
        <time>2017-04-06T17:38:50Z</time>
      </trkpt>
      <trkpt lat="48.22288" lon="2.69062">
        <ele>116</ele>
        <time>2017-04-06T17:40:50Z</time>
      </trkpt>
      <trkpt lat="48.22289" lon="2.69101">
        <ele>117</ele>
        <time>2017-04-06T17:42:50Z</time>
      </trkpt>
      <trkpt lat="48.22289" lon="2.69136">
        <ele>117</ele>
        <time>2017-04-06T17:44:50Z</time>
      </trkpt>
      <trkpt lat="48.22284" lon="2.69223">
        <ele>118</ele>
        <time>2017-04-06T17:46:50Z</time>
      </trkpt>
      <trkpt lat="48.22282" lon="2.69273">
        <ele>119</ele>
        <time>2017-04-06T17:48:50Z</time>
      </trkpt>
      <trkpt lat="48.2228" lon="2.69334">
        <ele>120</ele>
        <time>2017-04-06T17:50:50Z</time>
      </trkpt>
      <trkpt lat="48.2228" lon="2.69358">
        <ele>120</ele>
        <time>2017-04-06T17:52:50Z</time>
      </trkpt>
      <trkpt lat="48.22283" lon="2.69411">
        <ele>120</ele>
        <time>2017-04-06T17:54:50Z</time>
      </trkpt>
      <trkpt lat="48.22288" lon="2.69444">
        <ele>120</ele>
        <time>2017-04-06T17:56:50Z</time>
      </trkpt>
      <trkpt lat="48.22293" lon="2.69449">
        <ele>120</ele>
        <time>2017-04-06T17:58:50Z</time>
      </trkpt>
      <trkpt lat="48.22296" lon="2.69449">
        <ele>120</ele>
        <time>2017-04-06T18:00:50Z</time>
      </trkpt>
      <trkpt lat="48.22322" lon="2.69445">
        <ele>120</ele>
        <time>2017-04-06T18:02:50Z</time>
      </trkpt>
      <trkpt lat="48.22328" lon="2.69459">
        <ele>120</ele>
        <time>2017-04-06T18:04:50Z</time>
      </trkpt>
      <trkpt lat="48.22333" lon="2.69505">
        <ele>120</ele>
        <time>2017-04-06T18:06:50Z</time>
      </trkpt>
      <trkpt lat="48.22341" lon="2.69567">
        <ele>120</ele>
        <time>2017-04-06T18:08:50Z</time>
      </trkpt>
      <trkpt lat="48.22347" lon="2.69625">
        <ele>120</ele>
        <time>2017-04-06T18:10:50Z</time>
      </trkpt>
      <trkpt lat="48.22353" lon="2.6969">
        <ele>119</ele>
        <time>2017-04-06T18:12:50Z</time>
      </trkpt>
      <trkpt lat="48.2236" lon="2.69745">
        <ele>118</ele>
        <time>2017-04-06T18:14:50Z</time>
      </trkpt>
      <trkpt lat="48.22364" lon="2.69764">
        <ele>117</ele>
        <time>2017-04-06T18:16:50Z</time>
      </trkpt>
      <trkpt lat="48.22371" lon="2.69789">
        <ele>117</ele>
        <time>2017-04-06T18:18:50Z</time>
      </trkpt>
      <trkpt lat="48.2239" lon="2.6984">
        <ele>116</ele>
        <time>2017-04-06T18:20:50Z</time>
      </trkpt>
      <trkpt lat="48.22393" lon="2.69846">
        <ele>116</ele>
        <time>2017-04-06T18:22:50Z</time>
      </trkpt>
      <trkpt lat="48.22413" lon="2.69885">
        <ele>116</ele>
        <time>2017-04-06T18:24:50Z</time>
      </trkpt>
      <trkpt lat="48.22428" lon="2.69909">
        <ele>114</ele>
        <time>2017-04-06T18:26:50Z</time>
      </trkpt>
      <trkpt lat="48.22437" lon="2.69922">
        <ele>113</ele>
        <time>2017-04-06T18:28:50Z</time>
      </trkpt>
      <trkpt lat="48.22456" lon="2.69949">
        <ele>112</ele>
        <time>2017-04-06T18:30:50Z</time>
      </trkpt>
      <trkpt lat="48.22481" lon="2.69985">
        <ele>111</ele>
        <time>2017-04-06T18:32:50Z</time>
      </trkpt>
      <trkpt lat="48.22497" lon="2.70006">
        <ele>109</ele>
        <time>2017-04-06T18:34:50Z</time>
      </trkpt>
      <trkpt lat="48.22509" lon="2.7002">
        <ele>108</ele>
        <time>2017-04-06T18:36:50Z</time>
      </trkpt>
      <trkpt lat="48.22539" lon="2.70055">
        <ele>107</ele>
        <time>2017-04-06T18:38:50Z</time>
      </trkpt>
      <trkpt lat="48.22564" lon="2.70086">
        <ele>104</ele>
        <time>2017-04-06T18:40:50Z</time>
      </trkpt>
      <trkpt lat="48.22569" lon="2.70094">
        <ele>104</ele>
        <time>2017-04-06T18:42:50Z</time>
      </trkpt>
      <trkpt lat="48.22586" lon="2.70113">
        <ele>102</ele>
        <time>2017-04-06T18:44:50Z</time>
      </trkpt>
      <trkpt lat="48.22592" lon="2.70119">
        <ele>101</ele>
        <time>2017-04-06T18:46:50Z</time>
      </trkpt>
      <trkpt lat="48.22604" lon="2.70128">
        <ele>101</ele>
        <time>2017-04-06T18:48:50Z</time>
      </trkpt>
      <trkpt lat="48.22618" lon="2.7014">
        <ele>100</ele>
        <time>2017-04-06T18:50:50Z</time>
      </trkpt>
      <trkpt lat="48.22625" lon="2.70149">
        <ele>100</ele>
        <time>2017-04-06T18:52:50Z</time>
      </trkpt>
      <trkpt lat="48.22633" lon="2.7016">
        <ele>100</ele>
        <time>2017-04-06T18:54:50Z</time>
      </trkpt>
      <trkpt lat="48.22636" lon="2.70163">
        <ele>99</ele>
        <time>2017-04-06T18:56:50Z</time>
      </trkpt>
      <trkpt lat="48.22642" lon="2.70176">
        <ele>98</ele>
        <time>2017-04-06T18:58:50Z</time>
      </trkpt>
      <trkpt lat="48.22641" lon="2.70179">
        <ele>98</ele>
        <time>2017-04-06T19:00:50Z</time>
      </trkpt>
      <trkpt lat="48.22637" lon="2.70181">
        <ele>98</ele>
        <time>2017-04-06T19:02:50Z</time>
      </trkpt>
      <trkpt lat="48.22635" lon="2.70181">
        <ele>98</ele>
        <time>2017-04-06T19:04:50Z</time>
      </trkpt>
      <trkpt lat="48.22618" lon="2.70184">
        <ele>99</ele>
        <time>2017-04-06T19:06:50Z</time>
      </trkpt>
      <trkpt lat="48.22589" lon="2.70192">
        <ele>99</ele>
        <time>2017-04-06T19:08:50Z</time>
      </trkpt>
      <trkpt lat="48.22564" lon="2.70197">
        <ele>103</ele>
        <time>2017-04-06T19:10:50Z</time>
      </trkpt>
      <trkpt lat="48.22539" lon="2.70204">
        <ele>104</ele>
        <time>2017-04-06T19:12:50Z</time>
      </trkpt>
      <trkpt lat="48.22524" lon="2.70208">
        <ele>104</ele>
        <time>2017-04-06T19:14:50Z</time>
      </trkpt>
      <trkpt lat="48.22508" lon="2.70212">
        <ele>105</ele>
        <time>2017-04-06T19:16:50Z</time>
      </trkpt>
      <trkpt lat="48.22486" lon="2.70216">
        <ele>108</ele>
        <time>2017-04-06T19:18:50Z</time>
      </trkpt>
      <trkpt lat="48.22446" lon="2.70225">
        <ele>110</ele>
        <time>2017-04-06T19:20:50Z</time>
      </trkpt>
      <trkpt lat="48.22404" lon="2.70241">
        <ele>112</ele>
        <time>2017-04-06T19:22:50Z</time>
      </trkpt>
      <trkpt lat="48.2238" lon="2.70246">
        <ele>112</ele>
        <time>2017-04-06T19:24:50Z</time>
      </trkpt>
      <trkpt lat="48.22341" lon="2.7025">
        <ele>112</ele>
        <time>2017-04-06T19:26:50Z</time>
      </trkpt>
      <trkpt lat="48.22313" lon="2.70255">
        <ele>111</ele>
        <time>2017-04-06T19:28:50Z</time>
      </trkpt>
      <trkpt lat="48.22274" lon="2.70259">
        <ele>111</ele>
        <time>2017-04-06T19:30:50Z</time>
      </trkpt>
      <trkpt lat="48.22208" lon="2.70267">
        <ele>110</ele>
        <time>2017-04-06T19:32:50Z</time>
      </trkpt>
      <trkpt lat="48.22164" lon="2.70272">
        <ele>110</ele>
        <time>2017-04-06T19:34:50Z</time>
      </trkpt>
      <trkpt lat="48.22157" lon="2.70274">
        <ele>109</ele>
        <time>2017-04-06T19:36:50Z</time>
      </trkpt>
      <trkpt lat="48.22139" lon="2.70275">
        <ele>109</ele>
        <time>2017-04-06T19:38:50Z</time>
      </trkpt>
      <trkpt lat="48.22126" lon="2.70269">
        <ele>109</ele>
        <time>2017-04-06T19:40:50Z</time>
      </trkpt>
      <trkpt lat="48.22123" lon="2.70253">
        <ele>109</ele>
        <time>2017-04-06T19:42:50Z</time>
      </trkpt>
      <trkpt lat="48.22122" lon="2.70243">
        <ele>110</ele>
        <time>2017-04-06T19:44:50Z</time>
      </trkpt>
      <trkpt lat="48.22119" lon="2.70187">
        <ele>110</ele>
        <time>2017-04-06T19:46:50Z</time>
      </trkpt>
      <trkpt lat="48.22113" lon="2.70166">
        <ele>110</ele>
        <time>2017-04-06T19:48:50Z</time>
      </trkpt>
      <trkpt lat="48.22099" lon="2.70163">
        <ele>109</ele>
        <time>2017-04-06T19:50:50Z</time>
      </trkpt>
      <trkpt lat="48.22067" lon="2.70165">
        <ele>108</ele>
        <time>2017-04-06T19:52:50Z</time>
      </trkpt>
      <trkpt lat="48.22036" lon="2.70171">
        <ele>107</ele>
        <time>2017-04-06T19:54:50Z</time>
      </trkpt>
      <trkpt lat="48.22013" lon="2.70175">
        <ele>107</ele>
        <time>2017-04-06T19:56:50Z</time>
      </trkpt>
      <trkpt lat="48.21994" lon="2.70179">
        <ele>107</ele>
        <time>2017-04-06T19:58:50Z</time>
      </trkpt>
      <trkpt lat="48.21988" lon="2.70181">
        <ele>107</ele>
        <time>2017-04-06T20:00:50Z</time>
      </trkpt>
      <trkpt lat="48.21961" lon="2.70193">
        <ele>107</ele>
        <time>2017-04-06T20:02:50Z</time>
      </trkpt>
      <trkpt lat="48.21918" lon="2.70218">
        <ele>107</ele>
        <time>2017-04-06T20:04:50Z</time>
      </trkpt>
      <trkpt lat="48.2188" lon="2.70242">
        <ele>107</ele>
        <time>2017-04-06T20:06:50Z</time>
      </trkpt>
      <trkpt lat="48.21816" lon="2.7028">
        <ele>104</ele>
        <time>2017-04-06T20:08:50Z</time>
      </trkpt>
      <trkpt lat="48.21803" lon="2.70286">
        <ele>104</ele>
        <time>2017-04-06T20:10:50Z</time>
      </trkpt>
      <trkpt lat="48.21783" lon="2.70292">
        <ele>103</ele>
        <time>2017-04-06T20:12:50Z</time>
      </trkpt>
      <trkpt lat="48.21768" lon="2.70294">
        <ele>103</ele>
        <time>2017-04-06T20:14:50Z</time>
      </trkpt>
      <trkpt lat="48.21741" lon="2.70293">
        <ele>101</ele>
        <time>2017-04-06T20:16:50Z</time>
      </trkpt>
      <trkpt lat="48.21735" lon="2.70292">
        <ele>101</ele>
        <time>2017-04-06T20:18:50Z</time>
      </trkpt>
      <trkpt lat="48.21711" lon="2.70283">
        <ele>101</ele>
        <time>2017-04-06T20:20:50Z</time>
      </trkpt>
      <trkpt lat="48.21684" lon="2.70268">
        <ele>100</ele>
        <time>2017-04-06T20:22:50Z</time>
      </trkpt>
      <trkpt lat="48.21666" lon="2.70257">
        <ele>100</ele>
        <time>2017-04-06T20:24:50Z</time>
      </trkpt>
      <trkpt lat="48.21628" lon="2.70232">
        <ele>103</ele>
        <time>2017-04-06T20:26:50Z</time>
      </trkpt>
      <trkpt lat="48.21583" lon="2.70194">
        <ele>105</ele>
        <time>2017-04-06T20:28:50Z</time>
      </trkpt>
      <trkpt lat="48.21567" lon="2.70184">
        <ele>105</ele>
        <time>2017-04-06T20:30:50Z</time>
      </trkpt>
      <trkpt lat="48.21555" lon="2.70179">
        <ele>105</ele>
        <time>2017-04-06T20:32:50Z</time>
      </trkpt>
      <trkpt lat="48.21528" lon="2.70173">
        <ele>105</ele>
        <time>2017-04-06T20:34:50Z</time>
      </trkpt>
      <trkpt lat="48.21503" lon="2.70171">
        <ele>105</ele>
        <time>2017-04-06T20:36:50Z</time>
      </trkpt>
      <trkpt lat="48.21496" lon="2.70168">
        <ele>106</ele>
        <time>2017-04-06T20:38:50Z</time>
      </trkpt>
      <trkpt lat="48.21486" lon="2.70163">
        <ele>105</ele>
        <time>2017-04-06T20:40:50Z</time>
      </trkpt>
      <trkpt lat="48.21469" lon="2.70149">
        <ele>105</ele>
        <time>2017-04-06T20:42:50Z</time>
      </trkpt>
      <trkpt lat="48.21465" lon="2.70146">
        <ele>105</ele>
        <time>2017-04-06T20:44:50Z</time>
      </trkpt>
      <trkpt lat="48.21451" lon="2.70135">
        <ele>105</ele>
        <time>2017-04-06T20:46:50Z</time>
      </trkpt>
      <trkpt lat="48.21435" lon="2.70124">
        <ele>105</ele>
        <time>2017-04-06T20:48:50Z</time>
      </trkpt>
      <trkpt lat="48.21423" lon="2.70117">
        <ele>105</ele>
        <time>2017-04-06T20:50:50Z</time>
      </trkpt>
      <trkpt lat="48.21403" lon="2.70104">
        <ele>106</ele>
        <time>2017-04-06T20:52:50Z</time>
      </trkpt>
      <trkpt lat="48.21384" lon="2.70092">
        <ele>107</ele>
        <time>2017-04-06T20:54:50Z</time>
      </trkpt>
      <trkpt lat="48.21365" lon="2.7008">
        <ele>105</ele>
        <time>2017-04-06T20:56:50Z</time>
      </trkpt>
      <trkpt lat="48.21346" lon="2.70069">
        <ele>106</ele>
        <time>2017-04-06T20:58:50Z</time>
      </trkpt>
      <trkpt lat="48.21297" lon="2.70044">
        <ele>108</ele>
        <time>2017-04-06T21:00:50Z</time>
      </trkpt>
      <trkpt lat="48.21285" lon="2.70038">
        <ele>108</ele>
        <time>2017-04-06T21:02:50Z</time>
      </trkpt>
      <trkpt lat="48.21262" lon="2.7002">
        <ele>109</ele>
        <time>2017-04-06T21:04:50Z</time>
      </trkpt>
      <trkpt lat="48.21255" lon="2.70013">
        <ele>109</ele>
        <time>2017-04-06T21:06:50Z</time>
      </trkpt>
      <trkpt lat="48.21232" lon="2.69995">
        <ele>109</ele>
        <time>2017-04-06T21:08:50Z</time>
      </trkpt>
      <trkpt lat="48.21206" lon="2.6998">
        <ele>109</ele>
        <time>2017-04-06T21:10:50Z</time>
      </trkpt>
      <trkpt lat="48.21179" lon="2.69971">
        <ele>110</ele>
        <time>2017-04-06T21:12:50Z</time>
      </trkpt>
      <trkpt lat="48.21144" lon="2.69964">
        <ele>111</ele>
        <time>2017-04-06T21:14:50Z</time>
      </trkpt>
      <trkpt lat="48.21098" lon="2.69962">
        <ele>111</ele>
        <time>2017-04-06T21:16:50Z</time>
      </trkpt>
      <trkpt lat="48.21065" lon="2.69963">
        <ele>112</ele>
        <time>2017-04-06T21:18:50Z</time>
      </trkpt>
      <trkpt lat="48.21055" lon="2.69974">
        <ele>112</ele>
        <time>2017-04-06T21:20:50Z</time>
      </trkpt>
      <trkpt lat="48.2105" lon="2.69999">
        <ele>112</ele>
        <time>2017-04-06T21:22:50Z</time>
      </trkpt>
      <trkpt lat="48.21046" lon="2.70035">
        <ele>113</ele>
        <time>2017-04-06T21:24:50Z</time>
      </trkpt>
      <trkpt lat="48.21045" lon="2.70072">
        <ele>113</ele>
        <time>2017-04-06T21:26:50Z</time>
      </trkpt>
      <trkpt lat="48.21041" lon="2.7011">
        <ele>114</ele>
        <time>2017-04-06T21:28:50Z</time>
      </trkpt>
      <trkpt lat="48.21033" lon="2.7014">
        <ele>114</ele>
        <time>2017-04-06T21:30:50Z</time>
      </trkpt>
      <trkpt lat="48.21023" lon="2.7016">
        <ele>114</ele>
        <time>2017-04-06T21:32:50Z</time>
      </trkpt>
      <trkpt lat="48.21007" lon="2.7018">
        <ele>115</ele>
        <time>2017-04-06T21:34:50Z</time>
      </trkpt>
      <trkpt lat="48.21001" lon="2.70193">
        <ele>115</ele>
        <time>2017-04-06T21:36:50Z</time>
      </trkpt>
      <trkpt lat="48.21008" lon="2.70208">
        <ele>116</ele>
        <time>2017-04-06T21:38:50Z</time>
      </trkpt>
      <trkpt lat="48.21018" lon="2.70231">
        <ele>116</ele>
        <time>2017-04-06T21:40:50Z</time>
      </trkpt>
      <trkpt lat="48.21021" lon="2.70253">
        <ele>117</ele>
        <time>2017-04-06T21:42:50Z</time>
      </trkpt>
      <trkpt lat="48.21022" lon="2.70271">
        <ele>116</ele>
        <time>2017-04-06T21:44:50Z</time>
      </trkpt>
      <trkpt lat="48.2102" lon="2.70303">
        <ele>116</ele>
        <time>2017-04-06T21:46:50Z</time>
      </trkpt>
      <trkpt lat="48.21019" lon="2.70326">
        <ele>116</ele>
        <time>2017-04-06T21:48:50Z</time>
      </trkpt>
      <trkpt lat="48.2102" lon="2.70354">
        <ele>116</ele>
        <time>2017-04-06T21:50:50Z</time>
      </trkpt>
      <trkpt lat="48.21027" lon="2.70398">
        <ele>116</ele>
        <time>2017-04-06T21:52:50Z</time>
      </trkpt>
      <trkpt lat="48.21038" lon="2.70452">
        <ele>115</ele>
        <time>2017-04-06T21:54:50Z</time>
      </trkpt>
      <trkpt lat="48.21046" lon="2.70493">
        <ele>115</ele>
        <time>2017-04-06T21:56:50Z</time>
      </trkpt>
      <trkpt lat="48.21047" lon="2.70514">
        <ele>114</ele>
        <time>2017-04-06T21:58:50Z</time>
      </trkpt>
      <trkpt lat="48.21044" lon="2.70544">
        <ele>113</ele>
        <time>2017-04-06T22:00:50Z</time>
      </trkpt>
      <trkpt lat="48.21031" lon="2.70644">
        <ele>111</ele>
        <time>2017-04-06T22:02:50Z</time>
      </trkpt>
      <trkpt lat="48.21027" lon="2.70687">
        <ele>107</ele>
        <time>2017-04-06T22:04:50Z</time>
      </trkpt>
      <trkpt lat="48.21026" lon="2.70693">
        <ele>107</ele>
        <time>2017-04-06T22:06:50Z</time>
      </trkpt>
      <trkpt lat="48.21027" lon="2.70699">
        <ele>107</ele>
        <time>2017-04-06T22:10:50Z</time>
      </trkpt>
      <trkpt lat="48.2102" lon="2.70753">
        <ele>103</ele>
        <time>2017-04-06T22:12:50Z</time>
      </trkpt>
      <trkpt lat="48.21017" lon="2.70788">
        <ele>102</ele>
        <time>2017-04-06T22:14:50Z</time>
      </trkpt>
      <trkpt lat="48.21011" lon="2.70843">
        <ele>98</ele>
        <time>2017-04-06T22:16:50Z</time>
      </trkpt>
      <trkpt lat="48.21009" lon="2.70865">
        <ele>97</ele>
        <time>2017-04-06T22:18:50Z</time>
      </trkpt>
      <trkpt lat="48.21008" lon="2.70874">
        <ele>97</ele>
        <time>2017-04-06T22:20:50Z</time>
      </trkpt>
      <trkpt lat="48.21006" lon="2.70882">
        <ele>97</ele>
        <time>2017-04-06T22:22:50Z</time>
      </trkpt>
      <trkpt lat="48.21003" lon="2.70888">
        <ele>97</ele>
        <time>2017-04-06T22:24:50Z</time>
      </trkpt>
      <trkpt lat="48.20977" lon="2.70909">
        <ele>99</ele>
        <time>2017-04-06T22:26:50Z</time>
      </trkpt>
      <trkpt lat="48.20971" lon="2.70912">
        <ele>99</ele>
        <time>2017-04-06T22:28:50Z</time>
      </trkpt>
      <trkpt lat="48.20968" lon="2.70912">
        <ele>99</ele>
        <time>2017-04-06T22:30:50Z</time>
      </trkpt>
      <trkpt lat="48.20968" lon="2.70918">
        <ele>97</ele>
        <time>2017-04-06T22:34:50Z</time>
      </trkpt>
      <trkpt lat="48.20974" lon="2.70932">
        <ele>97</ele>
        <time>2017-04-06T22:36:50Z</time>
      </trkpt>
      <trkpt lat="48.20978" lon="2.70945">
        <ele>96</ele>
        <time>2017-04-06T22:38:50Z</time>
      </trkpt>
      <trkpt lat="48.20978" lon="2.70957">
        <ele>96</ele>
        <time>2017-04-06T22:40:50Z</time>
      </trkpt>
      <trkpt lat="48.20978" lon="2.70961">
        <ele>96</ele>
        <time>2017-04-06T22:42:50Z</time>
      </trkpt>
      <trkpt lat="48.20976" lon="2.70971">
        <ele>95</ele>
        <time>2017-04-06T22:44:50Z</time>
      </trkpt>
      <trkpt lat="48.20971" lon="2.70983">
        <ele>95</ele>
        <time>2017-04-06T22:46:50Z</time>
      </trkpt>
      <trkpt lat="48.20968" lon="2.7099">
        <ele>95</ele>
        <time>2017-04-06T22:48:50Z</time>
      </trkpt>
      <trkpt lat="48.20963" lon="2.71006">
        <ele>90</ele>
        <time>2017-04-06T22:50:50Z</time>
      </trkpt>
      <trkpt lat="48.20959" lon="2.71014">
        <ele>90</ele>
        <time>2017-04-06T22:52:50Z</time>
      </trkpt>
      <trkpt lat="48.20956" lon="2.7102">
        <ele>90</ele>
        <time>2017-04-06T22:54:50Z</time>
      </trkpt>
      <trkpt lat="48.20947" lon="2.71033">
        <ele>90</ele>
        <time>2017-04-06T22:56:50Z</time>
      </trkpt>
      <trkpt lat="48.20928" lon="2.71057">
        <ele>90</ele>
        <time>2017-04-06T22:58:50Z</time>
      </trkpt>
      <trkpt lat="48.20924" lon="2.71063">
        <ele>90</ele>
        <time>2017-04-06T23:00:50Z</time>
      </trkpt>
      <trkpt lat="48.2092" lon="2.7107">
        <ele>90</ele>
        <time>2017-04-06T23:02:50Z</time>
      </trkpt>
      <trkpt lat="48.20916" lon="2.71077">
        <ele>92</ele>
        <time>2017-04-06T23:04:50Z</time>
      </trkpt>
      <trkpt lat="48.20911" lon="2.71083">
        <ele>92</ele>
        <time>2017-04-06T23:06:50Z</time>
      </trkpt>
      <trkpt lat="48.20907" lon="2.71089">
        <ele>90</ele>
        <time>2017-04-06T23:08:50Z</time>
      </trkpt>
      <trkpt lat="48.20902" lon="2.71094">
        <ele>91</ele>
        <time>2017-04-06T23:10:50Z</time>
      </trkpt>
      <trkpt lat="48.20897" lon="2.711">
        <ele>91</ele>
        <time>2017-04-06T23:12:50Z</time>
      </trkpt>
      <trkpt lat="48.20888" lon="2.71112">
        <ele>91</ele>
        <time>2017-04-06T23:14:50Z</time>
      </trkpt>
      <trkpt lat="48.20884" lon="2.7112">
        <ele>91</ele>
        <time>2017-04-06T23:16:50Z</time>
      </trkpt>
      <trkpt lat="48.2088" lon="2.71127">
        <ele>91</ele>
        <time>2017-04-06T23:18:50Z</time>
      </trkpt>
      <trkpt lat="48.20872" lon="2.71145">
        <ele>91</ele>
        <time>2017-04-06T23:20:50Z</time>
      </trkpt>
      <trkpt lat="48.20869" lon="2.71153">
        <ele>91</ele>
        <time>2017-04-06T23:22:50Z</time>
      </trkpt>
      <trkpt lat="48.20867" lon="2.71162">
        <ele>91</ele>
        <time>2017-04-06T23:24:50Z</time>
      </trkpt>
      <trkpt lat="48.20866" lon="2.71169">
        <ele>85</ele>
        <time>2017-04-06T23:26:50Z</time>
      </trkpt>
      <trkpt lat="48.20863" lon="2.71182">
        <ele>85</ele>
        <time>2017-04-06T23:28:50Z</time>
      </trkpt>
      <trkpt lat="48.20863" lon="2.71188">
        <ele>85</ele>
        <time>2017-04-06T23:30:50Z</time>
      </trkpt>
      <trkpt lat="48.2086" lon="2.71204">
        <ele>84</ele>
        <time>2017-04-06T23:32:50Z</time>
      </trkpt>
      <trkpt lat="48.20858" lon="2.71207">
        <ele>84</ele>
        <time>2017-04-06T23:34:50Z</time>
      </trkpt>
      <trkpt lat="48.20843" lon="2.71219">
        <ele>84</ele>
        <time>2017-04-06T23:36:50Z</time>
      </trkpt>
      <trkpt lat="48.20837" lon="2.71224">
        <ele>84</ele>
        <time>2017-04-06T23:38:50Z</time>
      </trkpt>
      <trkpt lat="48.20817" lon="2.71241">
        <ele>89</ele>
        <time>2017-04-06T23:40:50Z</time>
      </trkpt>
      <trkpt lat="48.20815" lon="2.71242">
        <ele>89</ele>
        <time>2017-04-06T23:42:50Z</time>
      </trkpt>
      <trkpt lat="48.20806" lon="2.71252">
        <ele>85</ele>
        <time>2017-04-06T23:44:50Z</time>
      </trkpt>
      <trkpt lat="48.20797" lon="2.7126">
        <ele>85</ele>
        <time>2017-04-06T23:46:50Z</time>
      </trkpt>
      <trkpt lat="48.20791" lon="2.71264">
        <ele>85</ele>
        <time>2017-04-06T23:48:50Z</time>
      </trkpt>
      <trkpt lat="48.20777" lon="2.71271">
        <ele>86</ele>
        <time>2017-04-06T23:50:50Z</time>
      </trkpt>
      <trkpt lat="48.20771" lon="2.71273">
        <ele>86</ele>
        <time>2017-04-06T23:52:50Z</time>
      </trkpt>
      <trkpt lat="48.20749" lon="2.71275">
        <ele>92</ele>
        <time>2017-04-06T23:54:50Z</time>
      </trkpt>
      <trkpt lat="48.20736" lon="2.71277">
        <ele>92</ele>
        <time>2017-04-06T23:56:50Z</time>
      </trkpt>
      <trkpt lat="48.20728" lon="2.71279">
        <ele>92</ele>
        <time>2017-04-06T23:58:50Z</time>
      </trkpt>
      <trkpt lat="48.20723" lon="2.7128">
        <ele>92</ele>
        <time>2017-04-07T00:00:50Z</time>
      </trkpt>
      <trkpt lat="48.2072" lon="2.71279">
        <ele>92</ele>
        <time>2017-04-07T00:02:50Z</time>
      </trkpt>
      <trkpt lat="48.20712" lon="2.71277">
        <ele>92</ele>
        <time>2017-04-07T00:04:50Z</time>
      </trkpt>
      <trkpt lat="48.20709" lon="2.71275">
        <ele>92</ele>
        <time>2017-04-07T00:06:50Z</time>
      </trkpt>
      <trkpt lat="48.20702" lon="2.71269">
        <ele>93</ele>
        <time>2017-04-07T00:08:50Z</time>
      </trkpt>
      <trkpt lat="48.20692" lon="2.71255">
        <ele>94</ele>
        <time>2017-04-07T00:10:50Z</time>
      </trkpt>
      <trkpt lat="48.20691" lon="2.71253">
        <ele>94</ele>
        <time>2017-04-07T00:12:50Z</time>
      </trkpt>
      <trkpt lat="48.20682" lon="2.71234">
        <ele>98</ele>
        <time>2017-04-07T00:14:50Z</time>
      </trkpt>
      <trkpt lat="48.20674" lon="2.71213">
        <ele>99</ele>
        <time>2017-04-07T00:16:50Z</time>
      </trkpt>
      <trkpt lat="48.20673" lon="2.71211">
        <ele>99</ele>
        <time>2017-04-07T00:18:50Z</time>
      </trkpt>
      <trkpt lat="48.20663" lon="2.71197">
        <ele>102</ele>
        <time>2017-04-07T00:20:50Z</time>
      </trkpt>
      <trkpt lat="48.20652" lon="2.71183">
        <ele>103</ele>
        <time>2017-04-07T00:22:50Z</time>
      </trkpt>
      <trkpt lat="48.2061" lon="2.7115">
        <ele>105</ele>
        <time>2017-04-07T00:24:50Z</time>
      </trkpt>
      <trkpt lat="48.20601" lon="2.71153">
        <ele>105</ele>
        <time>2017-04-07T00:26:50Z</time>
      </trkpt>
      <trkpt lat="48.20599" lon="2.71157">
        <ele>105</ele>
        <time>2017-04-07T00:28:50Z</time>
      </trkpt>
      <trkpt lat="48.20598" lon="2.71157">
        <ele>105</ele>
        <time>2017-04-07T00:30:50Z</time>
      </trkpt>
      <trkpt lat="48.2059" lon="2.71174">
        <ele>104</ele>
        <time>2017-04-07T00:32:50Z</time>
      </trkpt>
      <trkpt lat="48.20594" lon="2.71165">
        <ele>105</ele>
        <time>2017-04-07T00:34:50Z</time>
      </trkpt>
      <trkpt lat="48.20596" lon="2.71164">
        <ele>105</ele>
        <time>2017-04-07T00:36:50Z</time>
      </trkpt>
      <trkpt lat="48.20594" lon="2.71163">
        <ele>105</ele>
        <time>2017-04-07T00:38:50Z</time>
      </trkpt>
      <trkpt lat="48.20593" lon="2.71161">
        <ele>105</ele>
        <time>2017-04-07T00:40:50Z</time>
      </trkpt>
      <trkpt lat="48.20594" lon="2.71157">
        <ele>105</ele>
        <time>2017-04-07T00:42:50Z</time>
      </trkpt>
      <trkpt lat="48.20593" lon="2.71156">
        <ele>105</ele>
        <time>2017-04-07T00:44:50Z</time>
      </trkpt>
      <trkpt lat="48.20581" lon="2.71178">
        <ele>105</ele>
        <time>2017-04-07T00:46:50Z</time>
      </trkpt>
      <trkpt lat="48.20569" lon="2.71194">
        <ele>105</ele>
        <time>2017-04-07T00:48:50Z</time>
      </trkpt>
      <trkpt lat="48.20559" lon="2.71206">
        <ele>104</ele>
        <time>2017-04-07T00:50:50Z</time>
      </trkpt>
      <trkpt lat="48.20555" lon="2.7121">
        <ele>104</ele>
        <time>2017-04-07T00:52:50Z</time>
      </trkpt>
      <trkpt lat="48.20547" lon="2.71217">
        <ele>104</ele>
        <time>2017-04-07T00:54:50Z</time>
      </trkpt>
      <trkpt lat="48.20537" lon="2.71223">
        <ele>104</ele>
        <time>2017-04-07T00:56:50Z</time>
      </trkpt>
      <trkpt lat="48.20509" lon="2.71237">
        <ele>104</ele>
        <time>2017-04-07T00:58:50Z</time>
      </trkpt>
      <trkpt lat="48.20504" lon="2.71241">
        <ele>104</ele>
        <time>2017-04-07T01:00:50Z</time>
      </trkpt>
      <trkpt lat="48.20464" lon="2.71287">
        <ele>104</ele>
        <time>2017-04-07T01:02:50Z</time>
      </trkpt>
      <trkpt lat="48.2046" lon="2.71291">
        <ele>104</ele>
        <time>2017-04-07T01:04:50Z</time>
      </trkpt>
      <trkpt lat="48.2044" lon="2.713">
        <ele>104</ele>
        <time>2017-04-07T01:06:50Z</time>
      </trkpt>
      <trkpt lat="48.20435" lon="2.71302">
        <ele>104</ele>
        <time>2017-04-07T01:08:50Z</time>
      </trkpt>
      <trkpt lat="48.20406" lon="2.71313">
        <ele>104</ele>
        <time>2017-04-07T01:10:50Z</time>
      </trkpt>
      <trkpt lat="48.2039" lon="2.71307">
        <ele>105</ele>
        <time>2017-04-07T01:12:50Z</time>
      </trkpt>
      <trkpt lat="48.20386" lon="2.71304">
        <ele>105</ele>
        <time>2017-04-07T01:14:50Z</time>
      </trkpt>
      <trkpt lat="48.20381" lon="2.71301">
        <ele>105</ele>
        <time>2017-04-07T01:16:50Z</time>
      </trkpt>
      <trkpt lat="48.20367" lon="2.713">
        <ele>105</ele>
        <time>2017-04-07T01:18:50Z</time>
      </trkpt>
      <trkpt lat="48.20353" lon="2.71295">
        <ele>105</ele>
        <time>2017-04-07T01:20:50Z</time>
      </trkpt>
      <trkpt lat="48.20349" lon="2.71292">
        <ele>105</ele>
        <time>2017-04-07T01:22:50Z</time>
      </trkpt>
      <trkpt lat="48.20344" lon="2.71282">
        <ele>106</ele>
        <time>2017-04-07T01:24:50Z</time>
      </trkpt>
      <trkpt lat="48.20339" lon="2.71253">
        <ele>107</ele>
        <time>2017-04-07T01:26:50Z</time>
      </trkpt>
      <trkpt lat="48.20333" lon="2.71219">
        <ele>106</ele>
        <time>2017-04-07T01:28:50Z</time>
      </trkpt>
      <trkpt lat="48.20326" lon="2.71194">
        <ele>106</ele>
        <time>2017-04-07T01:30:50Z</time>
      </trkpt>
      <trkpt lat="48.20324" lon="2.71189">
        <ele>106</ele>
        <time>2017-04-07T01:32:50Z</time>
      </trkpt>
      <trkpt lat="48.20312" lon="2.71175">
        <ele>106</ele>
        <time>2017-04-07T01:34:50Z</time>
      </trkpt>
      <trkpt lat="48.20308" lon="2.71172">
        <ele>106</ele>
        <time>2017-04-07T01:36:50Z</time>
      </trkpt>
      <trkpt lat="48.20297" lon="2.71163">
        <ele>106</ele>
        <time>2017-04-07T01:38:50Z</time>
      </trkpt>
      <trkpt lat="48.20294" lon="2.7116">
        <ele>106</ele>
        <time>2017-04-07T01:40:50Z</time>
      </trkpt>
      <trkpt lat="48.20286" lon="2.71156">
        <ele>106</ele>
        <time>2017-04-07T01:42:50Z</time>
      </trkpt>
      <trkpt lat="48.20276" lon="2.71152">
        <ele>106</ele>
        <time>2017-04-07T01:44:50Z</time>
      </trkpt>
      <trkpt lat="48.20254" lon="2.71146">
        <ele>106</ele>
        <time>2017-04-07T01:46:50Z</time>
      </trkpt>
      <trkpt lat="48.20234" lon="2.71136">
        <ele>105</ele>
        <time>2017-04-07T01:48:50Z</time>
      </trkpt>
      <trkpt lat="48.20221" lon="2.71127">
        <ele>105</ele>
        <time>2017-04-07T01:50:50Z</time>
      </trkpt>
      <trkpt lat="48.2021" lon="2.71116">
        <ele>104</ele>
        <time>2017-04-07T01:52:50Z</time>
      </trkpt>
      <trkpt lat="48.202" lon="2.71103">
        <ele>104</ele>
        <time>2017-04-07T01:54:50Z</time>
      </trkpt>
      <trkpt lat="48.20185" lon="2.71088">
        <ele>104</ele>
        <time>2017-04-07T01:56:50Z</time>
      </trkpt>
      <trkpt lat="48.20171" lon="2.71094">
        <ele>103</ele>
        <time>2017-04-07T01:58:50Z</time>
      </trkpt>
      <trkpt lat="48.20142" lon="2.7112">
        <ele>103</ele>
        <time>2017-04-07T02:00:50Z</time>
      </trkpt>
      <trkpt lat="48.20132" lon="2.71131">
        <ele>103</ele>
        <time>2017-04-07T02:02:50Z</time>
      </trkpt>
      <trkpt lat="48.20121" lon="2.71144">
        <ele>103</ele>
        <time>2017-04-07T02:04:50Z</time>
      </trkpt>
      <trkpt lat="48.20114" lon="2.71153">
        <ele>103</ele>
        <time>2017-04-07T02:06:50Z</time>
      </trkpt>
      <trkpt lat="48.20091" lon="2.71187">
        <ele>102</ele>
        <time>2017-04-07T02:08:50Z</time>
      </trkpt>
      <trkpt lat="48.20084" lon="2.71196">
        <ele>102</ele>
        <time>2017-04-07T02:10:50Z</time>
      </trkpt>
      <trkpt lat="48.20073" lon="2.71207">
        <ele>104</ele>
        <time>2017-04-07T02:12:50Z</time>
      </trkpt>
      <trkpt lat="48.20066" lon="2.71215">
        <ele>104</ele>
        <time>2017-04-07T02:14:50Z</time>
      </trkpt>
      <trkpt lat="48.20059" lon="2.7124">
        <ele>103</ele>
        <time>2017-04-07T02:16:50Z</time>
      </trkpt>
      <trkpt lat="48.20055" lon="2.71263">
        <ele>101</ele>
        <time>2017-04-07T02:18:50Z</time>
      </trkpt>
      <trkpt lat="48.20042" lon="2.71284">
        <ele>101</ele>
        <time>2017-04-07T02:20:50Z</time>
      </trkpt>
      <trkpt lat="48.20024" lon="2.71287">
        <ele>102</ele>
        <time>2017-04-07T02:22:50Z</time>
      </trkpt>
      <trkpt lat="48.20013" lon="2.71275">
        <ele>103</ele>
        <time>2017-04-07T02:24:50Z</time>
      </trkpt>
      <trkpt lat="48.19999" lon="2.71275">
        <ele>104</ele>
        <time>2017-04-07T02:26:50Z</time>
      </trkpt>
      <trkpt lat="48.19996" lon="2.71277">
        <ele>104</ele>
        <time>2017-04-07T02:28:50Z</time>
      </trkpt>
      <trkpt lat="48.1998" lon="2.71286">
        <ele>103</ele>
        <time>2017-04-07T02:30:50Z</time>
      </trkpt>
      <trkpt lat="48.19972" lon="2.71292">
        <ele>103</ele>
        <time>2017-04-07T02:32:50Z</time>
      </trkpt>
      <trkpt lat="48.19957" lon="2.71294">
        <ele>102</ele>
        <time>2017-04-07T02:34:50Z</time>
      </trkpt>
      <trkpt lat="48.19945" lon="2.71293">
        <ele>102</ele>
        <time>2017-04-07T02:36:50Z</time>
      </trkpt>
      <trkpt lat="48.19933" lon="2.7129">
        <ele>102</ele>
        <time>2017-04-07T02:38:50Z</time>
      </trkpt>
      <trkpt lat="48.19928" lon="2.71288">
        <ele>102</ele>
        <time>2017-04-07T02:40:50Z</time>
      </trkpt>
      <trkpt lat="48.19911" lon="2.71277">
        <ele>99</ele>
        <time>2017-04-07T02:42:50Z</time>
      </trkpt>
      <trkpt lat="48.19885" lon="2.7126">
        <ele>98</ele>
        <time>2017-04-07T02:44:50Z</time>
      </trkpt>
      <trkpt lat="48.19878" lon="2.71256">
        <ele>98</ele>
        <time>2017-04-07T02:46:50Z</time>
      </trkpt>
      <trkpt lat="48.19876" lon="2.71256">
        <ele>97</ele>
        <time>2017-04-07T02:48:50Z</time>
      </trkpt>
      <trkpt lat="48.19874" lon="2.71262">
        <ele>97</ele>
        <time>2017-04-07T02:50:50Z</time>
      </trkpt>
      <trkpt lat="48.1988" lon="2.71273">
        <ele>97</ele>
        <time>2017-04-07T02:52:50Z</time>
      </trkpt>
      <trkpt lat="48.19883" lon="2.71278">
        <ele>97</ele>
        <time>2017-04-07T02:54:50Z</time>
      </trkpt>
      <trkpt lat="48.19886" lon="2.71283">
        <ele>97</ele>
        <time>2017-04-07T02:56:50Z</time>
      </trkpt>
      <trkpt lat="48.19891" lon="2.71295">
        <ele>96</ele>
        <time>2017-04-07T02:58:50Z</time>
      </trkpt>
      <trkpt lat="48.19893" lon="2.71301">
        <ele>96</ele>
        <time>2017-04-07T03:00:50Z</time>
      </trkpt>
      <trkpt lat="48.19895" lon="2.71309">
        <ele>96</ele>
        <time>2017-04-07T03:02:50Z</time>
      </trkpt>
      <trkpt lat="48.19899" lon="2.71327">
        <ele>95</ele>
        <time>2017-04-07T03:04:50Z</time>
      </trkpt>
      <trkpt lat="48.19903" lon="2.71346">
        <ele>90</ele>
        <time>2017-04-07T03:06:50Z</time>
      </trkpt>
      <trkpt lat="48.19905" lon="2.71355">
        <ele>88</ele>
        <time>2017-04-07T03:08:50Z</time>
      </trkpt>
      <trkpt lat="48.19911" lon="2.71371">
        <ele>86</ele>
        <time>2017-04-07T03:10:50Z</time>
      </trkpt>
      <trkpt lat="48.19919" lon="2.71386">
        <ele>90</ele>
        <time>2017-04-07T03:12:50Z</time>
      </trkpt>
      <trkpt lat="48.19933" lon="2.7141">
        <ele>88</ele>
        <time>2017-04-07T03:14:50Z</time>
      </trkpt>
      <trkpt lat="48.19938" lon="2.71418">
        <ele>81</ele>
        <time>2017-04-07T03:16:50Z</time>
      </trkpt>
      <trkpt lat="48.19944" lon="2.71435">
        <ele>80</ele>
        <time>2017-04-07T03:18:50Z</time>
      </trkpt>
      <trkpt lat="48.19949" lon="2.71448">
        <ele>79</ele>
        <time>2017-04-07T03:20:50Z</time>
      </trkpt>
      <trkpt lat="48.19951" lon="2.71453">
        <ele>79</ele>
        <time>2017-04-07T03:22:50Z</time>
      </trkpt>
      <trkpt lat="48.19955" lon="2.71472">
        <ele>77</ele>
        <time>2017-04-07T03:24:50Z</time>
      </trkpt>
      <trkpt lat="48.19959" lon="2.71496">
        <ele>76</ele>
        <time>2017-04-07T03:26:50Z</time>
      </trkpt>
      <trkpt lat="48.1996" lon="2.71514">
        <ele>68</ele>
        <time>2017-04-07T03:28:50Z</time>
      </trkpt>
      <trkpt lat="48.19955" lon="2.71528">
        <ele>68</ele>
        <time>2017-04-07T03:30:50Z</time>
      </trkpt>
      <trkpt lat="48.19946" lon="2.71527">
        <ele>68</ele>
        <time>2017-04-07T03:32:50Z</time>
      </trkpt>
      <trkpt lat="48.19935" lon="2.71526">
        <ele>68</ele>
        <time>2017-04-07T03:34:50Z</time>
      </trkpt>
      <trkpt lat="48.19923" lon="2.71542">
        <ele>67</ele>
        <time>2017-04-07T03:36:50Z</time>
      </trkpt>
      <trkpt lat="48.19915" lon="2.71569">
        <ele>66</ele>
        <time>2017-04-07T03:38:50Z</time>
      </trkpt>
      <trkpt lat="48.19902" lon="2.71571">
        <ele>66</ele>
        <time>2017-04-07T03:40:50Z</time>
      </trkpt>
      <trkpt lat="48.19871" lon="2.71571">
        <ele>66</ele>
        <time>2017-04-07T03:42:50Z</time>
      </trkpt>
      <trkpt lat="48.19794" lon="2.71574">
        <ele>69</ele>
        <time>2017-04-07T03:44:50Z</time>
      </trkpt>
      <trkpt lat="48.1977" lon="2.71576">
        <ele>70</ele>
        <time>2017-04-07T03:46:50Z</time>
      </trkpt>
      <trkpt lat="48.19763" lon="2.71577">
        <ele>70</ele>
        <time>2017-04-07T03:48:50Z</time>
      </trkpt>
      <trkpt lat="48.19741" lon="2.71582">
        <ele>73</ele>
        <time>2017-04-07T03:50:50Z</time>
      </trkpt>
      <trkpt lat="48.19738" lon="2.71584">
        <ele>71</ele>
        <time>2017-04-07T03:52:50Z</time>
      </trkpt>
      <trkpt lat="48.19719" lon="2.71588">
        <ele>72</ele>
        <time>2017-04-07T03:54:50Z</time>
      </trkpt>
      <trkpt lat="48.19712" lon="2.7159">
        <ele>73</ele>
        <time>2017-04-07T03:56:50Z</time>
      </trkpt>
      <trkpt lat="48.19679" lon="2.71597">
        <ele>76</ele>
        <time>2017-04-07T03:58:50Z</time>
      </trkpt>
      <trkpt lat="48.19667" lon="2.716">
        <ele>76</ele>
        <time>2017-04-07T04:00:50Z</time>
      </trkpt>
      <trkpt lat="48.19643" lon="2.7161">
        <ele>77</ele>
        <time>2017-04-07T04:02:50Z</time>
      </trkpt>
      <trkpt lat="48.19634" lon="2.71616">
        <ele>77</ele>
        <time>2017-04-07T04:04:50Z</time>
      </trkpt>
      <trkpt lat="48.19624" lon="2.71626">
        <ele>76</ele>
        <time>2017-04-07T04:06:50Z</time>
      </trkpt>
      <trkpt lat="48.19611" lon="2.71636">
        <ele>76</ele>
        <time>2017-04-07T04:08:50Z</time>
      </trkpt>
      <trkpt lat="48.19597" lon="2.71646">
        <ele>74</ele>
        <time>2017-04-07T04:10:50Z</time>
      </trkpt>
      <trkpt lat="48.19571" lon="2.71657">
        <ele>73</ele>
        <time>2017-04-07T04:12:50Z</time>
      </trkpt>
      <trkpt lat="48.19532" lon="2.71656">
        <ele>74</ele>
        <time>2017-04-07T04:14:50Z</time>
      </trkpt>
      <trkpt lat="48.19508" lon="2.71648">
        <ele>74</ele>
        <time>2017-04-07T04:16:50Z</time>
      </trkpt>
      <trkpt lat="48.19457" lon="2.71625">
        <ele>76</ele>
        <time>2017-04-07T04:18:50Z</time>
      </trkpt>
      <trkpt lat="48.19379" lon="2.71597">
        <ele>74</ele>
        <time>2017-04-07T04:20:50Z</time>
      </trkpt>
      <trkpt lat="48.19356" lon="2.71587">
        <ele>73</ele>
        <time>2017-04-07T04:22:50Z</time>
      </trkpt>
      <trkpt lat="48.19291" lon="2.71561">
        <ele>76</ele>
        <time>2017-04-07T04:24:50Z</time>
      </trkpt>
      <trkpt lat="48.19236" lon="2.71544">
        <ele>73</ele>
        <time>2017-04-07T04:26:50Z</time>
      </trkpt>
      <trkpt lat="48.19193" lon="2.71526">
        <ele>73</ele>
        <time>2017-04-07T04:28:50Z</time>
      </trkpt>
      <trkpt lat="48.19177" lon="2.71517">
        <ele>74</ele>
        <time>2017-04-07T04:30:50Z</time>
      </trkpt>
      <trkpt lat="48.19161" lon="2.71507">
        <ele>75</ele>
        <time>2017-04-07T04:32:50Z</time>
      </trkpt>
      <trkpt lat="48.19136" lon="2.71489">
        <ele>82</ele>
        <time>2017-04-07T04:34:50Z</time>
      </trkpt>
      <trkpt lat="48.19115" lon="2.71479">
        <ele>82</ele>
        <time>2017-04-07T04:36:50Z</time>
      </trkpt>
      <trkpt lat="48.19077" lon="2.71472">
        <ele>81</ele>
        <time>2017-04-07T04:38:50Z</time>
      </trkpt>
      <trkpt lat="48.19039" lon="2.71472">
        <ele>82</ele>
        <time>2017-04-07T04:40:50Z</time>
      </trkpt>
      <trkpt lat="48.1901" lon="2.71477">
        <ele>80</ele>
        <time>2017-04-07T04:42:50Z</time>
      </trkpt>
      <trkpt lat="48.18998" lon="2.7148">
        <ele>80</ele>
        <time>2017-04-07T04:44:50Z</time>
      </trkpt>
      <trkpt lat="48.18963" lon="2.7149">
        <ele>82</ele>
        <time>2017-04-07T04:46:50Z</time>
      </trkpt>
      <trkpt lat="48.18917" lon="2.71508">
        <ele>77</ele>
        <time>2017-04-07T04:48:50Z</time>
      </trkpt>
      <trkpt lat="48.18876" lon="2.71523">
        <ele>78</ele>
        <time>2017-04-07T04:50:50Z</time>
      </trkpt>
      <trkpt lat="48.18871" lon="2.71525">
        <ele>78</ele>
        <time>2017-04-07T04:52:50Z</time>
      </trkpt>
      <trkpt lat="48.18806" lon="2.71557">
        <ele>81</ele>
        <time>2017-04-07T04:54:50Z</time>
      </trkpt>
      <trkpt lat="48.18723" lon="2.71603">
        <ele>75</ele>
        <time>2017-04-07T04:56:50Z</time>
      </trkpt>
      <trkpt lat="48.18688" lon="2.71622">
        <ele>76</ele>
        <time>2017-04-07T04:58:50Z</time>
      </trkpt>
      <trkpt lat="48.18651" lon="2.71652">
        <ele>79</ele>
        <time>2017-04-07T05:00:50Z</time>
      </trkpt>
      <trkpt lat="48.1862" lon="2.71682">
        <ele>75</ele>
        <time>2017-04-07T05:02:50Z</time>
      </trkpt>
      <trkpt lat="48.18612" lon="2.71688">
        <ele>76</ele>
        <time>2017-04-07T05:04:50Z</time>
      </trkpt>
      <trkpt lat="48.18605" lon="2.71696">
        <ele>76</ele>
        <time>2017-04-07T05:06:50Z</time>
      </trkpt>
      <trkpt lat="48.18593" lon="2.71708">
        <ele>75</ele>
        <time>2017-04-07T05:08:50Z</time>
      </trkpt>
      <trkpt lat="48.18565" lon="2.71729">
        <ele>79</ele>
        <time>2017-04-07T05:10:50Z</time>
      </trkpt>
      <trkpt lat="48.18525" lon="2.71756">
        <ele>71</ele>
        <time>2017-04-07T05:12:50Z</time>
      </trkpt>
      <trkpt lat="48.18492" lon="2.71784">
        <ele>69</ele>
        <time>2017-04-07T05:14:50Z</time>
      </trkpt>
      <trkpt lat="48.18457" lon="2.71819">
        <ele>67</ele>
        <time>2017-04-07T05:16:50Z</time>
      </trkpt>
      <trkpt lat="48.18422" lon="2.71865">
        <ele>63</ele>
        <time>2017-04-07T05:18:50Z</time>
      </trkpt>
      <trkpt lat="48.18378" lon="2.7192">
        <ele>67</ele>
        <time>2017-04-07T05:20:50Z</time>
      </trkpt>
      <trkpt lat="48.18368" lon="2.71931">
        <ele>68</ele>
        <time>2017-04-07T05:22:50Z</time>
      </trkpt>
      <trkpt lat="48.18336" lon="2.71979">
        <ele>68</ele>
        <time>2017-04-07T05:24:50Z</time>
      </trkpt>
      <trkpt lat="48.18304" lon="2.72033">
        <ele>68</ele>
        <time>2017-04-07T05:26:50Z</time>
      </trkpt>
      <trkpt lat="48.18264" lon="2.72089">
        <ele>67</ele>
        <time>2017-04-07T05:28:50Z</time>
      </trkpt>
      <trkpt lat="48.18165" lon="2.72233">
        <ele>67</ele>
        <time>2017-04-07T05:30:50Z</time>
      </trkpt>
      <trkpt lat="48.1816" lon="2.72239">
        <ele>67</ele>
        <time>2017-04-07T05:32:50Z</time>
      </trkpt>
      <trkpt lat="48.1812" lon="2.72271">
        <ele>67</ele>
        <time>2017-04-07T05:34:50Z</time>
      </trkpt>
      <trkpt lat="48.18111" lon="2.72282">
        <ele>67</ele>
        <time>2017-04-07T05:36:50Z</time>
      </trkpt>
      <trkpt lat="48.181" lon="2.72301">
        <ele>67</ele>
        <time>2017-04-07T05:38:50Z</time>
      </trkpt>
      <trkpt lat="48.18076" lon="2.72355">
        <ele>67</ele>
        <time>2017-04-07T05:40:50Z</time>
      </trkpt>
      <trkpt lat="48.18065" lon="2.72381">
        <ele>67</ele>
        <time>2017-04-07T05:42:50Z</time>
      </trkpt>
      <trkpt lat="48.18056" lon="2.72398">
        <ele>67</ele>
        <time>2017-04-07T05:44:50Z</time>
      </trkpt>
      <trkpt lat="48.18042" lon="2.72425">
        <ele>67</ele>
        <time>2017-04-07T05:46:50Z</time>
      </trkpt>
      <trkpt lat="48.18031" lon="2.72437">
        <ele>67</ele>
        <time>2017-04-07T05:48:50Z</time>
      </trkpt>
      <trkpt lat="48.18017" lon="2.72454">
        <ele>67</ele>
        <time>2017-04-07T05:50:50Z</time>
      </trkpt>
      <trkpt lat="48.17995" lon="2.72469">
        <ele>68</ele>
        <time>2017-04-07T05:52:50Z</time>
      </trkpt>
      <trkpt lat="48.1799" lon="2.72472">
        <ele>68</ele>
        <time>2017-04-07T05:54:50Z</time>
      </trkpt>
      <trkpt lat="48.17956" lon="2.72492">
        <ele>69</ele>
        <time>2017-04-07T05:56:50Z</time>
      </trkpt>
      <trkpt lat="48.17921" lon="2.72512">
        <ele>69</ele>
        <time>2017-04-07T05:58:50Z</time>
      </trkpt>
      <trkpt lat="48.1789" lon="2.72531">
        <ele>71</ele>
        <time>2017-04-07T06:00:50Z</time>
      </trkpt>
      <trkpt lat="48.17884" lon="2.72535">
        <ele>71</ele>
        <time>2017-04-07T06:02:50Z</time>
      </trkpt>
      <trkpt lat="48.17878" lon="2.72545">
        <ele>71</ele>
        <time>2017-04-07T06:04:50Z</time>
      </trkpt>
      <trkpt lat="48.17878" lon="2.72551">
        <ele>71</ele>
        <time>2017-04-07T06:06:50Z</time>
      </trkpt>
      <trkpt lat="48.17879" lon="2.72552">
        <ele>71</ele>
        <time>2017-04-07T06:08:50Z</time>
      </trkpt>
      <trkpt lat="48.17877" lon="2.72562">
        <ele>71</ele>
        <time>2017-04-07T06:10:50Z</time>
      </trkpt>
      <trkpt lat="48.17872" lon="2.72572">
        <ele>71</ele>
        <time>2017-04-07T06:12:50Z</time>
      </trkpt>
      <trkpt lat="48.17868" lon="2.72578">
        <ele>71</ele>
        <time>2017-04-07T06:14:50Z</time>
      </trkpt>
      <trkpt lat="48.17867" lon="2.7258">
        <ele>71</ele>
        <time>2017-04-07T06:16:50Z</time>
      </trkpt>
      <trkpt lat="48.17858" lon="2.72587">
        <ele>69</ele>
        <time>2017-04-07T06:18:50Z</time>
      </trkpt>
      <trkpt lat="48.17833" lon="2.72604">
        <ele>71</ele>
        <time>2017-04-07T06:20:50Z</time>
      </trkpt>
      <trkpt lat="48.17815" lon="2.72614">
        <ele>71</ele>
        <time>2017-04-07T06:22:50Z</time>
      </trkpt>
      <trkpt lat="48.17811" lon="2.72617">
        <ele>71</ele>
        <time>2017-04-07T06:24:50Z</time>
      </trkpt>
      <trkpt lat="48.17808" lon="2.72616">
        <ele>71</ele>
        <time>2017-04-07T06:28:50Z</time>
      </trkpt>
      <trkpt lat="48.17781" lon="2.72612">
        <ele>72</ele>
        <time>2017-04-07T06:30:50Z</time>
      </trkpt>
      <trkpt lat="48.17768" lon="2.72617">
        <ele>72</ele>
        <time>2017-04-07T06:32:50Z</time>
      </trkpt>
      <trkpt lat="48.17747" lon="2.72633">
        <ele>75</ele>
        <time>2017-04-07T06:34:50Z</time>
      </trkpt>
      <trkpt lat="48.17739" lon="2.72642">
        <ele>74</ele>
        <time>2017-04-07T06:36:50Z</time>
      </trkpt>
      <trkpt lat="48.1771" lon="2.72673">
        <ele>67</ele>
        <time>2017-04-07T06:38:50Z</time>
      </trkpt>
      <trkpt lat="48.17701" lon="2.72681">
        <ele>67</ele>
        <time>2017-04-07T06:40:50Z</time>
      </trkpt>
      <trkpt lat="48.17678" lon="2.72695">
        <ele>67</ele>
        <time>2017-04-07T06:42:50Z</time>
      </trkpt>
      <trkpt lat="48.17647" lon="2.72709">
        <ele>72</ele>
        <time>2017-04-07T06:44:50Z</time>
      </trkpt>
      <trkpt lat="48.17638" lon="2.72713">
        <ele>72</ele>
        <time>2017-04-07T06:46:50Z</time>
      </trkpt>
      <trkpt lat="48.17611" lon="2.72721">
        <ele>73</ele>
        <time>2017-04-07T06:48:50Z</time>
      </trkpt>
      <trkpt lat="48.17584" lon="2.7273">
        <ele>73</ele>
        <time>2017-04-07T06:50:50Z</time>
      </trkpt>
      <trkpt lat="48.1758" lon="2.72731">
        <ele>78</ele>
        <time>2017-04-07T06:52:50Z</time>
      </trkpt>
      <trkpt lat="48.17526" lon="2.72747">
        <ele>81</ele>
        <time>2017-04-07T06:54:50Z</time>
      </trkpt>
      <trkpt lat="48.17492" lon="2.72758">
        <ele>79</ele>
        <time>2017-04-07T06:56:50Z</time>
      </trkpt>
      <trkpt lat="48.17479" lon="2.7276">
        <ele>78</ele>
        <time>2017-04-07T06:58:50Z</time>
      </trkpt>
      <trkpt lat="48.17468" lon="2.72766">
        <ele>78</ele>
        <time>2017-04-07T07:00:50Z</time>
      </trkpt>
      <trkpt lat="48.17446" lon="2.72782">
        <ele>78</ele>
        <time>2017-04-07T07:02:50Z</time>
      </trkpt>
      <trkpt lat="48.17423" lon="2.72799">
        <ele>76</ele>
        <time>2017-04-07T07:04:50Z</time>
      </trkpt>
      <trkpt lat="48.17402" lon="2.72817">
        <ele>79</ele>
        <time>2017-04-07T07:06:50Z</time>
      </trkpt>
      <trkpt lat="48.17375" lon="2.72846">
        <ele>73</ele>
        <time>2017-04-07T07:08:50Z</time>
      </trkpt>
      <trkpt lat="48.17348" lon="2.72878">
        <ele>73</ele>
        <time>2017-04-07T07:10:50Z</time>
      </trkpt>
      <trkpt lat="48.17329" lon="2.72901">
        <ele>75</ele>
        <time>2017-04-07T07:12:50Z</time>
      </trkpt>
      <trkpt lat="48.17308" lon="2.72929">
        <ele>71</ele>
        <time>2017-04-07T07:14:50Z</time>
      </trkpt>
      <trkpt lat="48.17296" lon="2.72939">
        <ele>72</ele>
        <time>2017-04-07T07:16:50Z</time>
      </trkpt>
      <trkpt lat="48.17294" lon="2.72938">
        <ele>72</ele>
        <time>2017-04-07T07:18:50Z</time>
      </trkpt>
      <trkpt lat="48.17287" lon="2.72931">
        <ele>72</ele>
        <time>2017-04-07T07:20:50Z</time>
      </trkpt>
      <trkpt lat="48.17277" lon="2.72913">
        <ele>78</ele>
        <time>2017-04-07T07:22:50Z</time>
      </trkpt>
      <trkpt lat="48.17273" lon="2.72896">
        <ele>78</ele>
        <time>2017-04-07T07:24:50Z</time>
      </trkpt>
      <trkpt lat="48.17272" lon="2.72887">
        <ele>79</ele>
        <time>2017-04-07T07:26:50Z</time>
      </trkpt>
      <trkpt lat="48.17268" lon="2.72865">
        <ele>80</ele>
        <time>2017-04-07T07:28:50Z</time>
      </trkpt>
      <trkpt lat="48.17267" lon="2.72851">
        <ele>81</ele>
        <time>2017-04-07T07:30:50Z</time>
      </trkpt>
      <trkpt lat="48.17265" lon="2.72845">
        <ele>82</ele>
        <time>2017-04-07T07:32:50Z</time>
      </trkpt>
      <trkpt lat="48.1726" lon="2.72828">
        <ele>87</ele>
        <time>2017-04-07T07:34:50Z</time>
      </trkpt>
      <trkpt lat="48.17257" lon="2.72817">
        <ele>88</ele>
        <time>2017-04-07T07:36:50Z</time>
      </trkpt>
      <trkpt lat="48.17253" lon="2.72806">
        <ele>89</ele>
        <time>2017-04-07T07:38:50Z</time>
      </trkpt>
      <trkpt lat="48.17247" lon="2.72795">
        <ele>91</ele>
        <time>2017-04-07T07:40:50Z</time>
      </trkpt>
      <trkpt lat="48.17244" lon="2.72791">
        <ele>91</ele>
        <time>2017-04-07T07:42:50Z</time>
      </trkpt>
      <trkpt lat="48.17241" lon="2.72785">
        <ele>91</ele>
        <time>2017-04-07T07:44:50Z</time>
      </trkpt>
      <trkpt lat="48.17227" lon="2.72764">
        <ele>92</ele>
        <time>2017-04-07T07:46:50Z</time>
      </trkpt>
      <trkpt lat="48.17218" lon="2.72752">
        <ele>92</ele>
        <time>2017-04-07T07:48:50Z</time>
      </trkpt>
      <trkpt lat="48.17216" lon="2.72747">
        <ele>95</ele>
        <time>2017-04-07T07:50:50Z</time>
      </trkpt>
      <trkpt lat="48.17209" lon="2.72739">
        <ele>95</ele>
        <time>2017-04-07T07:52:50Z</time>
      </trkpt>
      <trkpt lat="48.17205" lon="2.72733">
        <ele>95</ele>
        <time>2017-04-07T07:54:50Z</time>
      </trkpt>
      <trkpt lat="48.17199" lon="2.72726">
        <ele>95</ele>
        <time>2017-04-07T07:56:50Z</time>
      </trkpt>
      <trkpt lat="48.1719" lon="2.72714">
        <ele>96</ele>
        <time>2017-04-07T07:58:50Z</time>
      </trkpt>
      <trkpt lat="48.17183" lon="2.72701">
        <ele>95</ele>
        <time>2017-04-07T08:00:50Z</time>
      </trkpt>
      <trkpt lat="48.17177" lon="2.72685">
        <ele>95</ele>
        <time>2017-04-07T08:02:50Z</time>
      </trkpt>
      <trkpt lat="48.17172" lon="2.72669">
        <ele>94</ele>
        <time>2017-04-07T08:04:50Z</time>
      </trkpt>
      <trkpt lat="48.17164" lon="2.72646">
        <ele>97</ele>
        <time>2017-04-07T08:06:50Z</time>
      </trkpt>
      <trkpt lat="48.17161" lon="2.72634">
        <ele>98</ele>
        <time>2017-04-07T08:08:50Z</time>
      </trkpt>
      <trkpt lat="48.17157" lon="2.72617">
        <ele>98</ele>
        <time>2017-04-07T08:10:50Z</time>
      </trkpt>
      <trkpt lat="48.17155" lon="2.72601">
        <ele>98</ele>
        <time>2017-04-07T08:12:50Z</time>
      </trkpt>
      <trkpt lat="48.17155" lon="2.72599">
        <ele>98</ele>
        <time>2017-04-07T08:14:50Z</time>
      </trkpt>
      <trkpt lat="48.17154" lon="2.72587">
        <ele>98</ele>
        <time>2017-04-07T08:16:50Z</time>
      </trkpt>
      <trkpt lat="48.17152" lon="2.72568">
        <ele>100</ele>
        <time>2017-04-07T08:18:50Z</time>
      </trkpt>
      <trkpt lat="48.17134" lon="2.72561">
        <ele>101</ele>
        <time>2017-04-07T08:20:50Z</time>
      </trkpt>
      <trkpt lat="48.17129" lon="2.72557">
        <ele>101</ele>
        <time>2017-04-07T08:22:50Z</time>
      </trkpt>
      <trkpt lat="48.17126" lon="2.72556">
        <ele>101</ele>
        <time>2017-04-07T08:24:50Z</time>
      </trkpt>
      <trkpt lat="48.1712" lon="2.72553">
        <ele>101</ele>
        <time>2017-04-07T08:26:50Z</time>
      </trkpt>
      <trkpt lat="48.17112" lon="2.72548">
        <ele>101</ele>
        <time>2017-04-07T08:28:50Z</time>
      </trkpt>
      <trkpt lat="48.17103" lon="2.72546">
        <ele>101</ele>
        <time>2017-04-07T08:30:50Z</time>
      </trkpt>
      <trkpt lat="48.17102" lon="2.72546">
        <ele>101</ele>
        <time>2017-04-07T08:32:50Z</time>
      </trkpt>
      <trkpt lat="48.17098" lon="2.72544">
        <ele>101</ele>
        <time>2017-04-07T08:34:50Z</time>
      </trkpt>
      <trkpt lat="48.17088" lon="2.7254">
        <ele>102</ele>
        <time>2017-04-07T08:36:50Z</time>
      </trkpt>
      <trkpt lat="48.17078" lon="2.72537">
        <ele>103</ele>
        <time>2017-04-07T08:38:50Z</time>
      </trkpt>
      <trkpt lat="48.17072" lon="2.72534">
        <ele>103</ele>
        <time>2017-04-07T08:40:50Z</time>
      </trkpt>
      <trkpt lat="48.17068" lon="2.72533">
        <ele>103</ele>
        <time>2017-04-07T08:42:50Z</time>
      </trkpt>
      <trkpt lat="48.17054" lon="2.72527">
        <ele>103</ele>
        <time>2017-04-07T08:44:50Z</time>
      </trkpt>
      <trkpt lat="48.17049" lon="2.72526">
        <ele>103</ele>
        <time>2017-04-07T08:46:50Z</time>
      </trkpt>
      <trkpt lat="48.17033" lon="2.72519">
        <ele>103</ele>
        <time>2017-04-07T08:48:50Z</time>
      </trkpt>
      <trkpt lat="48.17025" lon="2.72514">
        <ele>103</ele>
        <time>2017-04-07T08:50:50Z</time>
      </trkpt>
      <trkpt lat="48.17018" lon="2.72512">
        <ele>103</ele>
        <time>2017-04-07T08:52:50Z</time>
      </trkpt>
      <trkpt lat="48.17001" lon="2.72512">
        <ele>102</ele>
        <time>2017-04-07T08:54:50Z</time>
      </trkpt>
      <trkpt lat="48.16981" lon="2.72511">
        <ele>103</ele>
        <time>2017-04-07T08:56:50Z</time>
      </trkpt>
      <trkpt lat="48.16965" lon="2.72509">
        <ele>103</ele>
        <time>2017-04-07T08:58:50Z</time>
      </trkpt>
      <trkpt lat="48.1695" lon="2.72508">
        <ele>102</ele>
        <time>2017-04-07T09:00:50Z</time>
      </trkpt>
      <trkpt lat="48.16946" lon="2.72508">
        <ele>102</ele>
        <time>2017-04-07T09:02:50Z</time>
      </trkpt>
      <trkpt lat="48.16936" lon="2.7251">
        <ele>102</ele>
        <time>2017-04-07T09:04:50Z</time>
      </trkpt>
      <trkpt lat="48.16935" lon="2.72512">
        <ele>102</ele>
        <time>2017-04-07T09:06:50Z</time>
      </trkpt>
      <trkpt lat="48.16936" lon="2.72521">
        <ele>102</ele>
        <time>2017-04-07T09:08:50Z</time>
      </trkpt>
      <trkpt lat="48.16937" lon="2.72523">
        <ele>102</ele>
        <time>2017-04-07T09:10:50Z</time>
      </trkpt>
      <trkpt lat="48.16939" lon="2.72539">
        <ele>103</ele>
        <time>2017-04-07T09:12:50Z</time>
      </trkpt>
      <trkpt lat="48.16944" lon="2.72563">
        <ele>103</ele>
        <time>2017-04-07T09:14:50Z</time>
      </trkpt>
      <trkpt lat="48.16947" lon="2.72579">
        <ele>103</ele>
        <time>2017-04-07T09:16:50Z</time>
      </trkpt>
      <trkpt lat="48.16953" lon="2.72606">
        <ele>105</ele>
        <time>2017-04-07T09:18:50Z</time>
      </trkpt>
      <trkpt lat="48.16969" lon="2.72699">
        <ele>106</ele>
        <time>2017-04-07T09:20:50Z</time>
      </trkpt>
      <trkpt lat="48.16973" lon="2.72728">
        <ele>106</ele>
        <time>2017-04-07T09:22:50Z</time>
      </trkpt>
      <trkpt lat="48.16977" lon="2.72748">
        <ele>107</ele>
        <time>2017-04-07T09:24:50Z</time>
      </trkpt>
      <trkpt lat="48.16976" lon="2.7275">
        <ele>107</ele>
        <time>2017-04-07T09:26:50Z</time>
      </trkpt>
      <trkpt lat="48.16964" lon="2.72758">
        <ele>108</ele>
        <time>2017-04-07T09:28:50Z</time>
      </trkpt>
      <trkpt lat="48.1694" lon="2.72772">
        <ele>108</ele>
        <time>2017-04-07T09:30:50Z</time>
      </trkpt>
      <trkpt lat="48.16921" lon="2.72782">
        <ele>108</ele>
        <time>2017-04-07T09:32:50Z</time>
      </trkpt>
      <trkpt lat="48.16911" lon="2.72788">
        <ele>108</ele>
        <time>2017-04-07T09:34:50Z</time>
      </trkpt>
      <trkpt lat="48.16864" lon="2.72817">
        <ele>107</ele>
        <time>2017-04-07T09:36:50Z</time>
      </trkpt>
      <trkpt lat="48.16851" lon="2.72827">
        <ele>106</ele>
        <time>2017-04-07T09:38:50Z</time>
      </trkpt>
      <trkpt lat="48.1685" lon="2.7283">
        <ele>106</ele>
        <time>2017-04-07T09:40:50Z</time>
      </trkpt>
      <trkpt lat="48.16851" lon="2.72843">
        <ele>106</ele>
        <time>2017-04-07T09:42:50Z</time>
      </trkpt>
      <trkpt lat="48.16853" lon="2.72847">
        <ele>106</ele>
        <time>2017-04-07T09:44:50Z</time>
      </trkpt>
      <trkpt lat="48.1686" lon="2.72877">
        <ele>106</ele>
        <time>2017-04-07T09:46:50Z</time>
      </trkpt>
      <trkpt lat="48.16866" lon="2.72903">
        <ele>106</ele>
        <time>2017-04-07T09:48:50Z</time>
      </trkpt>
      <trkpt lat="48.1688" lon="2.72956">
        <ele>105</ele>
        <time>2017-04-07T09:50:50Z</time>
      </trkpt>
      <trkpt lat="48.16892" lon="2.73002">
        <ele>104</ele>
        <time>2017-04-07T09:52:50Z</time>
      </trkpt>
      <trkpt lat="48.16896" lon="2.73037">
        <ele>104</ele>
        <time>2017-04-07T09:54:50Z</time>
      </trkpt>
      <trkpt lat="48.16886" lon="2.73052">
        <ele>104</ele>
        <time>2017-04-07T09:56:50Z</time>
      </trkpt>
      <trkpt lat="48.16859" lon="2.73067">
        <ele>104</ele>
        <time>2017-04-07T09:58:50Z</time>
      </trkpt>
      <trkpt lat="48.16838" lon="2.73081">
        <ele>104</ele>
        <time>2017-04-07T10:00:50Z</time>
      </trkpt>
      <trkpt lat="48.16835" lon="2.73084">
        <ele>104</ele>
        <time>2017-04-07T10:02:50Z</time>
      </trkpt>
      <trkpt lat="48.16815" lon="2.73112">
        <ele>104</ele>
        <time>2017-04-07T10:04:50Z</time>
      </trkpt>
      <trkpt lat="48.16807" lon="2.73119">
        <ele>104</ele>
        <time>2017-04-07T10:06:50Z</time>
      </trkpt>
      <trkpt lat="48.16805" lon="2.73117">
        <ele>104</ele>
        <time>2017-04-07T10:08:50Z</time>
      </trkpt>
      <trkpt lat="48.16797" lon="2.73099">
        <ele>104</ele>
        <time>2017-04-07T10:10:50Z</time>
      </trkpt>
      <trkpt lat="48.16785" lon="2.73096">
        <ele>105</ele>
        <time>2017-04-07T10:12:50Z</time>
      </trkpt>
      <trkpt lat="48.16777" lon="2.73101">
        <ele>105</ele>
        <time>2017-04-07T10:14:50Z</time>
      </trkpt>
      <trkpt lat="48.16768" lon="2.73108">
        <ele>105</ele>
        <time>2017-04-07T10:16:50Z</time>
      </trkpt>
      <trkpt lat="48.16737" lon="2.73126">
        <ele>105</ele>
        <time>2017-04-07T10:18:50Z</time>
      </trkpt>
      <trkpt lat="48.16709" lon="2.73144">
        <ele>105</ele>
        <time>2017-04-07T10:20:50Z</time>
      </trkpt>
      <trkpt lat="48.1669" lon="2.73157">
        <ele>105</ele>
        <time>2017-04-07T10:22:50Z</time>
      </trkpt>
      <trkpt lat="48.16687" lon="2.7316">
        <ele>104</ele>
        <time>2017-04-07T10:24:50Z</time>
      </trkpt>
      <trkpt lat="48.16685" lon="2.73164">
        <ele>104</ele>
        <time>2017-04-07T10:26:50Z</time>
      </trkpt>
      <trkpt lat="48.16683" lon="2.73168">
        <ele>104</ele>
        <time>2017-04-07T10:28:50Z</time>
      </trkpt>
      <trkpt lat="48.16685" lon="2.73189">
        <ele>104</ele>
        <time>2017-04-07T10:30:50Z</time>
      </trkpt>
      <trkpt lat="48.16683" lon="2.73211">
        <ele>104</ele>
        <time>2017-04-07T10:32:50Z</time>
      </trkpt>
      <trkpt lat="48.16676" lon="2.73223">
        <ele>104</ele>
        <time>2017-04-07T10:34:50Z</time>
      </trkpt>
      <trkpt lat="48.16675" lon="2.73233">
        <ele>104</ele>
        <time>2017-04-07T10:36:50Z</time>
      </trkpt>
      <trkpt lat="48.16679" lon="2.73253">
        <ele>103</ele>
        <time>2017-04-07T10:38:50Z</time>
      </trkpt>
      <trkpt lat="48.16681" lon="2.73258">
        <ele>103</ele>
        <time>2017-04-07T10:40:50Z</time>
      </trkpt>
      <trkpt lat="48.1669" lon="2.73289">
        <ele>102</ele>
        <time>2017-04-07T10:42:50Z</time>
      </trkpt>
      <trkpt lat="48.16692" lon="2.73302">
        <ele>101</ele>
        <time>2017-04-07T10:44:50Z</time>
      </trkpt>
      <trkpt lat="48.16689" lon="2.73331">
        <ele>102</ele>
        <time>2017-04-07T10:46:50Z</time>
      </trkpt>
      <trkpt lat="48.16673" lon="2.73348">
        <ele>99</ele>
        <time>2017-04-07T10:48:50Z</time>
      </trkpt>
      <trkpt lat="48.16645" lon="2.73368">
        <ele>102</ele>
        <time>2017-04-07T10:50:50Z</time>
      </trkpt>
      <trkpt lat="48.16621" lon="2.7339">
        <ele>102</ele>
        <time>2017-04-07T10:52:50Z</time>
      </trkpt>
      <trkpt lat="48.16616" lon="2.73414">
        <ele>102</ele>
        <time>2017-04-07T10:54:50Z</time>
      </trkpt>
      <trkpt lat="48.1661" lon="2.73427">
        <ele>96</ele>
        <time>2017-04-07T10:56:50Z</time>
      </trkpt>
      <trkpt lat="48.16588" lon="2.73445">
        <ele>96</ele>
        <time>2017-04-07T10:58:50Z</time>
      </trkpt>
      <trkpt lat="48.16561" lon="2.73461">
        <ele>98</ele>
        <time>2017-04-07T11:00:50Z</time>
      </trkpt>
      <trkpt lat="48.16536" lon="2.73477">
        <ele>99</ele>
        <time>2017-04-07T11:02:50Z</time>
      </trkpt>
      <trkpt lat="48.16508" lon="2.73499">
        <ele>100</ele>
        <time>2017-04-07T11:04:50Z</time>
      </trkpt>
      <trkpt lat="48.16478" lon="2.73515">
        <ele>97</ele>
        <time>2017-04-07T11:06:50Z</time>
      </trkpt>
      <trkpt lat="48.16447" lon="2.73529">
        <ele>97</ele>
        <time>2017-04-07T11:08:50Z</time>
      </trkpt>
      <trkpt lat="48.16415" lon="2.7355">
        <ele>100</ele>
        <time>2017-04-07T11:10:50Z</time>
      </trkpt>
      <trkpt lat="48.16388" lon="2.73562">
        <ele>100</ele>
        <time>2017-04-07T11:12:50Z</time>
      </trkpt>
      <trkpt lat="48.16367" lon="2.73575">
        <ele>101</ele>
        <time>2017-04-07T11:14:50Z</time>
      </trkpt>
      <trkpt lat="48.16328" lon="2.736">
        <ele>102</ele>
        <time>2017-04-07T11:16:50Z</time>
      </trkpt>
      <trkpt lat="48.1631" lon="2.73611">
        <ele>101</ele>
        <time>2017-04-07T11:18:50Z</time>
      </trkpt>
      <trkpt lat="48.16286" lon="2.73625">
        <ele>101</ele>
        <time>2017-04-07T11:20:50Z</time>
      </trkpt>
      <trkpt lat="48.16279" lon="2.7363">
        <ele>101</ele>
        <time>2017-04-07T11:22:50Z</time>
      </trkpt>
      <trkpt lat="48.16246" lon="2.73646">
        <ele>103</ele>
        <time>2017-04-07T11:24:50Z</time>
      </trkpt>
      <trkpt lat="48.16207" lon="2.73659">
        <ele>103</ele>
        <time>2017-04-07T11:26:50Z</time>
      </trkpt>
      <trkpt lat="48.16169" lon="2.73673">
        <ele>102</ele>
        <time>2017-04-07T11:28:50Z</time>
      </trkpt>
      <trkpt lat="48.16151" lon="2.73669">
        <ele>103</ele>
        <time>2017-04-07T11:30:50Z</time>
      </trkpt>
      <trkpt lat="48.16144" lon="2.73665">
        <ele>102</ele>
        <time>2017-04-07T11:32:50Z</time>
      </trkpt>
      <trkpt lat="48.16132" lon="2.73655">
        <ele>102</ele>
        <time>2017-04-07T11:34:50Z</time>
      </trkpt>
      <trkpt lat="48.16122" lon="2.73654">
        <ele>102</ele>
        <time>2017-04-07T11:36:50Z</time>
      </trkpt>
      <trkpt lat="48.16105" lon="2.73666">
        <ele>102</ele>
        <time>2017-04-07T11:38:50Z</time>
      </trkpt>
      <trkpt lat="48.16091" lon="2.73661">
        <ele>102</ele>
        <time>2017-04-07T11:40:50Z</time>
      </trkpt>
      <trkpt lat="48.16069" lon="2.73647">
        <ele>101</ele>
        <time>2017-04-07T11:42:50Z</time>
      </trkpt>
      <trkpt lat="48.16047" lon="2.73624">
        <ele>100</ele>
        <time>2017-04-07T11:44:50Z</time>
      </trkpt>
      <trkpt lat="48.16037" lon="2.73611">
        <ele>100</ele>
        <time>2017-04-07T11:46:50Z</time>
      </trkpt>
      <trkpt lat="48.1603" lon="2.73608">
        <ele>100</ele>
        <time>2017-04-07T11:48:50Z</time>
      </trkpt>
      <trkpt lat="48.16018" lon="2.73618">
        <ele>100</ele>
        <time>2017-04-07T11:50:50Z</time>
      </trkpt>
      <trkpt lat="48.16014" lon="2.73624">
        <ele>100</ele>
        <time>2017-04-07T11:52:50Z</time>
      </trkpt>
      <trkpt lat="48.16008" lon="2.73636">
        <ele>100</ele>
        <time>2017-04-07T11:54:50Z</time>
      </trkpt>
      <trkpt lat="48.16006" lon="2.73643">
        <ele>100</ele>
        <time>2017-04-07T11:56:50Z</time>
      </trkpt>
      <trkpt lat="48.16001" lon="2.73657">
        <ele>99</ele>
        <time>2017-04-07T11:58:50Z</time>
      </trkpt>
      <trkpt lat="48.15992" lon="2.7369">
        <ele>99</ele>
        <time>2017-04-07T12:00:50Z</time>
      </trkpt>
      <trkpt lat="48.15989" lon="2.73709">
        <ele>100</ele>
        <time>2017-04-07T12:02:50Z</time>
      </trkpt>
      <trkpt lat="48.15987" lon="2.73719">
        <ele>100</ele>
        <time>2017-04-07T12:04:50Z</time>
      </trkpt>
      <trkpt lat="48.15986" lon="2.73739">
        <ele>100</ele>
        <time>2017-04-07T12:06:50Z</time>
      </trkpt>
      <trkpt lat="48.15987" lon="2.7376">
        <ele>101</ele>
        <time>2017-04-07T12:08:50Z</time>
      </trkpt>
      <trkpt lat="48.15988" lon="2.7377">
        <ele>100</ele>
        <time>2017-04-07T12:10:50Z</time>
      </trkpt>
      <trkpt lat="48.15985" lon="2.73803">
        <ele>100</ele>
        <time>2017-04-07T12:12:50Z</time>
      </trkpt>
      <trkpt lat="48.15984" lon="2.73813">
        <ele>100</ele>
        <time>2017-04-07T12:14:50Z</time>
      </trkpt>
      <trkpt lat="48.15984" lon="2.73841">
        <ele>98</ele>
        <time>2017-04-07T12:16:50Z</time>
      </trkpt>
      <trkpt lat="48.15986" lon="2.73851">
        <ele>98</ele>
        <time>2017-04-07T12:18:50Z</time>
      </trkpt>
      <trkpt lat="48.15992" lon="2.73872">
        <ele>98</ele>
        <time>2017-04-07T12:20:50Z</time>
      </trkpt>
      <trkpt lat="48.15996" lon="2.73883">
        <ele>97</ele>
        <time>2017-04-07T12:22:50Z</time>
      </trkpt>
      <trkpt lat="48.16" lon="2.73892">
        <ele>96</ele>
        <time>2017-04-07T12:24:50Z</time>
      </trkpt>
      <trkpt lat="48.16012" lon="2.73916">
        <ele>93</ele>
        <time>2017-04-07T12:26:50Z</time>
      </trkpt>
      <trkpt lat="48.16015" lon="2.73923">
        <ele>86</ele>
        <time>2017-04-07T12:28:50Z</time>
      </trkpt>
      <trkpt lat="48.16017" lon="2.73931">
        <ele>85</ele>
        <time>2017-04-07T12:30:50Z</time>
      </trkpt>
      <trkpt lat="48.16017" lon="2.73946">
        <ele>82</ele>
        <time>2017-04-07T12:32:50Z</time>
      </trkpt>
      <trkpt lat="48.16014" lon="2.73952">
        <ele>81</ele>
        <time>2017-04-07T12:34:50Z</time>
      </trkpt>
      <trkpt lat="48.16011" lon="2.73957">
        <ele>81</ele>
        <time>2017-04-07T12:36:50Z</time>
      </trkpt>
      <trkpt lat="48.16002" lon="2.73966">
        <ele>79</ele>
        <time>2017-04-07T12:38:50Z</time>
      </trkpt>
      <trkpt lat="48.15997" lon="2.7397">
        <ele>84</ele>
        <time>2017-04-07T12:40:50Z</time>
      </trkpt>
      <trkpt lat="48.15992" lon="2.73974">
        <ele>84</ele>
        <time>2017-04-07T12:42:50Z</time>
      </trkpt>
      <trkpt lat="48.15963" lon="2.73998">
        <ele>85</ele>
        <time>2017-04-07T12:44:50Z</time>
      </trkpt>
      <trkpt lat="48.15958" lon="2.74">
        <ele>77</ele>
        <time>2017-04-07T12:46:50Z</time>
      </trkpt>
      <trkpt lat="48.15949" lon="2.74002">
        <ele>78</ele>
        <time>2017-04-07T12:48:50Z</time>
      </trkpt>
      <trkpt lat="48.15934" lon="2.74005">
        <ele>81</ele>
        <time>2017-04-07T12:50:50Z</time>
      </trkpt>
      <trkpt lat="48.15929" lon="2.74005">
        <ele>82</ele>
        <time>2017-04-07T12:52:50Z</time>
      </trkpt>
      <trkpt lat="48.15895" lon="2.74011">
        <ele>82</ele>
        <time>2017-04-07T12:54:50Z</time>
      </trkpt>
      <trkpt lat="48.15887" lon="2.74015">
        <ele>81</ele>
        <time>2017-04-07T12:56:50Z</time>
      </trkpt>
      <trkpt lat="48.15865" lon="2.74027">
        <ele>79</ele>
        <time>2017-04-07T12:58:50Z</time>
      </trkpt>
      <trkpt lat="48.1583" lon="2.74048">
        <ele>76</ele>
        <time>2017-04-07T13:00:50Z</time>
      </trkpt>
      <trkpt lat="48.15826" lon="2.7405">
        <ele>76</ele>
        <time>2017-04-07T13:02:50Z</time>
      </trkpt>
      <trkpt lat="48.15818" lon="2.74055">
        <ele>75</ele>
        <time>2017-04-07T13:04:50Z</time>
      </trkpt>
      <trkpt lat="48.15792" lon="2.74069">
        <ele>75</ele>
        <time>2017-04-07T13:06:50Z</time>
      </trkpt>
      <trkpt lat="48.1575" lon="2.74084">
        <ele>71</ele>
        <time>2017-04-07T13:08:50Z</time>
      </trkpt>
      <trkpt lat="48.15712" lon="2.74088">
        <ele>70</ele>
        <time>2017-04-07T13:10:50Z</time>
      </trkpt>
      <trkpt lat="48.15675" lon="2.74096">
        <ele>69</ele>
        <time>2017-04-07T13:12:50Z</time>
      </trkpt>
      <trkpt lat="48.15659" lon="2.74104">
        <ele>69</ele>
        <time>2017-04-07T13:14:50Z</time>
      </trkpt>
      <trkpt lat="48.15616" lon="2.74129">
        <ele>69</ele>
        <time>2017-04-07T13:16:50Z</time>
      </trkpt>
      <trkpt lat="48.15597" lon="2.74138">
        <ele>69</ele>
        <time>2017-04-07T13:18:50Z</time>
      </trkpt>
      <trkpt lat="48.15593" lon="2.74139">
        <ele>69</ele>
        <time>2017-04-07T13:20:50Z</time>
      </trkpt>
      <trkpt lat="48.15579" lon="2.74143">
        <ele>69</ele>
        <time>2017-04-07T13:22:50Z</time>
      </trkpt>
      <trkpt lat="48.15573" lon="2.74157">
        <ele>69</ele>
        <time>2017-04-07T13:24:50Z</time>
      </trkpt>
      <trkpt lat="48.15563" lon="2.74166">
        <ele>69</ele>
        <time>2017-04-07T13:26:50Z</time>
      </trkpt>
      <trkpt lat="48.15558" lon="2.74168">
        <ele>69</ele>
        <time>2017-04-07T13:28:50Z</time>
      </trkpt>
      <trkpt lat="48.1555" lon="2.74171">
        <ele>69</ele>
        <time>2017-04-07T13:30:50Z</time>
      </trkpt>
      <trkpt lat="48.15536" lon="2.74171">
        <ele>69</ele>
        <time>2017-04-07T13:32:50Z</time>
      </trkpt>
      <trkpt lat="48.15523" lon="2.74176">
        <ele>69</ele>
        <time>2017-04-07T13:34:50Z</time>
      </trkpt>
      <trkpt lat="48.15462" lon="2.74208">
        <ele>69</ele>
        <time>2017-04-07T13:36:50Z</time>
      </trkpt>
      <trkpt lat="48.1544" lon="2.74227">
        <ele>69</ele>
        <time>2017-04-07T13:38:50Z</time>
      </trkpt>
      <trkpt lat="48.15409" lon="2.74272">
        <ele>70</ele>
        <time>2017-04-07T13:40:50Z</time>
      </trkpt>
      <trkpt lat="48.15391" lon="2.74317">
        <ele>71</ele>
        <time>2017-04-07T13:42:50Z</time>
      </trkpt>
      <trkpt lat="48.15379" lon="2.74349">
        <ele>72</ele>
        <time>2017-04-07T13:44:50Z</time>
      </trkpt>
      <trkpt lat="48.15357" lon="2.7441">
        <ele>72</ele>
        <time>2017-04-07T13:46:50Z</time>
      </trkpt>
      <trkpt lat="48.15339" lon="2.74459">
        <ele>73</ele>
        <time>2017-04-07T13:48:50Z</time>
      </trkpt>
      <trkpt lat="48.15318" lon="2.74515">
        <ele>72</ele>
        <time>2017-04-07T13:50:50Z</time>
      </trkpt>
      <trkpt lat="48.153" lon="2.74565">
        <ele>71</ele>
        <time>2017-04-07T13:52:50Z</time>
      </trkpt>
      <trkpt lat="48.15291" lon="2.74602">
        <ele>71</ele>
        <time>2017-04-07T13:54:50Z</time>
      </trkpt>
      <trkpt lat="48.15283" lon="2.74632">
        <ele>71</ele>
        <time>2017-04-07T13:56:50Z</time>
      </trkpt>
      <trkpt lat="48.1526" lon="2.74714">
        <ele>71</ele>
        <time>2017-04-07T13:58:50Z</time>
      </trkpt>
      <trkpt lat="48.15243" lon="2.74765">
        <ele>70</ele>
        <time>2017-04-07T14:00:50Z</time>
      </trkpt>
      <trkpt lat="48.15219" lon="2.74836">
        <ele>70</ele>
        <time>2017-04-07T14:02:50Z</time>
      </trkpt>
      <trkpt lat="48.15197" lon="2.74888">
        <ele>70</ele>
        <time>2017-04-07T14:04:50Z</time>
      </trkpt>
      <trkpt lat="48.15169" lon="2.74933">
        <ele>71</ele>
        <time>2017-04-07T14:06:50Z</time>
      </trkpt>
      <trkpt lat="48.15136" lon="2.74971">
        <ele>70</ele>
        <time>2017-04-07T14:08:50Z</time>
      </trkpt>
      <trkpt lat="48.15097" lon="2.75003">
        <ele>69</ele>
        <time>2017-04-07T14:10:50Z</time>
      </trkpt>
      <trkpt lat="48.15052" lon="2.75034">
        <ele>71</ele>
        <time>2017-04-07T14:12:50Z</time>
      </trkpt>
      <trkpt lat="48.15001" lon="2.75063">
        <ele>71</ele>
        <time>2017-04-07T14:14:50Z</time>
      </trkpt>
      <trkpt lat="48.14998" lon="2.75066">
        <ele>73</ele>
        <time>2017-04-07T14:16:50Z</time>
      </trkpt>
      <trkpt lat="48.1499" lon="2.75072">
        <ele>73</ele>
        <time>2017-04-07T14:18:50Z</time>
      </trkpt>
      <trkpt lat="48.14975" lon="2.75079">
        <ele>73</ele>
        <time>2017-04-07T14:20:50Z</time>
      </trkpt>
      <trkpt lat="48.14906" lon="2.75119">
        <ele>74</ele>
        <time>2017-04-07T14:22:50Z</time>
      </trkpt>
      <trkpt lat="48.14844" lon="2.75158">
        <ele>73</ele>
        <time>2017-04-07T14:24:50Z</time>
      </trkpt>
      <trkpt lat="48.14788" lon="2.75191">
        <ele>73</ele>
        <time>2017-04-07T14:26:50Z</time>
      </trkpt>
      <trkpt lat="48.14724" lon="2.75234">
        <ele>73</ele>
        <time>2017-04-07T14:28:50Z</time>
      </trkpt>
      <trkpt lat="48.14672" lon="2.75265">
        <ele>70</ele>
        <time>2017-04-07T14:30:50Z</time>
      </trkpt>
      <trkpt lat="48.14617" lon="2.75297">
        <ele>71</ele>
        <time>2017-04-07T14:32:50Z</time>
      </trkpt>
      <trkpt lat="48.14593" lon="2.75305">
        <ele>71</ele>
        <time>2017-04-07T14:34:50Z</time>
      </trkpt>
      <trkpt lat="48.14575" lon="2.75311">
        <ele>71</ele>
        <time>2017-04-07T14:36:50Z</time>
      </trkpt>
      <trkpt lat="48.14568" lon="2.75309">
        <ele>71</ele>
        <time>2017-04-07T14:38:50Z</time>
      </trkpt>
      <trkpt lat="48.14564" lon="2.75308">
        <ele>71</ele>
        <time>2017-04-07T14:40:50Z</time>
      </trkpt>
      <trkpt lat="48.14562" lon="2.75308">
        <ele>71</ele>
        <time>2017-04-07T14:42:50Z</time>
      </trkpt>
      <trkpt lat="48.14556" lon="2.75311">
        <ele>71</ele>
        <time>2017-04-07T14:44:50Z</time>
      </trkpt>
      <trkpt lat="48.14555" lon="2.75315">
        <ele>71</ele>
        <time>2017-04-07T14:46:50Z</time>
      </trkpt>
      <trkpt lat="48.14552" lon="2.75346">
        <ele>71</ele>
        <time>2017-04-07T14:48:50Z</time>
      </trkpt>
      <trkpt lat="48.14552" lon="2.75363">
        <ele>71</ele>
        <time>2017-04-07T14:50:50Z</time>
      </trkpt>
      <trkpt lat="48.14554" lon="2.75387">
        <ele>72</ele>
        <time>2017-04-07T14:52:50Z</time>
      </trkpt>
      <trkpt lat="48.14562" lon="2.75424">
        <ele>71</ele>
        <time>2017-04-07T14:54:50Z</time>
      </trkpt>
      <trkpt lat="48.14572" lon="2.75476">
        <ele>71</ele>
        <time>2017-04-07T14:56:50Z</time>
      </trkpt>
      <trkpt lat="48.14608" lon="2.75691">
        <ele>68</ele>
        <time>2017-04-07T14:58:50Z</time>
      </trkpt>
      <trkpt lat="48.14614" lon="2.75727">
        <ele>68</ele>
        <time>2017-04-07T15:00:50Z</time>
      </trkpt>
      <trkpt lat="48.1464" lon="2.75874">
        <ele>70</ele>
        <time>2017-04-07T15:02:50Z</time>
      </trkpt>
      <trkpt lat="48.14648" lon="2.75917">
        <ele>70</ele>
        <time>2017-04-07T15:04:50Z</time>
      </trkpt>
      <trkpt lat="48.14667" lon="2.76034">
        <ele>69</ele>
        <time>2017-04-07T15:06:50Z</time>
      </trkpt>
      <trkpt lat="48.14679" lon="2.76098">
        <ele>69</ele>
        <time>2017-04-07T15:08:50Z</time>
      </trkpt>
      <trkpt lat="48.1469" lon="2.76154">
        <ele>70</ele>
        <time>2017-04-07T15:10:50Z</time>
      </trkpt>
      <trkpt lat="48.14701" lon="2.76207">
        <ele>69</ele>
        <time>2017-04-07T15:12:50Z</time>
      </trkpt>
      <trkpt lat="48.14706" lon="2.76252">
        <ele>69</ele>
        <time>2017-04-07T15:14:50Z</time>
      </trkpt>
      <trkpt lat="48.14703" lon="2.76256">
        <ele>69</ele>
        <time>2017-04-07T15:16:50Z</time>
      </trkpt>
      <trkpt lat="48.14699" lon="2.76258">
        <ele>69</ele>
        <time>2017-04-07T15:18:50Z</time>
      </trkpt>
      <trkpt lat="48.14689" lon="2.7626">
        <ele>69</ele>
        <time>2017-04-07T15:20:50Z</time>
      </trkpt>
      <trkpt lat="48.14672" lon="2.76259">
        <ele>70</ele>
        <time>2017-04-07T15:22:50Z</time>
      </trkpt>
      <trkpt lat="48.14637" lon="2.76257">
        <ele>70</ele>
        <time>2017-04-07T15:24:50Z</time>
      </trkpt>
      <trkpt lat="48.14581" lon="2.76258">
        <ele>70</ele>
        <time>2017-04-07T15:26:50Z</time>
      </trkpt>
      <trkpt lat="48.14512" lon="2.76257">
        <ele>70</ele>
        <time>2017-04-07T15:28:50Z</time>
      </trkpt>
      <trkpt lat="48.14471" lon="2.76257">
        <ele>70</ele>
        <time>2017-04-07T15:30:50Z</time>
      </trkpt>
      <trkpt lat="48.14443" lon="2.76255">
        <ele>70</ele>
        <time>2017-04-07T15:32:50Z</time>
      </trkpt>
      <trkpt lat="48.14426" lon="2.76256">
        <ele>70</ele>
        <time>2017-04-07T15:34:50Z</time>
      </trkpt>
      <trkpt lat="48.14415" lon="2.76255">
        <ele>70</ele>
        <time>2017-04-07T15:36:50Z</time>
      </trkpt>
      <trkpt lat="48.14388" lon="2.76257">
        <ele>70</ele>
        <time>2017-04-07T15:38:50Z</time>
      </trkpt>
      <trkpt lat="48.1435" lon="2.76257">
        <ele>70</ele>
        <time>2017-04-07T15:40:50Z</time>
      </trkpt>
      <trkpt lat="48.14302" lon="2.76259">
        <ele>70</ele>
        <time>2017-04-07T15:42:50Z</time>
      </trkpt>
      <trkpt lat="48.14291" lon="2.76259">
        <ele>70</ele>
        <time>2017-04-07T15:44:50Z</time>
      </trkpt>
      <trkpt lat="48.14246" lon="2.76259">
        <ele>71</ele>
        <time>2017-04-07T15:46:50Z</time>
      </trkpt>
      <trkpt lat="48.14201" lon="2.76258">
        <ele>71</ele>
        <time>2017-04-07T15:48:50Z</time>
      </trkpt>
      <trkpt lat="48.14167" lon="2.76258">
        <ele>71</ele>
        <time>2017-04-07T15:50:50Z</time>
      </trkpt>
      <trkpt lat="48.141" lon="2.76259">
        <ele>69</ele>
        <time>2017-04-07T15:52:50Z</time>
      </trkpt>
      <trkpt lat="48.14004" lon="2.76258">
        <ele>68</ele>
        <time>2017-04-07T15:54:50Z</time>
      </trkpt>
      <trkpt lat="48.1381" lon="2.76261">
        <ele>71</ele>
        <time>2017-04-07T15:56:50Z</time>
      </trkpt>
      <trkpt lat="48.13765" lon="2.7626">
        <ele>72</ele>
        <time>2017-04-07T15:58:50Z</time>
      </trkpt>
      <trkpt lat="48.13683" lon="2.7626">
        <ele>70</ele>
        <time>2017-04-07T16:00:50Z</time>
      </trkpt>
      <trkpt lat="48.13648" lon="2.76262">
        <ele>70</ele>
        <time>2017-04-07T16:02:50Z</time>
      </trkpt>
      <trkpt lat="48.13614" lon="2.76262">
        <ele>69</ele>
        <time>2017-04-07T16:04:50Z</time>
      </trkpt>
      <trkpt lat="48.13543" lon="2.76257">
        <ele>70</ele>
        <time>2017-04-07T16:06:50Z</time>
      </trkpt>
      <trkpt lat="48.1348" lon="2.76257">
        <ele>71</ele>
        <time>2017-04-07T16:08:50Z</time>
      </trkpt>
      <trkpt lat="48.13432" lon="2.76258">
        <ele>71</ele>
        <time>2017-04-07T16:10:50Z</time>
      </trkpt>
      <trkpt lat="48.13391" lon="2.76259">
        <ele>70</ele>
        <time>2017-04-07T16:12:50Z</time>
      </trkpt>
      <trkpt lat="48.1338" lon="2.76257">
        <ele>70</ele>
        <time>2017-04-07T16:14:50Z</time>
      </trkpt>
      <trkpt lat="48.13363" lon="2.76257">
        <ele>70</ele>
        <time>2017-04-07T16:16:50Z</time>
      </trkpt>
      <trkpt lat="48.13332" lon="2.76261">
        <ele>70</ele>
        <time>2017-04-07T16:18:50Z</time>
      </trkpt>
      <trkpt lat="48.13298" lon="2.76261">
        <ele>71</ele>
        <time>2017-04-07T16:20:50Z</time>
      </trkpt>
      <trkpt lat="48.13278" lon="2.76259">
        <ele>71</ele>
        <time>2017-04-07T16:22:50Z</time>
      </trkpt>
      <trkpt lat="48.13265" lon="2.7626">
        <ele>72</ele>
        <time>2017-04-07T16:24:50Z</time>
      </trkpt>
      <trkpt lat="48.13246" lon="2.76259">
        <ele>73</ele>
        <time>2017-04-07T16:26:50Z</time>
      </trkpt>
      <trkpt lat="48.13244" lon="2.76257">
        <ele>73</ele>
        <time>2017-04-07T16:28:50Z</time>
      </trkpt>
      <trkpt lat="48.13241" lon="2.76255">
        <ele>73</ele>
        <time>2017-04-07T16:30:50Z</time>
      </trkpt>
      <trkpt lat="48.1324" lon="2.76248">
        <ele>73</ele>
        <time>2017-04-07T16:32:50Z</time>
      </trkpt>
      <trkpt lat="48.1324" lon="2.76239">
        <ele>73</ele>
        <time>2017-04-07T16:34:50Z</time>
      </trkpt>
      <trkpt lat="48.1324" lon="2.76227">
        <ele>73</ele>
        <time>2017-04-07T16:36:50Z</time>
      </trkpt>
      <trkpt lat="48.1324" lon="2.76221">
        <ele>73</ele>
        <time>2017-04-07T16:38:50Z</time>
      </trkpt>
      <trkpt lat="48.1324" lon="2.76191">
        <ele>73</ele>
        <time>2017-04-07T16:40:50Z</time>
      </trkpt>
      <trkpt lat="48.1324" lon="2.76174">
        <ele>72</ele>
        <time>2017-04-07T16:42:50Z</time>
      </trkpt>
      <trkpt lat="48.13239" lon="2.76092">
        <ele>71</ele>
        <time>2017-04-07T16:44:50Z</time>
      </trkpt>
      <trkpt lat="48.13237" lon="2.76013">
        <ele>70</ele>
        <time>2017-04-07T16:46:50Z</time>
      </trkpt>
      <trkpt lat="48.13235" lon="2.75948">
        <ele>70</ele>
        <time>2017-04-07T16:48:50Z</time>
      </trkpt>
      <trkpt lat="48.13233" lon="2.75884">
        <ele>69</ele>
        <time>2017-04-07T16:50:50Z</time>
      </trkpt>
      <trkpt lat="48.13231" lon="2.75819">
        <ele>68</ele>
        <time>2017-04-07T16:52:50Z</time>
      </trkpt>
      <trkpt lat="48.13229" lon="2.75788">
        <ele>68</ele>
        <time>2017-04-07T16:54:50Z</time>
      </trkpt>
      <trkpt lat="48.13229" lon="2.75764">
        <ele>68</ele>
        <time>2017-04-07T16:56:50Z</time>
      </trkpt>
      <trkpt lat="48.13227" lon="2.75699">
        <ele>69</ele>
        <time>2017-04-07T16:58:50Z</time>
      </trkpt>
      <trkpt lat="48.13226" lon="2.75625">
        <ele>71</ele>
        <time>2017-04-07T17:00:50Z</time>
      </trkpt>
      <trkpt lat="48.13229" lon="2.75563">
        <ele>71</ele>
        <time>2017-04-07T17:02:50Z</time>
      </trkpt>
      <trkpt lat="48.13229" lon="2.75528">
        <ele>71</ele>
        <time>2017-04-07T17:04:50Z</time>
      </trkpt>
      <trkpt lat="48.13228" lon="2.75506">
        <ele>71</ele>
        <time>2017-04-07T17:06:50Z</time>
      </trkpt>
      <trkpt lat="48.13228" lon="2.75486">
        <ele>71</ele>
        <time>2017-04-07T17:08:50Z</time>
      </trkpt>
      <trkpt lat="48.13227" lon="2.75442">
        <ele>71</ele>
        <time>2017-04-07T17:10:50Z</time>
      </trkpt>
      <trkpt lat="48.13226" lon="2.75421">
        <ele>71</ele>
        <time>2017-04-07T17:12:50Z</time>
      </trkpt>
      <trkpt lat="48.13225" lon="2.75413">
        <ele>71</ele>
        <time>2017-04-07T17:14:50Z</time>
      </trkpt>
      <trkpt lat="48.13224" lon="2.75405">
        <ele>71</ele>
        <time>2017-04-07T17:16:50Z</time>
      </trkpt>
      <trkpt lat="48.13222" lon="2.75375">
        <ele>71</ele>
        <time>2017-04-07T17:18:50Z</time>
      </trkpt>
      <trkpt lat="48.13222" lon="2.75308">
        <ele>72</ele>
        <time>2017-04-07T17:20:50Z</time>
      </trkpt>
      <trkpt lat="48.13222" lon="2.75285">
        <ele>72</ele>
        <time>2017-04-07T17:22:50Z</time>
      </trkpt>
      <trkpt lat="48.13221" lon="2.75271">
        <ele>72</ele>
        <time>2017-04-07T17:24:50Z</time>
      </trkpt>
      <trkpt lat="48.1322" lon="2.75257">
        <ele>72</ele>
        <time>2017-04-07T17:26:50Z</time>
      </trkpt>
      <trkpt lat="48.13219" lon="2.75241">
        <ele>73</ele>
        <time>2017-04-07T17:28:50Z</time>
      </trkpt>
      <trkpt lat="48.13217" lon="2.75215">
        <ele>73</ele>
        <time>2017-04-07T17:30:50Z</time>
      </trkpt>
      <trkpt lat="48.13217" lon="2.7518">
        <ele>73</ele>
        <time>2017-04-07T17:32:50Z</time>
      </trkpt>
      <trkpt lat="48.13219" lon="2.75161">
        <ele>72</ele>
        <time>2017-04-07T17:34:50Z</time>
      </trkpt>
      <trkpt lat="48.13219" lon="2.75153">
        <ele>72</ele>
        <time>2017-04-07T17:36:50Z</time>
      </trkpt>
      <trkpt lat="48.13218" lon="2.75129">
        <ele>72</ele>
        <time>2017-04-07T17:38:50Z</time>
      </trkpt>
      <trkpt lat="48.13216" lon="2.75105">
        <ele>72</ele>
        <time>2017-04-07T17:40:50Z</time>
      </trkpt>
      <trkpt lat="48.13213" lon="2.75027">
        <ele>71</ele>
        <time>2017-04-07T17:42:50Z</time>
      </trkpt>
      <trkpt lat="48.13218" lon="2.74993">
        <ele>73</ele>
        <time>2017-04-07T17:44:50Z</time>
      </trkpt>
      <trkpt lat="48.13218" lon="2.74985">
        <ele>73</ele>
        <time>2017-04-07T17:46:50Z</time>
      </trkpt>
      <trkpt lat="48.13217" lon="2.74961">
        <ele>74</ele>
        <time>2017-04-07T17:48:50Z</time>
      </trkpt>
      <trkpt lat="48.13217" lon="2.74943">
        <ele>75</ele>
        <time>2017-04-07T17:50:50Z</time>
      </trkpt>
      <trkpt lat="48.13218" lon="2.7494">
        <ele>75</ele>
        <time>2017-04-07T17:52:50Z</time>
      </trkpt>
      <trkpt lat="48.13222" lon="2.74939">
        <ele>75</ele>
        <time>2017-04-07T17:54:50Z</time>
      </trkpt>
      <trkpt lat="48.13223" lon="2.74941">
        <ele>75</ele>
        <time>2017-04-07T17:56:50Z</time>
      </trkpt>
      <trkpt lat="48.13224" lon="2.74942">
        <ele>75</ele>
        <time>2017-04-07T17:58:50Z</time>
      </trkpt>
      <trkpt lat="48.13236" lon="2.74947">
        <ele>75</ele>
        <time>2017-04-07T18:00:50Z</time>
      </trkpt>
      <trkpt lat="48.13252" lon="2.74949">
        <ele>76</ele>
        <time>2017-04-07T18:02:50Z</time>
      </trkpt>
      <trkpt lat="48.13259" lon="2.74948">
        <ele>76</ele>
        <time>2017-04-07T18:04:50Z</time>
      </trkpt>
      <trkpt lat="48.13265" lon="2.74951">
        <ele>76</ele>
        <time>2017-04-07T18:06:50Z</time>
      </trkpt>
      <trkpt lat="48.13261" lon="2.74955">
        <ele>75</ele>
        <time>2017-04-07T18:08:50Z</time>
      </trkpt>
      <trkpt lat="48.13251" lon="2.74954">
        <ele>75</ele>
        <time>2017-04-07T18:10:50Z</time>
      </trkpt>
      <trkpt lat="48.13213" lon="2.74952">
        <ele>75</ele>
        <time>2017-04-07T18:12:50Z</time>
      </trkpt>
      <trkpt lat="48.13156" lon="2.74949">
        <ele>78</ele>
        <time>2017-04-07T18:14:50Z</time>
      </trkpt>
      <trkpt lat="48.13147" lon="2.7495">
        <ele>78</ele>
        <time>2017-04-07T18:16:50Z</time>
      </trkpt>
      <trkpt lat="48.13118" lon="2.7495">
        <ele>78</ele>
        <time>2017-04-07T18:18:50Z</time>
      </trkpt>
      <trkpt lat="48.13075" lon="2.74955">
        <ele>82</ele>
        <time>2017-04-07T18:20:50Z</time>
      </trkpt>
      <trkpt lat="48.13056" lon="2.74958">
        <ele>82</ele>
        <time>2017-04-07T18:22:50Z</time>
      </trkpt>
      <trkpt lat="48.13013" lon="2.7497">
        <ele>81</ele>
        <time>2017-04-07T18:24:50Z</time>
      </trkpt>
      <trkpt lat="48.12999" lon="2.74974">
        <ele>84</ele>
        <time>2017-04-07T18:26:50Z</time>
      </trkpt>
      <trkpt lat="48.12945" lon="2.74995">
        <ele>86</ele>
        <time>2017-04-07T18:28:50Z</time>
      </trkpt>
      <trkpt lat="48.12929" lon="2.75009">
        <ele>80</ele>
        <time>2017-04-07T18:30:50Z</time>
      </trkpt>
      <trkpt lat="48.12905" lon="2.7503">
        <ele>79</ele>
        <time>2017-04-07T18:32:50Z</time>
      </trkpt>
      <trkpt lat="48.12887" lon="2.75045">
        <ele>78</ele>
        <time>2017-04-07T18:34:50Z</time>
      </trkpt>
      <trkpt lat="48.12875" lon="2.75055">
        <ele>77</ele>
        <time>2017-04-07T18:36:50Z</time>
      </trkpt>
      <trkpt lat="48.12841" lon="2.75077">
        <ele>73</ele>
        <time>2017-04-07T18:38:50Z</time>
      </trkpt>
      <trkpt lat="48.12802" lon="2.75096">
        <ele>71</ele>
        <time>2017-04-07T18:40:50Z</time>
      </trkpt>
      <trkpt lat="48.12765" lon="2.75106">
        <ele>72</ele>
        <time>2017-04-07T18:42:50Z</time>
      </trkpt>
      <trkpt lat="48.12728" lon="2.75113">
        <ele>73</ele>
        <time>2017-04-07T18:44:50Z</time>
      </trkpt>
      <trkpt lat="48.12695" lon="2.75121">
        <ele>73</ele>
        <time>2017-04-07T18:46:50Z</time>
      </trkpt>
      <trkpt lat="48.12655" lon="2.75128">
        <ele>76</ele>
        <time>2017-04-07T18:48:50Z</time>
      </trkpt>
      <trkpt lat="48.12588" lon="2.7514">
        <ele>76</ele>
        <time>2017-04-07T18:50:50Z</time>
      </trkpt>
      <trkpt lat="48.12555" lon="2.75148">
        <ele>79</ele>
        <time>2017-04-07T18:52:50Z</time>
      </trkpt>
      <trkpt lat="48.12523" lon="2.75155">
        <ele>79</ele>
        <time>2017-04-07T18:54:50Z</time>
      </trkpt>
      <trkpt lat="48.12509" lon="2.75157">
        <ele>78</ele>
        <time>2017-04-07T18:56:50Z</time>
      </trkpt>
      <trkpt lat="48.12495" lon="2.75158">
        <ele>79</ele>
        <time>2017-04-07T18:58:50Z</time>
      </trkpt>
      <trkpt lat="48.12463" lon="2.75161">
        <ele>83</ele>
        <time>2017-04-07T19:00:50Z</time>
      </trkpt>
      <trkpt lat="48.12429" lon="2.75166">
        <ele>82</ele>
        <time>2017-04-07T19:02:50Z</time>
      </trkpt>
      <trkpt lat="48.12401" lon="2.75173">
        <ele>78</ele>
        <time>2017-04-07T19:04:50Z</time>
      </trkpt>
      <trkpt lat="48.12382" lon="2.75176">
        <ele>78</ele>
        <time>2017-04-07T19:06:50Z</time>
      </trkpt>
      <trkpt lat="48.12377" lon="2.75176">
        <ele>78</ele>
        <time>2017-04-07T19:08:50Z</time>
      </trkpt>
      <trkpt lat="48.12373" lon="2.75177">
        <ele>78</ele>
        <time>2017-04-07T19:10:50Z</time>
      </trkpt>
      <trkpt lat="48.12354" lon="2.75182">
        <ele>78</ele>
        <time>2017-04-07T19:12:50Z</time>
      </trkpt>
      <trkpt lat="48.1235" lon="2.75183">
        <ele>78</ele>
        <time>2017-04-07T19:14:50Z</time>
      </trkpt>
      <trkpt lat="48.12337" lon="2.75185">
        <ele>79</ele>
        <time>2017-04-07T19:16:50Z</time>
      </trkpt>
      <trkpt lat="48.12318" lon="2.75189">
        <ele>78</ele>
        <time>2017-04-07T19:18:50Z</time>
      </trkpt>
      <trkpt lat="48.12263" lon="2.75204">
        <ele>76</ele>
        <time>2017-04-07T19:20:50Z</time>
      </trkpt>
      <trkpt lat="48.1223" lon="2.75212">
        <ele>77</ele>
        <time>2017-04-07T19:22:50Z</time>
      </trkpt>
      <trkpt lat="48.12202" lon="2.75214">
        <ele>77</ele>
        <time>2017-04-07T19:24:50Z</time>
      </trkpt>
      <trkpt lat="48.12164" lon="2.75215">
        <ele>78</ele>
        <time>2017-04-07T19:26:50Z</time>
      </trkpt>
      <trkpt lat="48.12136" lon="2.75213">
        <ele>78</ele>
        <time>2017-04-07T19:28:50Z</time>
      </trkpt>
      <trkpt lat="48.12074" lon="2.75206">
        <ele>79</ele>
        <time>2017-04-07T19:30:50Z</time>
      </trkpt>
      <trkpt lat="48.12039" lon="2.75202">
        <ele>80</ele>
        <time>2017-04-07T19:32:50Z</time>
      </trkpt>
      <trkpt lat="48.12003" lon="2.75196">
        <ele>82</ele>
        <time>2017-04-07T19:34:50Z</time>
      </trkpt>
      <trkpt lat="48.11988" lon="2.75195">
        <ele>82</ele>
        <time>2017-04-07T19:36:50Z</time>
      </trkpt>
      <trkpt lat="48.11968" lon="2.75196">
        <ele>81</ele>
        <time>2017-04-07T19:38:50Z</time>
      </trkpt>
      <trkpt lat="48.11939" lon="2.75195">
        <ele>81</ele>
        <time>2017-04-07T19:40:50Z</time>
      </trkpt>
      <trkpt lat="48.11906" lon="2.75198">
        <ele>82</ele>
        <time>2017-04-07T19:42:50Z</time>
      </trkpt>
      <trkpt lat="48.11872" lon="2.75205">
        <ele>81</ele>
        <time>2017-04-07T19:44:50Z</time>
      </trkpt>
      <trkpt lat="48.11855" lon="2.75209">
        <ele>81</ele>
        <time>2017-04-07T19:46:50Z</time>
      </trkpt>
      <trkpt lat="48.11838" lon="2.75216">
        <ele>80</ele>
        <time>2017-04-07T19:48:50Z</time>
      </trkpt>
      <trkpt lat="48.11833" lon="2.75215">
        <ele>81</ele>
        <time>2017-04-07T19:50:50Z</time>
      </trkpt>
      <trkpt lat="48.11831" lon="2.75211">
        <ele>82</ele>
        <time>2017-04-07T19:52:50Z</time>
      </trkpt>
      <trkpt lat="48.11826" lon="2.75204">
        <ele>83</ele>
        <time>2017-04-07T19:54:50Z</time>
      </trkpt>
      <trkpt lat="48.11823" lon="2.75205">
        <ele>83</ele>
        <time>2017-04-07T19:56:50Z</time>
      </trkpt>
      <trkpt lat="48.11783" lon="2.7522">
        <ele>81</ele>
        <time>2017-04-07T19:58:50Z</time>
      </trkpt>
      <trkpt lat="48.1176" lon="2.75226">
        <ele>79</ele>
        <time>2017-04-07T20:00:50Z</time>
      </trkpt>
      <trkpt lat="48.11753" lon="2.75227">
        <ele>79</ele>
        <time>2017-04-07T20:02:50Z</time>
      </trkpt>
      <trkpt lat="48.11735" lon="2.75229">
        <ele>77</ele>
        <time>2017-04-07T20:04:50Z</time>
      </trkpt>
      <trkpt lat="48.1171" lon="2.75233">
        <ele>77</ele>
        <time>2017-04-07T20:06:50Z</time>
      </trkpt>
      <trkpt lat="48.11708" lon="2.75232">
        <ele>77</ele>
        <time>2017-04-07T20:08:50Z</time>
      </trkpt>
      <trkpt lat="48.11707" lon="2.75226">
        <ele>77</ele>
        <time>2017-04-07T20:10:50Z</time>
      </trkpt>
      <trkpt lat="48.11713" lon="2.75225">
        <ele>77</ele>
        <time>2017-04-07T20:12:50Z</time>
      </trkpt>
      <trkpt lat="48.11738" lon="2.75217">
        <ele>78</ele>
        <time>2017-04-07T20:14:50Z</time>
      </trkpt>
      <trkpt lat="48.11758" lon="2.75209">
        <ele>82</ele>
        <time>2017-04-07T20:16:50Z</time>
      </trkpt>
      <trkpt lat="48.11768" lon="2.75204">
        <ele>83</ele>
        <time>2017-04-07T20:18:50Z</time>
      </trkpt>
      <trkpt lat="48.11783" lon="2.75193">
        <ele>84</ele>
        <time>2017-04-07T20:20:50Z</time>
      </trkpt>
      <trkpt lat="48.11786" lon="2.75192">
        <ele>84</ele>
        <time>2017-04-07T20:22:50Z</time>
      </trkpt>
      <trkpt lat="48.11792" lon="2.75187">
        <ele>85</ele>
        <time>2017-04-07T20:24:50Z</time>
      </trkpt>
      <trkpt lat="48.11801" lon="2.75181">
        <ele>85</ele>
        <time>2017-04-07T20:26:50Z</time>
      </trkpt>
      <trkpt lat="48.11804" lon="2.75179">
        <ele>86</ele>
        <time>2017-04-07T20:28:50Z</time>
      </trkpt>
      <trkpt lat="48.11807" lon="2.75178">
        <ele>86</ele>
        <time>2017-04-07T20:30:50Z</time>
      </trkpt>
      <trkpt lat="48.11814" lon="2.75173">
        <ele>87</ele>
        <time>2017-04-07T20:32:50Z</time>
      </trkpt>
      <trkpt lat="48.11826" lon="2.75169">
        <ele>90</ele>
        <time>2017-04-07T20:34:50Z</time>
      </trkpt>
      <trkpt lat="48.11836" lon="2.75163">
        <ele>93</ele>
        <time>2017-04-07T20:36:50Z</time>
      </trkpt>
      <trkpt lat="48.11843" lon="2.75161">
        <ele>94</ele>
        <time>2017-04-07T20:38:50Z</time>
      </trkpt>
      <trkpt lat="48.1185" lon="2.75157">
        <ele>94</ele>
        <time>2017-04-07T20:40:50Z</time>
      </trkpt>
      <trkpt lat="48.11853" lon="2.75154">
        <ele>94</ele>
        <time>2017-04-07T20:42:50Z</time>
      </trkpt>
      <trkpt lat="48.11861" lon="2.75146">
        <ele>94</ele>
        <time>2017-04-07T20:44:50Z</time>
      </trkpt>
      <trkpt lat="48.11869" lon="2.75135">
        <ele>94</ele>
        <time>2017-04-07T20:46:50Z</time>
      </trkpt>
      <trkpt lat="48.11871" lon="2.75132">
        <ele>94</ele>
        <time>2017-04-07T20:48:50Z</time>
      </trkpt>
      <trkpt lat="48.11887" lon="2.75108">
        <ele>95</ele>
        <time>2017-04-07T20:50:50Z</time>
      </trkpt>
      <trkpt lat="48.11893" lon="2.75099">
        <ele>96</ele>
        <time>2017-04-07T20:52:50Z</time>
      </trkpt>
      <trkpt lat="48.11906" lon="2.75082">
        <ele>98</ele>
        <time>2017-04-07T20:54:50Z</time>
      </trkpt>
      <trkpt lat="48.1191" lon="2.75077">
        <ele>98</ele>
        <time>2017-04-07T20:56:50Z</time>
      </trkpt>
      <trkpt lat="48.1192" lon="2.75064">
        <ele>98</ele>
        <time>2017-04-07T20:58:50Z</time>
      </trkpt>
      <trkpt lat="48.11934" lon="2.75041">
        <ele>98</ele>
        <time>2017-04-07T21:00:50Z</time>
      </trkpt>
      <trkpt lat="48.11961" lon="2.74992">
        <ele>98</ele>
        <time>2017-04-07T21:02:50Z</time>
      </trkpt>
      <trkpt lat="48.1198" lon="2.74956">
        <ele>98</ele>
        <time>2017-04-07T21:04:50Z</time>
      </trkpt>
      <trkpt lat="48.11998" lon="2.74925">
        <ele>99</ele>
        <time>2017-04-07T21:06:50Z</time>
      </trkpt>
      <trkpt lat="48.12021" lon="2.74886">
        <ele>98</ele>
        <time>2017-04-07T21:08:50Z</time>
      </trkpt>
      <trkpt lat="48.12041" lon="2.74852">
        <ele>98</ele>
        <time>2017-04-07T21:10:50Z</time>
      </trkpt>
      <trkpt lat="48.1206" lon="2.74816">
        <ele>98</ele>
        <time>2017-04-07T21:12:50Z</time>
      </trkpt>
      <trkpt lat="48.12079" lon="2.74781">
        <ele>99</ele>
        <time>2017-04-07T21:14:50Z</time>
      </trkpt>
      <trkpt lat="48.12094" lon="2.74751">
        <ele>99</ele>
        <time>2017-04-07T21:16:50Z</time>
      </trkpt>
      <trkpt lat="48.12113" lon="2.74712">
        <ele>99</ele>
        <time>2017-04-07T21:18:50Z</time>
      </trkpt>
      <trkpt lat="48.12128" lon="2.74682">
        <ele>100</ele>
        <time>2017-04-07T21:20:50Z</time>
      </trkpt>
      <trkpt lat="48.12131" lon="2.74676">
        <ele>100</ele>
        <time>2017-04-07T21:22:50Z</time>
      </trkpt>
      <trkpt lat="48.12153" lon="2.7463">
        <ele>100</ele>
        <time>2017-04-07T21:24:50Z</time>
      </trkpt>
      <trkpt lat="48.12172" lon="2.74596">
        <ele>101</ele>
        <time>2017-04-07T21:26:50Z</time>
      </trkpt>
      <trkpt lat="48.12214" lon="2.74517">
        <ele>101</ele>
        <time>2017-04-07T21:28:50Z</time>
      </trkpt>
      <trkpt lat="48.12236" lon="2.7448">
        <ele>101</ele>
        <time>2017-04-07T21:30:50Z</time>
      </trkpt>
      <trkpt lat="48.12257" lon="2.74445">
        <ele>102</ele>
        <time>2017-04-07T21:32:50Z</time>
      </trkpt>
      <trkpt lat="48.1228" lon="2.74411">
        <ele>101</ele>
        <time>2017-04-07T21:34:50Z</time>
      </trkpt>
      <trkpt lat="48.12315" lon="2.7437">
        <ele>101</ele>
        <time>2017-04-07T21:36:50Z</time>
      </trkpt>
      <trkpt lat="48.12333" lon="2.74347">
        <ele>101</ele>
        <time>2017-04-07T21:38:50Z</time>
      </trkpt>
      <trkpt lat="48.12337" lon="2.74343">
        <ele>102</ele>
        <time>2017-04-07T21:40:50Z</time>
      </trkpt>
      <trkpt lat="48.12368" lon="2.74309">
        <ele>102</ele>
        <time>2017-04-07T21:42:50Z</time>
      </trkpt>
      <trkpt lat="48.12399" lon="2.74274">
        <ele>102</ele>
        <time>2017-04-07T21:44:50Z</time>
      </trkpt>
      <trkpt lat="48.12427" lon="2.74238">
        <ele>102</ele>
        <time>2017-04-07T21:46:50Z</time>
      </trkpt>
      <trkpt lat="48.12447" lon="2.742">
        <ele>102</ele>
        <time>2017-04-07T21:48:50Z</time>
      </trkpt>
      <trkpt lat="48.12469" lon="2.74172">
        <ele>103</ele>
        <time>2017-04-07T21:50:50Z</time>
      </trkpt>
      <trkpt lat="48.1248" lon="2.74162">
        <ele>102</ele>
        <time>2017-04-07T21:52:50Z</time>
      </trkpt>
      <trkpt lat="48.12489" lon="2.74156">
        <ele>102</ele>
        <time>2017-04-07T21:54:50Z</time>
      </trkpt>
      <trkpt lat="48.1252" lon="2.74127">
        <ele>103</ele>
        <time>2017-04-07T21:56:50Z</time>
      </trkpt>
      <trkpt lat="48.12541" lon="2.74106">
        <ele>103</ele>
        <time>2017-04-07T21:58:50Z</time>
      </trkpt>
      <trkpt lat="48.12543" lon="2.74102">
        <ele>103</ele>
        <time>2017-04-07T22:00:50Z</time>
      </trkpt>
      <trkpt lat="48.12542" lon="2.74091">
        <ele>103</ele>
        <time>2017-04-07T22:02:50Z</time>
      </trkpt>
      <trkpt lat="48.12536" lon="2.74082">
        <ele>101</ele>
        <time>2017-04-07T22:04:50Z</time>
      </trkpt>
      <trkpt lat="48.12529" lon="2.74076">
        <ele>101</ele>
        <time>2017-04-07T22:06:50Z</time>
      </trkpt>
      <trkpt lat="48.12504" lon="2.74057">
        <ele>101</ele>
        <time>2017-04-07T22:08:50Z</time>
      </trkpt>
      <trkpt lat="48.12467" lon="2.7403">
        <ele>100</ele>
        <time>2017-04-07T22:10:50Z</time>
      </trkpt>
      <trkpt lat="48.12441" lon="2.74012">
        <ele>100</ele>
        <time>2017-04-07T22:12:50Z</time>
      </trkpt>
      <trkpt lat="48.12366" lon="2.73955">
        <ele>100</ele>
        <time>2017-04-07T22:14:50Z</time>
      </trkpt>
      <trkpt lat="48.12363" lon="2.73952">
        <ele>100</ele>
        <time>2017-04-07T22:16:50Z</time>
      </trkpt>
      <trkpt lat="48.1236" lon="2.73949">
        <ele>100</ele>
        <time>2017-04-07T22:18:50Z</time>
      </trkpt>
      <trkpt lat="48.12345" lon="2.73938">
        <ele>100</ele>
        <time>2017-04-07T22:20:50Z</time>
      </trkpt>
      <trkpt lat="48.12312" lon="2.73913">
        <ele>101</ele>
        <time>2017-04-07T22:22:50Z</time>
      </trkpt>
      <trkpt lat="48.12282" lon="2.73888">
        <ele>101</ele>
        <time>2017-04-07T22:24:50Z</time>
      </trkpt>
      <trkpt lat="48.12266" lon="2.73874">
        <ele>101</ele>
        <time>2017-04-07T22:26:50Z</time>
      </trkpt>
      <trkpt lat="48.12263" lon="2.73869">
        <ele>101</ele>
        <time>2017-04-07T22:28:50Z</time>
      </trkpt>
      <trkpt lat="48.12262" lon="2.73868">
        <ele>101</ele>
        <time>2017-04-07T22:30:50Z</time>
      </trkpt>
      <trkpt lat="48.12262" lon="2.73867">
        <ele>101</ele>
        <time>2017-04-07T22:32:50Z</time>
      </trkpt>
      <trkpt lat="48.12262" lon="2.73862">
        <ele>101</ele>
        <time>2017-04-07T22:34:50Z</time>
      </trkpt>
      <trkpt lat="48.12256" lon="2.73839">
        <ele>100</ele>
        <time>2017-04-07T22:36:50Z</time>
      </trkpt>
      <trkpt lat="48.1225" lon="2.73802">
        <ele>101</ele>
        <time>2017-04-07T22:38:50Z</time>
      </trkpt>
      <trkpt lat="48.1224" lon="2.73767">
        <ele>101</ele>
        <time>2017-04-07T22:40:50Z</time>
      </trkpt>
      <trkpt lat="48.12227" lon="2.7376">
        <ele>101</ele>
        <time>2017-04-07T22:42:50Z</time>
      </trkpt>
      <trkpt lat="48.12213" lon="2.73749">
        <ele>101</ele>
        <time>2017-04-07T22:44:50Z</time>
      </trkpt>
      <trkpt lat="48.12211" lon="2.73744">
        <ele>101</ele>
        <time>2017-04-07T22:46:50Z</time>
      </trkpt>
      <trkpt lat="48.12206" lon="2.73719">
        <ele>100</ele>
        <time>2017-04-07T22:48:50Z</time>
      </trkpt>
      <trkpt lat="48.12206" lon="2.73697">
        <ele>100</ele>
        <time>2017-04-07T22:50:50Z</time>
      </trkpt>
      <trkpt lat="48.12208" lon="2.73675">
        <ele>100</ele>
        <time>2017-04-07T22:52:50Z</time>
      </trkpt>
      <trkpt lat="48.12211" lon="2.7364">
        <ele>100</ele>
        <time>2017-04-07T22:54:50Z</time>
      </trkpt>
      <trkpt lat="48.12212" lon="2.73633">
        <ele>100</ele>
        <time>2017-04-07T22:56:50Z</time>
      </trkpt>
      <trkpt lat="48.12217" lon="2.73582">
        <ele>100</ele>
        <time>2017-04-07T22:58:50Z</time>
      </trkpt>
      <trkpt lat="48.12222" lon="2.73508">
        <ele>100</ele>
        <time>2017-04-07T23:00:50Z</time>
      </trkpt>
      <trkpt lat="48.12228" lon="2.73431">
        <ele>100</ele>
        <time>2017-04-07T23:02:50Z</time>
      </trkpt>
      <trkpt lat="48.12234" lon="2.73344">
        <ele>99</ele>
        <time>2017-04-07T23:04:50Z</time>
      </trkpt>
      <trkpt lat="48.12238" lon="2.73284">
        <ele>99</ele>
        <time>2017-04-07T23:06:50Z</time>
      </trkpt>
      <trkpt lat="48.12239" lon="2.73204">
        <ele>100</ele>
        <time>2017-04-07T23:08:50Z</time>
      </trkpt>
      <trkpt lat="48.12242" lon="2.73174">
        <ele>101</ele>
        <time>2017-04-07T23:10:50Z</time>
      </trkpt>
      <trkpt lat="48.12246" lon="2.7316">
        <ele>101</ele>
        <time>2017-04-07T23:12:50Z</time>
      </trkpt>
      <trkpt lat="48.12257" lon="2.73116">
        <ele>100</ele>
        <time>2017-04-07T23:14:50Z</time>
      </trkpt>
      <trkpt lat="48.12259" lon="2.73101">
        <ele>99</ele>
        <time>2017-04-07T23:16:50Z</time>
      </trkpt>
      <trkpt lat="48.1226" lon="2.7307">
        <ele>99</ele>
        <time>2017-04-07T23:18:50Z</time>
      </trkpt>
      <trkpt lat="48.12254" lon="2.73005">
        <ele>100</ele>
        <time>2017-04-07T23:20:50Z</time>
      </trkpt>
      <trkpt lat="48.1225" lon="2.72965">
        <ele>100</ele>
        <time>2017-04-07T23:22:50Z</time>
      </trkpt>
      <trkpt lat="48.12248" lon="2.72935">
        <ele>99</ele>
        <time>2017-04-07T23:24:50Z</time>
      </trkpt>
      <trkpt lat="48.12252" lon="2.72886">
        <ele>99</ele>
        <time>2017-04-07T23:26:50Z</time>
      </trkpt>
      <trkpt lat="48.12265" lon="2.72843">
        <ele>99</ele>
        <time>2017-04-07T23:28:50Z</time>
      </trkpt>
      <trkpt lat="48.12272" lon="2.728">
        <ele>101</ele>
        <time>2017-04-07T23:30:50Z</time>
      </trkpt>
      <trkpt lat="48.12273" lon="2.72787">
        <ele>101</ele>
        <time>2017-04-07T23:32:50Z</time>
      </trkpt>
      <trkpt lat="48.12269" lon="2.72775">
        <ele>101</ele>
        <time>2017-04-07T23:34:50Z</time>
      </trkpt>
      <trkpt lat="48.12255" lon="2.72767">
        <ele>102</ele>
        <time>2017-04-07T23:36:50Z</time>
      </trkpt>
      <trkpt lat="48.12232" lon="2.72771">
        <ele>102</ele>
        <time>2017-04-07T23:38:50Z</time>
      </trkpt>
      <trkpt lat="48.12226" lon="2.72772">
        <ele>102</ele>
        <time>2017-04-07T23:40:50Z</time>
      </trkpt>
      <trkpt lat="48.1219" lon="2.72781">
        <ele>102</ele>
        <time>2017-04-07T23:42:50Z</time>
      </trkpt>
      <trkpt lat="48.12178" lon="2.72784">
        <ele>102</ele>
        <time>2017-04-07T23:44:50Z</time>
      </trkpt>
      <trkpt lat="48.12135" lon="2.72804">
        <ele>101</ele>
        <time>2017-04-07T23:46:50Z</time>
      </trkpt>
      <trkpt lat="48.12091" lon="2.72827">
        <ele>99</ele>
        <time>2017-04-07T23:48:50Z</time>
      </trkpt>
      <trkpt lat="48.12086" lon="2.7283">
        <ele>98</ele>
        <time>2017-04-07T23:50:50Z</time>
      </trkpt>
      <trkpt lat="48.12076" lon="2.72826">
        <ele>98</ele>
        <time>2017-04-07T23:52:50Z</time>
      </trkpt>
      <trkpt lat="48.12068" lon="2.72806">
        <ele>99</ele>
        <time>2017-04-07T23:54:50Z</time>
      </trkpt>
      <trkpt lat="48.12066" lon="2.72798">
        <ele>99</ele>
        <time>2017-04-07T23:56:50Z</time>
      </trkpt>
      <trkpt lat="48.12054" lon="2.7274">
        <ele>101</ele>
        <time>2017-04-07T23:58:50Z</time>
      </trkpt>
      <trkpt lat="48.12044" lon="2.72698">
        <ele>100</ele>
        <time>2017-04-08T00:00:50Z</time>
      </trkpt>
      <trkpt lat="48.12033" lon="2.72644">
        <ele>100</ele>
        <time>2017-04-08T00:02:50Z</time>
      </trkpt>
      <trkpt lat="48.1202" lon="2.72584">
        <ele>100</ele>
        <time>2017-04-08T00:04:50Z</time>
      </trkpt>
      <trkpt lat="48.12003" lon="2.72498">
        <ele>99</ele>
        <time>2017-04-08T00:06:50Z</time>
      </trkpt>
      <trkpt lat="48.11998" lon="2.7247">
        <ele>98</ele>
        <time>2017-04-08T00:08:50Z</time>
      </trkpt>
      <trkpt lat="48.11974" lon="2.72355">
        <ele>96</ele>
        <time>2017-04-08T00:10:50Z</time>
      </trkpt>
      <trkpt lat="48.11954" lon="2.72271">
        <ele>95</ele>
        <time>2017-04-08T00:12:50Z</time>
      </trkpt>
      <trkpt lat="48.11946" lon="2.72234">
        <ele>95</ele>
        <time>2017-04-08T00:14:50Z</time>
      </trkpt>
      <trkpt lat="48.11914" lon="2.72078">
        <ele>94</ele>
        <time>2017-04-08T00:16:50Z</time>
      </trkpt>
      <trkpt lat="48.11897" lon="2.71988">
        <ele>95</ele>
        <time>2017-04-08T00:18:50Z</time>
      </trkpt>
      <trkpt lat="48.11892" lon="2.71963">
        <ele>95</ele>
        <time>2017-04-08T00:20:50Z</time>
      </trkpt>
      <trkpt lat="48.11881" lon="2.71912">
        <ele>95</ele>
        <time>2017-04-08T00:22:50Z</time>
      </trkpt>
      <trkpt lat="48.11867" lon="2.71845">
        <ele>95</ele>
        <time>2017-04-08T00:24:50Z</time>
      </trkpt>
      <trkpt lat="48.1185" lon="2.71761">
        <ele>94</ele>
        <time>2017-04-08T00:26:50Z</time>
      </trkpt>
      <trkpt lat="48.11832" lon="2.71672">
        <ele>93</ele>
        <time>2017-04-08T00:28:50Z</time>
      </trkpt>
      <trkpt lat="48.11806" lon="2.71554">
        <ele>93</ele>
        <time>2017-04-08T00:30:50Z</time>
      </trkpt>
      <trkpt lat="48.11785" lon="2.71451">
        <ele>92</ele>
        <time>2017-04-08T00:32:50Z</time>
      </trkpt>
      <trkpt lat="48.1178" lon="2.71421">
        <ele>92</ele>
        <time>2017-04-08T00:34:50Z</time>
      </trkpt>
      <trkpt lat="48.11779" lon="2.71411">
        <ele>92</ele>
        <time>2017-04-08T00:36:50Z</time>
      </trkpt>
      <trkpt lat="48.1178" lon="2.71391">
        <ele>92</ele>
        <time>2017-04-08T00:38:50Z</time>
      </trkpt>
      <trkpt lat="48.11789" lon="2.71277">
        <ele>92</ele>
        <time>2017-04-08T00:40:50Z</time>
      </trkpt>
      <trkpt lat="48.11793" lon="2.71229">
        <ele>91</ele>
        <time>2017-04-08T00:42:50Z</time>
      </trkpt>
      <trkpt lat="48.11808" lon="2.7098">
        <ele>93</ele>
        <time>2017-04-08T00:44:50Z</time>
      </trkpt>
      <trkpt lat="48.11809" lon="2.70965">
        <ele>93</ele>
        <time>2017-04-08T00:46:50Z</time>
      </trkpt>
      <trkpt lat="48.1181" lon="2.70928">
        <ele>92</ele>
        <time>2017-04-08T00:48:50Z</time>
      </trkpt>
      <trkpt lat="48.11812" lon="2.70914">
        <ele>92</ele>
        <time>2017-04-08T00:50:50Z</time>
      </trkpt>
      <trkpt lat="48.11813" lon="2.70886">
        <ele>92</ele>
        <time>2017-04-08T00:52:50Z</time>
      </trkpt>
      <trkpt lat="48.11818" lon="2.70833">
        <ele>92</ele>
        <time>2017-04-08T00:54:50Z</time>
      </trkpt>
      <trkpt lat="48.11824" lon="2.70776">
        <ele>92</ele>
        <time>2017-04-08T00:56:50Z</time>
      </trkpt>
      <trkpt lat="48.11827" lon="2.70756">
        <ele>92</ele>
        <time>2017-04-08T00:58:50Z</time>
      </trkpt>
      <trkpt lat="48.11831" lon="2.70726">
        <ele>92</ele>
        <time>2017-04-08T01:00:50Z</time>
      </trkpt>
      <trkpt lat="48.11842" lon="2.70667">
        <ele>92</ele>
        <time>2017-04-08T01:02:50Z</time>
      </trkpt>
      <trkpt lat="48.11845" lon="2.70648">
        <ele>92</ele>
        <time>2017-04-08T01:04:50Z</time>
      </trkpt>
      <trkpt lat="48.11854" lon="2.70609">
        <ele>91</ele>
        <time>2017-04-08T01:06:50Z</time>
      </trkpt>
      <trkpt lat="48.11871" lon="2.70523">
        <ele>91</ele>
        <time>2017-04-08T01:08:50Z</time>
      </trkpt>
      <trkpt lat="48.11875" lon="2.70501">
        <ele>91</ele>
        <time>2017-04-08T01:10:50Z</time>
      </trkpt>
      <trkpt lat="48.11886" lon="2.70448">
        <ele>90</ele>
        <time>2017-04-08T01:12:50Z</time>
      </trkpt>
      <trkpt lat="48.11897" lon="2.70394">
        <ele>89</ele>
        <time>2017-04-08T01:14:50Z</time>
      </trkpt>
      <trkpt lat="48.11908" lon="2.70341">
        <ele>89</ele>
        <time>2017-04-08T01:16:50Z</time>
      </trkpt>
      <trkpt lat="48.11925" lon="2.70256">
        <ele>88</ele>
        <time>2017-04-08T01:18:50Z</time>
      </trkpt>
      <trkpt lat="48.11946" lon="2.70159">
        <ele>89</ele>
        <time>2017-04-08T01:20:50Z</time>
      </trkpt>
      <trkpt lat="48.11966" lon="2.70064">
        <ele>89</ele>
        <time>2017-04-08T01:22:50Z</time>
      </trkpt>
      <trkpt lat="48.11976" lon="2.70017">
        <ele>90</ele>
        <time>2017-04-08T01:24:50Z</time>
      </trkpt>
      <trkpt lat="48.11986" lon="2.69971">
        <ele>91</ele>
        <time>2017-04-08T01:26:50Z</time>
      </trkpt>
      <trkpt lat="48.11989" lon="2.69955">
        <ele>91</ele>
        <time>2017-04-08T01:28:50Z</time>
      </trkpt>
      <trkpt lat="48.1199" lon="2.69947">
        <ele>91</ele>
        <time>2017-04-08T01:30:50Z</time>
      </trkpt>
      <trkpt lat="48.12014" lon="2.69832">
        <ele>91</ele>
        <time>2017-04-08T01:32:50Z</time>
      </trkpt>
      <trkpt lat="48.12029" lon="2.69761">
        <ele>91</ele>
        <time>2017-04-08T01:34:50Z</time>
      </trkpt>
      <trkpt lat="48.12039" lon="2.69712">
        <ele>91</ele>
        <time>2017-04-08T01:36:50Z</time>
      </trkpt>
      <trkpt lat="48.12043" lon="2.69692">
        <ele>91</ele>
        <time>2017-04-08T01:38:50Z</time>
      </trkpt>
      <trkpt lat="48.12049" lon="2.69663">
        <ele>91</ele>
        <time>2017-04-08T01:40:50Z</time>
      </trkpt>
      <trkpt lat="48.12074" lon="2.69546">
        <ele>89</ele>
        <time>2017-04-08T01:42:50Z</time>
      </trkpt>
      <trkpt lat="48.12082" lon="2.69524">
        <ele>89</ele>
        <time>2017-04-08T01:44:50Z</time>
      </trkpt>
      <trkpt lat="48.12086" lon="2.69521">
        <ele>89</ele>
        <time>2017-04-08T01:46:50Z</time>
      </trkpt>
      <trkpt lat="48.12095" lon="2.69521">
        <ele>89</ele>
        <time>2017-04-08T01:48:50Z</time>
      </trkpt>
      <trkpt lat="48.12128" lon="2.69533">
        <ele>88</ele>
        <time>2017-04-08T01:50:50Z</time>
      </trkpt>
      <trkpt lat="48.12201" lon="2.69555">
        <ele>87</ele>
        <time>2017-04-08T01:52:50Z</time>
      </trkpt>
      <trkpt lat="48.12206" lon="2.69555">
        <ele>87</ele>
        <time>2017-04-08T01:54:50Z</time>
      </trkpt>
      <trkpt lat="48.12219" lon="2.69545">
        <ele>87</ele>
        <time>2017-04-08T01:56:50Z</time>
      </trkpt>
      <trkpt lat="48.12225" lon="2.69523">
        <ele>87</ele>
        <time>2017-04-08T01:58:50Z</time>
      </trkpt>
      <trkpt lat="48.12227" lon="2.69506">
        <ele>86</ele>
        <time>2017-04-08T02:00:50Z</time>
      </trkpt>
      <trkpt lat="48.12243" lon="2.69399">
        <ele>86</ele>
        <time>2017-04-08T02:02:50Z</time>
      </trkpt>
      <trkpt lat="48.12268" lon="2.69242">
        <ele>85</ele>
        <time>2017-04-08T02:04:50Z</time>
      </trkpt>
      <trkpt lat="48.12272" lon="2.69198">
        <ele>84</ele>
        <time>2017-04-08T02:06:50Z</time>
      </trkpt>
      <trkpt lat="48.12266" lon="2.69183">
        <ele>84</ele>
        <time>2017-04-08T02:08:50Z</time>
      </trkpt>
      <trkpt lat="48.1226" lon="2.69177">
        <ele>84</ele>
        <time>2017-04-08T02:10:50Z</time>
      </trkpt>
      <trkpt lat="48.12242" lon="2.69166">
        <ele>83</ele>
        <time>2017-04-08T02:12:50Z</time>
      </trkpt>
      <trkpt lat="48.12235" lon="2.69163">
        <ele>82</ele>
        <time>2017-04-08T02:14:50Z</time>
      </trkpt>
      <trkpt lat="48.12212" lon="2.69157">
        <ele>82</ele>
        <time>2017-04-08T02:16:50Z</time>
      </trkpt>
      <trkpt lat="48.12204" lon="2.69156">
        <ele>82</ele>
        <time>2017-04-08T02:18:50Z</time>
      </trkpt>
      <trkpt lat="48.12186" lon="2.69152">
        <ele>82</ele>
        <time>2017-04-08T02:20:50Z</time>
      </trkpt>
      <trkpt lat="48.1217" lon="2.69144">
        <ele>82</ele>
        <time>2017-04-08T02:22:50Z</time>
      </trkpt>
      <trkpt lat="48.12163" lon="2.6914">
        <ele>81</ele>
        <time>2017-04-08T02:24:50Z</time>
      </trkpt>
      <trkpt lat="48.12157" lon="2.69133">
        <ele>81</ele>
        <time>2017-04-08T02:26:50Z</time>
      </trkpt>
      <trkpt lat="48.12152" lon="2.69124">
        <ele>81</ele>
        <time>2017-04-08T02:28:50Z</time>
      </trkpt>
      <trkpt lat="48.1215" lon="2.69092">
        <ele>81</ele>
        <time>2017-04-08T02:30:50Z</time>
      </trkpt>
      <trkpt lat="48.12156" lon="2.69063">
        <ele>81</ele>
        <time>2017-04-08T02:32:50Z</time>
      </trkpt>
      <trkpt lat="48.12159" lon="2.69054">
        <ele>81</ele>
        <time>2017-04-08T02:34:50Z</time>
      </trkpt>
      <trkpt lat="48.12162" lon="2.69045">
        <ele>81</ele>
        <time>2017-04-08T02:36:50Z</time>
      </trkpt>
      <trkpt lat="48.12181" lon="2.69018">
        <ele>82</ele>
        <time>2017-04-08T02:38:50Z</time>
      </trkpt>
      <trkpt lat="48.12201" lon="2.68997">
        <ele>82</ele>
        <time>2017-04-08T02:40:50Z</time>
      </trkpt>
      <trkpt lat="48.12207" lon="2.68984">
        <ele>82</ele>
        <time>2017-04-08T02:42:50Z</time>
      </trkpt>
      <trkpt lat="48.12206" lon="2.68961">
        <ele>82</ele>
        <time>2017-04-08T02:44:50Z</time>
      </trkpt>
      <trkpt lat="48.12205" lon="2.68954">
        <ele>83</ele>
        <time>2017-04-08T02:46:50Z</time>
      </trkpt>
      <trkpt lat="48.12205" lon="2.68939">
        <ele>83</ele>
        <time>2017-04-08T02:48:50Z</time>
      </trkpt>
      <trkpt lat="48.12205" lon="2.68927">
        <ele>83</ele>
        <time>2017-04-08T02:50:50Z</time>
      </trkpt>
      <trkpt lat="48.12205" lon="2.6891">
        <ele>83</ele>
        <time>2017-04-08T02:52:50Z</time>
      </trkpt>
      <trkpt lat="48.12204" lon="2.68895">
        <ele>83</ele>
        <time>2017-04-08T02:54:50Z</time>
      </trkpt>
      <trkpt lat="48.12202" lon="2.6888">
        <ele>83</ele>
        <time>2017-04-08T02:56:50Z</time>
      </trkpt>
      <trkpt lat="48.12194" lon="2.68842">
        <ele>83</ele>
        <time>2017-04-08T02:58:50Z</time>
      </trkpt>
      <trkpt lat="48.12188" lon="2.68811">
        <ele>83</ele>
        <time>2017-04-08T03:00:50Z</time>
      </trkpt>
      <trkpt lat="48.12185" lon="2.68788">
        <ele>83</ele>
        <time>2017-04-08T03:02:50Z</time>
      </trkpt>
      <trkpt lat="48.12185" lon="2.6878">
        <ele>83</ele>
        <time>2017-04-08T03:04:50Z</time>
      </trkpt>
      <trkpt lat="48.12182" lon="2.68762">
        <ele>83</ele>
        <time>2017-04-08T03:06:50Z</time>
      </trkpt>
      <trkpt lat="48.1218" lon="2.68736">
        <ele>84</ele>
        <time>2017-04-08T03:08:50Z</time>
      </trkpt>
      <trkpt lat="48.12178" lon="2.68688">
        <ele>84</ele>
        <time>2017-04-08T03:10:50Z</time>
      </trkpt>
      <trkpt lat="48.12175" lon="2.68656">
        <ele>85</ele>
        <time>2017-04-08T03:12:50Z</time>
      </trkpt>
      <trkpt lat="48.12169" lon="2.68534">
        <ele>88</ele>
        <time>2017-04-08T03:14:50Z</time>
      </trkpt>
      <trkpt lat="48.12163" lon="2.68441">
        <ele>89</ele>
        <time>2017-04-08T03:16:50Z</time>
      </trkpt>
      <trkpt lat="48.12163" lon="2.68436">
        <ele>89</ele>
        <time>2017-04-08T03:18:50Z</time>
      </trkpt>
      <trkpt lat="48.1216" lon="2.68394">
        <ele>90</ele>
        <time>2017-04-08T03:20:50Z</time>
      </trkpt>
      <trkpt lat="48.12158" lon="2.68346">
        <ele>90</ele>
        <time>2017-04-08T03:22:50Z</time>
      </trkpt>
      <trkpt lat="48.12153" lon="2.68248">
        <ele>91</ele>
        <time>2017-04-08T03:24:50Z</time>
      </trkpt>
      <trkpt lat="48.12151" lon="2.68228">
        <ele>91</ele>
        <time>2017-04-08T03:26:50Z</time>
      </trkpt>
      <trkpt lat="48.12151" lon="2.68225">
        <ele>91</ele>
        <time>2017-04-08T03:28:50Z</time>
      </trkpt>
      <trkpt lat="48.12154" lon="2.68218">
        <ele>91</ele>
        <time>2017-04-08T03:30:50Z</time>
      </trkpt>
      <trkpt lat="48.12156" lon="2.68216">
        <ele>91</ele>
        <time>2017-04-08T03:32:50Z</time>
      </trkpt>
      <trkpt lat="48.12167" lon="2.68211">
        <ele>91</ele>
        <time>2017-04-08T03:34:50Z</time>
      </trkpt>
      <trkpt lat="48.12173" lon="2.68209">
        <ele>91</ele>
        <time>2017-04-08T03:36:50Z</time>
      </trkpt>
      <trkpt lat="48.12194" lon="2.68196">
        <ele>91</ele>
        <time>2017-04-08T03:38:50Z</time>
      </trkpt>
      <trkpt lat="48.1224" lon="2.6817">
        <ele>92</ele>
        <time>2017-04-08T03:40:50Z</time>
      </trkpt>
      <trkpt lat="48.12317" lon="2.68126">
        <ele>92</ele>
        <time>2017-04-08T03:42:50Z</time>
      </trkpt>
      <trkpt lat="48.12346" lon="2.68108">
        <ele>92</ele>
        <time>2017-04-08T03:44:50Z</time>
      </trkpt>
      <trkpt lat="48.12372" lon="2.68093">
        <ele>92</ele>
        <time>2017-04-08T03:46:50Z</time>
      </trkpt>
      <trkpt lat="48.12437" lon="2.68054">
        <ele>93</ele>
        <time>2017-04-08T03:48:50Z</time>
      </trkpt>
      <trkpt lat="48.12467" lon="2.68037">
        <ele>93</ele>
        <time>2017-04-08T03:50:50Z</time>
      </trkpt>
      <trkpt lat="48.12597" lon="2.67964">
        <ele>89</ele>
        <time>2017-04-08T03:52:50Z</time>
      </trkpt>
      <trkpt lat="48.12626" lon="2.67947">
        <ele>89</ele>
        <time>2017-04-08T03:54:50Z</time>
      </trkpt>
      <trkpt lat="48.1264" lon="2.6793">
        <ele>89</ele>
        <time>2017-04-08T03:56:50Z</time>
      </trkpt>
      <trkpt lat="48.12642" lon="2.67919">
        <ele>89</ele>
        <time>2017-04-08T03:58:50Z</time>
      </trkpt>
      <trkpt lat="48.1264" lon="2.67908">
        <ele>88</ele>
        <time>2017-04-08T04:00:50Z</time>
      </trkpt>
      <trkpt lat="48.12622" lon="2.6784">
        <ele>88</ele>
        <time>2017-04-08T04:02:50Z</time>
      </trkpt>
      <trkpt lat="48.12615" lon="2.67813">
        <ele>88</ele>
        <time>2017-04-08T04:04:50Z</time>
      </trkpt>
      <trkpt lat="48.12602" lon="2.67766">
        <ele>88</ele>
        <time>2017-04-08T04:06:50Z</time>
      </trkpt>
      <trkpt lat="48.12568" lon="2.67632">
        <ele>88</ele>
        <time>2017-04-08T04:08:50Z</time>
      </trkpt>
      <trkpt lat="48.12566" lon="2.67624">
        <ele>88</ele>
        <time>2017-04-08T04:10:50Z</time>
      </trkpt>
      <trkpt lat="48.12548" lon="2.67556">
        <ele>86</ele>
        <time>2017-04-08T04:12:50Z</time>
      </trkpt>
      <trkpt lat="48.12541" lon="2.67525">
        <ele>86</ele>
        <time>2017-04-08T04:14:50Z</time>
      </trkpt>
      <trkpt lat="48.12536" lon="2.675">
        <ele>85</ele>
        <time>2017-04-08T04:16:50Z</time>
      </trkpt>
      <trkpt lat="48.12531" lon="2.67472">
        <ele>84</ele>
        <time>2017-04-08T04:18:50Z</time>
      </trkpt>
      <trkpt lat="48.12528" lon="2.67454">
        <ele>84</ele>
        <time>2017-04-08T04:20:50Z</time>
      </trkpt>
      <trkpt lat="48.12525" lon="2.67447">
        <ele>84</ele>
        <time>2017-04-08T04:22:50Z</time>
      </trkpt>
      <trkpt lat="48.12526" lon="2.6743">
        <ele>84</ele>
        <time>2017-04-08T04:24:50Z</time>
      </trkpt>
      <trkpt lat="48.12541" lon="2.6742">
        <ele>83</ele>
        <time>2017-04-08T04:26:50Z</time>
      </trkpt>
      <trkpt lat="48.1255" lon="2.6741">
        <ele>82</ele>
        <time>2017-04-08T04:28:50Z</time>
      </trkpt>
      <trkpt lat="48.12552" lon="2.67404">
        <ele>81</ele>
        <time>2017-04-08T04:30:50Z</time>
      </trkpt>
      <trkpt lat="48.1255" lon="2.67396">
        <ele>82</ele>
        <time>2017-04-08T04:32:50Z</time>
      </trkpt>
      <trkpt lat="48.12547" lon="2.67389">
        <ele>82</ele>
        <time>2017-04-08T04:34:50Z</time>
      </trkpt>
      <trkpt lat="48.12538" lon="2.67375">
        <ele>82</ele>
        <time>2017-04-08T04:36:50Z</time>
      </trkpt>
      <trkpt lat="48.12528" lon="2.67363">
        <ele>81</ele>
        <time>2017-04-08T04:38:50Z</time>
      </trkpt>
      <trkpt lat="48.12523" lon="2.67358">
        <ele>81</ele>
        <time>2017-04-08T04:40:50Z</time>
      </trkpt>
      <trkpt lat="48.1252" lon="2.67352">
        <ele>81</ele>
        <time>2017-04-08T04:42:50Z</time>
      </trkpt>
      <trkpt lat="48.12518" lon="2.67345">
        <ele>81</ele>
        <time>2017-04-08T04:44:50Z</time>
      </trkpt>
      <trkpt lat="48.12517" lon="2.67337">
        <ele>80</ele>
        <time>2017-04-08T04:46:50Z</time>
      </trkpt>
      <trkpt lat="48.12517" lon="2.67318">
        <ele>81</ele>
        <time>2017-04-08T04:48:50Z</time>
      </trkpt>
      <trkpt lat="48.12516" lon="2.67305">
        <ele>81</ele>
        <time>2017-04-08T04:50:50Z</time>
      </trkpt>
      <trkpt lat="48.12515" lon="2.67299">
        <ele>81</ele>
        <time>2017-04-08T04:52:50Z</time>
      </trkpt>
      <trkpt lat="48.12509" lon="2.6728">
        <ele>82</ele>
        <time>2017-04-08T04:54:50Z</time>
      </trkpt>
      <trkpt lat="48.12496" lon="2.67257">
        <ele>81</ele>
        <time>2017-04-08T04:56:50Z</time>
      </trkpt>
      <trkpt lat="48.12479" lon="2.67224">
        <ele>81</ele>
        <time>2017-04-08T04:58:50Z</time>
      </trkpt>
      <trkpt lat="48.12463" lon="2.67195">
        <ele>81</ele>
        <time>2017-04-08T05:00:50Z</time>
      </trkpt>
      <trkpt lat="48.12451" lon="2.67173">
        <ele>81</ele>
        <time>2017-04-08T05:02:50Z</time>
      </trkpt>
      <trkpt lat="48.12442" lon="2.67145">
        <ele>81</ele>
        <time>2017-04-08T05:04:50Z</time>
      </trkpt>
      <trkpt lat="48.12443" lon="2.67119">
        <ele>81</ele>
        <time>2017-04-08T05:06:50Z</time>
      </trkpt>
      <trkpt lat="48.12443" lon="2.67115">
        <ele>81</ele>
        <time>2017-04-08T05:08:50Z</time>
      </trkpt>
      <trkpt lat="48.12443" lon="2.67094">
        <ele>80</ele>
        <time>2017-04-08T05:10:50Z</time>
      </trkpt>
      <trkpt lat="48.12445" lon="2.67083">
        <ele>81</ele>
        <time>2017-04-08T05:12:50Z</time>
      </trkpt>
      <trkpt lat="48.12448" lon="2.67077">
        <ele>81</ele>
        <time>2017-04-08T05:14:50Z</time>
      </trkpt>
      <trkpt lat="48.12454" lon="2.6707">
        <ele>82</ele>
        <time>2017-04-08T05:16:50Z</time>
      </trkpt>
      <trkpt lat="48.12458" lon="2.67068">
        <ele>82</ele>
        <time>2017-04-08T05:18:50Z</time>
      </trkpt>
      <trkpt lat="48.12471" lon="2.67065">
        <ele>82</ele>
        <time>2017-04-08T05:20:50Z</time>
      </trkpt>
      <trkpt lat="48.12481" lon="2.67065">
        <ele>82</ele>
        <time>2017-04-08T05:22:50Z</time>
      </trkpt>
      <trkpt lat="48.12486" lon="2.67068">
        <ele>82</ele>
        <time>2017-04-08T05:24:50Z</time>
      </trkpt>
      <trkpt lat="48.12507" lon="2.6708">
        <ele>82</ele>
        <time>2017-04-08T05:26:50Z</time>
      </trkpt>
      <trkpt lat="48.12527" lon="2.67094">
        <ele>83</ele>
        <time>2017-04-08T05:28:50Z</time>
      </trkpt>
      <trkpt lat="48.12549" lon="2.67106">
        <ele>83</ele>
        <time>2017-04-08T05:30:50Z</time>
      </trkpt>
      <trkpt lat="48.12576" lon="2.67114">
        <ele>83</ele>
        <time>2017-04-08T05:32:50Z</time>
      </trkpt>
      <trkpt lat="48.12608" lon="2.67121">
        <ele>84</ele>
        <time>2017-04-08T05:34:50Z</time>
      </trkpt>
      <trkpt lat="48.1263" lon="2.6713">
        <ele>84</ele>
        <time>2017-04-08T05:36:50Z</time>
      </trkpt>
      <trkpt lat="48.12648" lon="2.67143">
        <ele>84</ele>
        <time>2017-04-08T05:38:50Z</time>
      </trkpt>
      <trkpt lat="48.12677" lon="2.67164">
        <ele>84</ele>
        <time>2017-04-08T05:40:50Z</time>
      </trkpt>
      <trkpt lat="48.12704" lon="2.67184">
        <ele>84</ele>
        <time>2017-04-08T05:42:50Z</time>
      </trkpt>
      <trkpt lat="48.12733" lon="2.67208">
        <ele>84</ele>
        <time>2017-04-08T05:44:50Z</time>
      </trkpt>
      <trkpt lat="48.12754" lon="2.67227">
        <ele>85</ele>
        <time>2017-04-08T05:46:50Z</time>
      </trkpt>
      <trkpt lat="48.1278" lon="2.67258">
        <ele>83</ele>
        <time>2017-04-08T05:48:50Z</time>
      </trkpt>
      <trkpt lat="48.12788" lon="2.67265">
        <ele>83</ele>
        <time>2017-04-08T05:50:50Z</time>
      </trkpt>
      <trkpt lat="48.12798" lon="2.67268">
        <ele>84</ele>
        <time>2017-04-08T05:52:50Z</time>
      </trkpt>
      <trkpt lat="48.12811" lon="2.67265">
        <ele>84</ele>
        <time>2017-04-08T05:54:50Z</time>
      </trkpt>
      <trkpt lat="48.12817" lon="2.67262">
        <ele>84</ele>
        <time>2017-04-08T05:56:50Z</time>
      </trkpt>
      <trkpt lat="48.12824" lon="2.67259">
        <ele>85</ele>
        <time>2017-04-08T05:58:50Z</time>
      </trkpt>
      <trkpt lat="48.12845" lon="2.6725">
        <ele>86</ele>
        <time>2017-04-08T06:00:50Z</time>
      </trkpt>
      <trkpt lat="48.12853" lon="2.6725">
        <ele>86</ele>
        <time>2017-04-08T06:02:50Z</time>
      </trkpt>
      <trkpt lat="48.12867" lon="2.67254">
        <ele>85</ele>
        <time>2017-04-08T06:04:50Z</time>
      </trkpt>
      <trkpt lat="48.12879" lon="2.67259">
        <ele>85</ele>
        <time>2017-04-08T06:06:50Z</time>
      </trkpt>
      <trkpt lat="48.12902" lon="2.67261">
        <ele>85</ele>
        <time>2017-04-08T06:08:50Z</time>
      </trkpt>
      <trkpt lat="48.12908" lon="2.67257">
        <ele>85</ele>
        <time>2017-04-08T06:10:50Z</time>
      </trkpt>
      <trkpt lat="48.1291" lon="2.67255">
        <ele>85</ele>
        <time>2017-04-08T06:12:50Z</time>
      </trkpt>
      <trkpt lat="48.12915" lon="2.67249">
        <ele>85</ele>
        <time>2017-04-08T06:14:50Z</time>
      </trkpt>
      <trkpt lat="48.12918" lon="2.67252">
        <ele>85</ele>
        <time>2017-04-08T06:16:50Z</time>
      </trkpt>
      <trkpt lat="48.12918" lon="2.67266">
        <ele>86</ele>
        <time>2017-04-08T06:18:50Z</time>
      </trkpt>
      <trkpt lat="48.12919" lon="2.67277">
        <ele>86</ele>
        <time>2017-04-08T06:20:50Z</time>
      </trkpt>
      <trkpt lat="48.12919" lon="2.6729">
        <ele>86</ele>
        <time>2017-04-08T06:22:50Z</time>
      </trkpt>
      <trkpt lat="48.1292" lon="2.67314">
        <ele>86</ele>
        <time>2017-04-08T06:24:50Z</time>
      </trkpt>
      <trkpt lat="48.1292" lon="2.67318">
        <ele>86</ele>
        <time>2017-04-08T06:26:50Z</time>
      </trkpt>
      <trkpt lat="48.12921" lon="2.67344">
        <ele>86</ele>
        <time>2017-04-08T06:28:50Z</time>
      </trkpt>
      <trkpt lat="48.12922" lon="2.67351">
        <ele>86</ele>
        <time>2017-04-08T06:30:50Z</time>
      </trkpt>
      <trkpt lat="48.12927" lon="2.67366">
        <ele>86</ele>
        <time>2017-04-08T06:32:50Z</time>
      </trkpt>
      <trkpt lat="48.12933" lon="2.67384">
        <ele>86</ele>
        <time>2017-04-08T06:34:50Z</time>
      </trkpt>
      <trkpt lat="48.12936" lon="2.67392">
        <ele>86</ele>
        <time>2017-04-08T06:36:50Z</time>
      </trkpt>
      <trkpt lat="48.12944" lon="2.67417">
        <ele>86</ele>
        <time>2017-04-08T06:38:50Z</time>
      </trkpt>
      <trkpt lat="48.12952" lon="2.67451">
        <ele>86</ele>
        <time>2017-04-08T06:40:50Z</time>
      </trkpt>
      <trkpt lat="48.12977" lon="2.67631">
        <ele>86</ele>
        <time>2017-04-08T06:42:50Z</time>
      </trkpt>
      <trkpt lat="48.12986" lon="2.67698">
        <ele>86</ele>
        <time>2017-04-08T06:44:50Z</time>
      </trkpt>
      <trkpt lat="48.12992" lon="2.67769">
        <ele>86</ele>
        <time>2017-04-08T06:46:50Z</time>
      </trkpt>
      <trkpt lat="48.12999" lon="2.67901">
        <ele>85</ele>
        <time>2017-04-08T06:48:50Z</time>
      </trkpt>
      <trkpt lat="48.13" lon="2.67917">
        <ele>86</ele>
        <time>2017-04-08T06:50:50Z</time>
      </trkpt>
      <trkpt lat="48.13007" lon="2.67999">
        <ele>85</ele>
        <time>2017-04-08T06:52:50Z</time>
      </trkpt>
      <trkpt lat="48.13019" lon="2.68041">
        <ele>85</ele>
        <time>2017-04-08T06:54:50Z</time>
      </trkpt>
      <trkpt lat="48.13039" lon="2.68076">
        <ele>85</ele>
        <time>2017-04-08T06:56:50Z</time>
      </trkpt>
      <trkpt lat="48.13075" lon="2.68123">
        <ele>84</ele>
        <time>2017-04-08T06:58:50Z</time>
      </trkpt>
      <trkpt lat="48.13122" lon="2.68184">
        <ele>85</ele>
        <time>2017-04-08T07:00:50Z</time>
      </trkpt>
      <trkpt lat="48.13148" lon="2.68218">
        <ele>85</ele>
        <time>2017-04-08T07:02:50Z</time>
      </trkpt>
      <trkpt lat="48.13186" lon="2.68265">
        <ele>86</ele>
        <time>2017-04-08T07:04:50Z</time>
      </trkpt>
      <trkpt lat="48.13297" lon="2.684">
        <ele>86</ele>
        <time>2017-04-08T07:06:50Z</time>
      </trkpt>
      <trkpt lat="48.13341" lon="2.68451">
        <ele>87</ele>
        <time>2017-04-08T07:08:50Z</time>
      </trkpt>
      <trkpt lat="48.13362" lon="2.68477">
        <ele>86</ele>
        <time>2017-04-08T07:10:50Z</time>
      </trkpt>
      <trkpt lat="48.13381" lon="2.68499">
        <ele>87</ele>
        <time>2017-04-08T07:12:50Z</time>
      </trkpt>
      <trkpt lat="48.13416" lon="2.68532">
        <ele>85</ele>
        <time>2017-04-08T07:14:50Z</time>
      </trkpt>
      <trkpt lat="48.13456" lon="2.68568">
        <ele>87</ele>
        <time>2017-04-08T07:16:50Z</time>
      </trkpt>
      <trkpt lat="48.13496" lon="2.68604">
        <ele>85</ele>
        <time>2017-04-08T07:18:50Z</time>
      </trkpt>
      <trkpt lat="48.13518" lon="2.68622">
        <ele>87</ele>
        <time>2017-04-08T07:20:50Z</time>
      </trkpt>
      <trkpt lat="48.13522" lon="2.68624">
        <ele>87</ele>
        <time>2017-04-08T07:22:50Z</time>
      </trkpt>
      <trkpt lat="48.13533" lon="2.68616">
        <ele>87</ele>
        <time>2017-04-08T07:24:50Z</time>
      </trkpt>
      <trkpt lat="48.13535" lon="2.68611">
        <ele>87</ele>
        <time>2017-04-08T07:26:50Z</time>
      </trkpt>
      <trkpt lat="48.13548" lon="2.68582">
        <ele>90</ele>
        <time>2017-04-08T07:28:50Z</time>
      </trkpt>
      <trkpt lat="48.13562" lon="2.68546">
        <ele>90</ele>
        <time>2017-04-08T07:30:50Z</time>
      </trkpt>
      <trkpt lat="48.1357" lon="2.68521">
        <ele>91</ele>
        <time>2017-04-08T07:32:50Z</time>
      </trkpt>
      <trkpt lat="48.1358" lon="2.68495">
        <ele>93</ele>
        <time>2017-04-08T07:34:50Z</time>
      </trkpt>
      <trkpt lat="48.13583" lon="2.68487">
        <ele>92</ele>
        <time>2017-04-08T07:36:50Z</time>
      </trkpt>
      <trkpt lat="48.13598" lon="2.68447">
        <ele>92</ele>
        <time>2017-04-08T07:38:50Z</time>
      </trkpt>
      <trkpt lat="48.13607" lon="2.68425">
        <ele>93</ele>
        <time>2017-04-08T07:40:50Z</time>
      </trkpt>
      <trkpt lat="48.13624" lon="2.68379">
        <ele>92</ele>
        <time>2017-04-08T07:42:50Z</time>
      </trkpt>
      <trkpt lat="48.13637" lon="2.68347">
        <ele>92</ele>
        <time>2017-04-08T07:44:50Z</time>
      </trkpt>
      <trkpt lat="48.13666" lon="2.6827">
        <ele>93</ele>
        <time>2017-04-08T07:46:50Z</time>
      </trkpt>
      <trkpt lat="48.1368" lon="2.68235">
        <ele>93</ele>
        <time>2017-04-08T07:48:50Z</time>
      </trkpt>
      <trkpt lat="48.13694" lon="2.68198">
        <ele>93</ele>
        <time>2017-04-08T07:50:50Z</time>
      </trkpt>
      <trkpt lat="48.13708" lon="2.68164">
        <ele>92</ele>
        <time>2017-04-08T07:52:50Z</time>
      </trkpt>
      <trkpt lat="48.13722" lon="2.68127">
        <ele>92</ele>
        <time>2017-04-08T07:54:50Z</time>
      </trkpt>
      <trkpt lat="48.13756" lon="2.68044">
        <ele>92</ele>
        <time>2017-04-08T07:56:50Z</time>
      </trkpt>
      <trkpt lat="48.13778" lon="2.67994">
        <ele>92</ele>
        <time>2017-04-08T07:58:50Z</time>
      </trkpt>
      <trkpt lat="48.1378" lon="2.67993">
        <ele>92</ele>
        <time>2017-04-08T08:00:50Z</time>
      </trkpt>
      <trkpt lat="48.13787" lon="2.67996">
        <ele>92</ele>
        <time>2017-04-08T08:02:50Z</time>
      </trkpt>
      <trkpt lat="48.1379" lon="2.67998">
        <ele>92</ele>
        <time>2017-04-08T08:04:50Z</time>
      </trkpt>
      <trkpt lat="48.13802" lon="2.68011">
        <ele>92</ele>
        <time>2017-04-08T08:06:50Z</time>
      </trkpt>
      <trkpt lat="48.13808" lon="2.68016">
        <ele>92</ele>
        <time>2017-04-08T08:08:50Z</time>
      </trkpt>
      <trkpt lat="48.13832" lon="2.68043">
        <ele>92</ele>
        <time>2017-04-08T08:10:50Z</time>
      </trkpt>
      <trkpt lat="48.13855" lon="2.68069">
        <ele>89</ele>
        <time>2017-04-08T08:12:50Z</time>
      </trkpt>
      <trkpt lat="48.13871" lon="2.68085">
        <ele>88</ele>
        <time>2017-04-08T08:14:50Z</time>
      </trkpt>
      <trkpt lat="48.13881" lon="2.68094">
        <ele>87</ele>
        <time>2017-04-08T08:16:50Z</time>
      </trkpt>
      <trkpt lat="48.13888" lon="2.681">
        <ele>87</ele>
        <time>2017-04-08T08:18:50Z</time>
      </trkpt>
      <trkpt lat="48.13909" lon="2.68115">
        <ele>86</ele>
        <time>2017-04-08T08:20:50Z</time>
      </trkpt>
      <trkpt lat="48.13923" lon="2.68127">
        <ele>84</ele>
        <time>2017-04-08T08:22:50Z</time>
      </trkpt>
      <trkpt lat="48.13924" lon="2.68127">
        <ele>84</ele>
        <time>2017-04-08T08:24:50Z</time>
      </trkpt>
      <trkpt lat="48.13934" lon="2.68135">
        <ele>84</ele>
        <time>2017-04-08T08:26:50Z</time>
      </trkpt>
      <trkpt lat="48.1396" lon="2.68154">
        <ele>83</ele>
        <time>2017-04-08T08:28:50Z</time>
      </trkpt>
      <trkpt lat="48.13973" lon="2.68163">
        <ele>83</ele>
        <time>2017-04-08T08:30:50Z</time>
      </trkpt>
      <trkpt lat="48.13986" lon="2.6817">
        <ele>83</ele>
        <time>2017-04-08T08:32:50Z</time>
      </trkpt>
      <trkpt lat="48.13997" lon="2.68175">
        <ele>83</ele>
        <time>2017-04-08T08:34:50Z</time>
      </trkpt>
      <trkpt lat="48.14003" lon="2.68184">
        <ele>83</ele>
        <time>2017-04-08T08:36:50Z</time>
      </trkpt>
      <trkpt lat="48.14004" lon="2.68205">
        <ele>83</ele>
        <time>2017-04-08T08:38:50Z</time>
      </trkpt>
      <trkpt lat="48.14004" lon="2.68212">
        <ele>83</ele>
        <time>2017-04-08T08:40:50Z</time>
      </trkpt>
      <trkpt lat="48.14004" lon="2.68228">
        <ele>83</ele>
        <time>2017-04-08T08:42:50Z</time>
      </trkpt>
      <trkpt lat="48.14002" lon="2.68258">
        <ele>83</ele>
        <time>2017-04-08T08:44:50Z</time>
      </trkpt>
      <trkpt lat="48.14002" lon="2.68273">
        <ele>84</ele>
        <time>2017-04-08T08:46:50Z</time>
      </trkpt>
      <trkpt lat="48.14001" lon="2.68296">
        <ele>84</ele>
        <time>2017-04-08T08:48:50Z</time>
      </trkpt>
      <trkpt lat="48.14001" lon="2.68336">
        <ele>82</ele>
        <time>2017-04-08T08:50:50Z</time>
      </trkpt>
      <trkpt lat="48.14" lon="2.6836">
        <ele>84</ele>
        <time>2017-04-08T08:52:50Z</time>
      </trkpt>
      <trkpt lat="48.13999" lon="2.68376">
        <ele>83</ele>
        <time>2017-04-08T08:54:50Z</time>
      </trkpt>
      <trkpt lat="48.13995" lon="2.68416">
        <ele>83</ele>
        <time>2017-04-08T08:56:50Z</time>
      </trkpt>
      <trkpt lat="48.13993" lon="2.68431">
        <ele>83</ele>
        <time>2017-04-08T08:58:50Z</time>
      </trkpt>
      <trkpt lat="48.13983" lon="2.68477">
        <ele>82</ele>
        <time>2017-04-08T09:00:50Z</time>
      </trkpt>
      <trkpt lat="48.13976" lon="2.68503">
        <ele>81</ele>
        <time>2017-04-08T09:02:50Z</time>
      </trkpt>
      <trkpt lat="48.13962" lon="2.68557">
        <ele>81</ele>
        <time>2017-04-08T09:04:50Z</time>
      </trkpt>
      <trkpt lat="48.13946" lon="2.68622">
        <ele>81</ele>
        <time>2017-04-08T09:06:50Z</time>
      </trkpt>
      <trkpt lat="48.13938" lon="2.68665">
        <ele>82</ele>
        <time>2017-04-08T09:08:50Z</time>
      </trkpt>
      <trkpt lat="48.13935" lon="2.68692">
        <ele>82</ele>
        <time>2017-04-08T09:10:50Z</time>
      </trkpt>
      <trkpt lat="48.13934" lon="2.68712">
        <ele>82</ele>
        <time>2017-04-08T09:12:50Z</time>
      </trkpt>
      <trkpt lat="48.13934" lon="2.68716">
        <ele>82</ele>
        <time>2017-04-08T09:14:50Z</time>
      </trkpt>
      <trkpt lat="48.13934" lon="2.68717">
        <ele>82</ele>
        <time>2017-04-08T09:16:50Z</time>
      </trkpt>
      <trkpt lat="48.13935" lon="2.68717">
        <ele>82</ele>
        <time>2017-04-08T09:18:50Z</time>
      </trkpt>
      <trkpt lat="48.13934" lon="2.68721">
        <ele>82</ele>
        <time>2017-04-08T09:20:50Z</time>
      </trkpt>
      <trkpt lat="48.13931" lon="2.6873">
        <ele>83</ele>
        <time>2017-04-08T09:22:50Z</time>
      </trkpt>
      <trkpt lat="48.13929" lon="2.68754">
        <ele>83</ele>
        <time>2017-04-08T09:24:50Z</time>
      </trkpt>
      <trkpt lat="48.13924" lon="2.68782">
        <ele>83</ele>
        <time>2017-04-08T09:26:50Z</time>
      </trkpt>
      <trkpt lat="48.1392" lon="2.6882">
        <ele>83</ele>
        <time>2017-04-08T09:28:50Z</time>
      </trkpt>
      <trkpt lat="48.13918" lon="2.68848">
        <ele>83</ele>
        <time>2017-04-08T09:30:50Z</time>
      </trkpt>
      <trkpt lat="48.13917" lon="2.68862">
        <ele>84</ele>
        <time>2017-04-08T09:32:50Z</time>
      </trkpt>
      <trkpt lat="48.13916" lon="2.68868">
        <ele>85</ele>
        <time>2017-04-08T09:34:50Z</time>
      </trkpt>
      <trkpt lat="48.13911" lon="2.68888">
        <ele>85</ele>
        <time>2017-04-08T09:36:50Z</time>
      </trkpt>
      <trkpt lat="48.1391" lon="2.68895">
        <ele>85</ele>
        <time>2017-04-08T09:38:50Z</time>
      </trkpt>
      <trkpt lat="48.13895" lon="2.68956">
        <ele>84</ele>
        <time>2017-04-08T09:40:50Z</time>
      </trkpt>
      <trkpt lat="48.13884" lon="2.68995">
        <ele>83</ele>
        <time>2017-04-08T09:42:50Z</time>
      </trkpt>
      <trkpt lat="48.13874" lon="2.69028">
        <ele>80</ele>
        <time>2017-04-08T09:44:50Z</time>
      </trkpt>
      <trkpt lat="48.13871" lon="2.69049">
        <ele>80</ele>
        <time>2017-04-08T09:46:50Z</time>
      </trkpt>
      <trkpt lat="48.13873" lon="2.69053">
        <ele>80</ele>
        <time>2017-04-08T09:48:50Z</time>
      </trkpt>
      <trkpt lat="48.13882" lon="2.69064">
        <ele>80</ele>
        <time>2017-04-08T09:50:50Z</time>
      </trkpt>
      <trkpt lat="48.13891" lon="2.69071">
        <ele>80</ele>
        <time>2017-04-08T09:52:50Z</time>
      </trkpt>
      <trkpt lat="48.13919" lon="2.69099">
        <ele>80</ele>
        <time>2017-04-08T09:54:50Z</time>
      </trkpt>
      <trkpt lat="48.13926" lon="2.69108">
        <ele>80</ele>
        <time>2017-04-08T09:56:50Z</time>
      </trkpt>
      <trkpt lat="48.13936" lon="2.69121">
        <ele>81</ele>
        <time>2017-04-08T09:58:50Z</time>
      </trkpt>
      <trkpt lat="48.13944" lon="2.6914">
        <ele>81</ele>
        <time>2017-04-08T10:00:50Z</time>
      </trkpt>
      <trkpt lat="48.13947" lon="2.69152">
        <ele>81</ele>
        <time>2017-04-08T10:02:50Z</time>
      </trkpt>
      <trkpt lat="48.1395" lon="2.69192">
        <ele>80</ele>
        <time>2017-04-08T10:04:50Z</time>
      </trkpt>
      <trkpt lat="48.13955" lon="2.69222">
        <ele>80</ele>
        <time>2017-04-08T10:06:50Z</time>
      </trkpt>
      <trkpt lat="48.13959" lon="2.69239">
        <ele>81</ele>
        <time>2017-04-08T10:08:50Z</time>
      </trkpt>
      <trkpt lat="48.13964" lon="2.6925">
        <ele>81</ele>
        <time>2017-04-08T10:10:50Z</time>
      </trkpt>
      <trkpt lat="48.13975" lon="2.69269">
        <ele>80</ele>
        <time>2017-04-08T10:12:50Z</time>
      </trkpt>
      <trkpt lat="48.13979" lon="2.69275">
        <ele>80</ele>
        <time>2017-04-08T10:14:50Z</time>
      </trkpt>
      <trkpt lat="48.13996" lon="2.69289">
        <ele>80</ele>
        <time>2017-04-08T10:16:50Z</time>
      </trkpt>
      <trkpt lat="48.14016" lon="2.69296">
        <ele>83</ele>
        <time>2017-04-08T10:18:50Z</time>
      </trkpt>
      <trkpt lat="48.14021" lon="2.69297">
        <ele>83</ele>
        <time>2017-04-08T10:20:50Z</time>
      </trkpt>
      <trkpt lat="48.14049" lon="2.693">
        <ele>84</ele>
        <time>2017-04-08T10:22:50Z</time>
      </trkpt>
      <trkpt lat="48.14075" lon="2.69301">
        <ele>84</ele>
        <time>2017-04-08T10:24:50Z</time>
      </trkpt>
      <trkpt lat="48.14137" lon="2.69309">
        <ele>88</ele>
        <time>2017-04-08T10:26:50Z</time>
      </trkpt>
      <trkpt lat="48.14142" lon="2.6931">
        <ele>88</ele>
        <time>2017-04-08T10:28:50Z</time>
      </trkpt>
      <trkpt lat="48.14165" lon="2.69317">
        <ele>89</ele>
        <time>2017-04-08T10:30:50Z</time>
      </trkpt>
      <trkpt lat="48.14184" lon="2.6933">
        <ele>90</ele>
        <time>2017-04-08T10:32:50Z</time>
      </trkpt>
      <trkpt lat="48.1419" lon="2.69335">
        <ele>90</ele>
        <time>2017-04-08T10:34:50Z</time>
      </trkpt>
      <trkpt lat="48.14203" lon="2.6935">
        <ele>90</ele>
        <time>2017-04-08T10:36:50Z</time>
      </trkpt>
      <trkpt lat="48.14207" lon="2.69358">
        <ele>90</ele>
        <time>2017-04-08T10:38:50Z</time>
      </trkpt>
      <trkpt lat="48.14209" lon="2.6936">
        <ele>90</ele>
        <time>2017-04-08T10:40:50Z</time>
      </trkpt>
      <trkpt lat="48.14214" lon="2.69365">
        <ele>90</ele>
        <time>2017-04-08T10:42:50Z</time>
      </trkpt>
      <trkpt lat="48.14231" lon="2.69387">
        <ele>91</ele>
        <time>2017-04-08T10:44:50Z</time>
      </trkpt>
      <trkpt lat="48.14279" lon="2.6946">
        <ele>92</ele>
        <time>2017-04-08T10:46:50Z</time>
      </trkpt>
      <trkpt lat="48.14304" lon="2.69498">
        <ele>93</ele>
        <time>2017-04-08T10:48:50Z</time>
      </trkpt>
      <trkpt lat="48.14324" lon="2.69531">
        <ele>93</ele>
        <time>2017-04-08T10:50:50Z</time>
      </trkpt>
      <trkpt lat="48.14351" lon="2.69567">
        <ele>94</ele>
        <time>2017-04-08T10:52:50Z</time>
      </trkpt>
      <trkpt lat="48.14357" lon="2.69574">
        <ele>94</ele>
        <time>2017-04-08T10:54:50Z</time>
      </trkpt>
      <trkpt lat="48.1438" lon="2.69594">
        <ele>94</ele>
        <time>2017-04-08T10:56:50Z</time>
      </trkpt>
      <trkpt lat="48.14407" lon="2.69616">
        <ele>94</ele>
        <time>2017-04-08T10:58:50Z</time>
      </trkpt>
      <trkpt lat="48.14479" lon="2.69677">
        <ele>95</ele>
        <time>2017-04-08T11:00:50Z</time>
      </trkpt>
      <trkpt lat="48.14487" lon="2.69683">
        <ele>95</ele>
        <time>2017-04-08T11:02:50Z</time>
      </trkpt>
      <trkpt lat="48.14503" lon="2.69693">
        <ele>96</ele>
        <time>2017-04-08T11:04:50Z</time>
      </trkpt>
      <trkpt lat="48.14507" lon="2.69694">
        <ele>96</ele>
        <time>2017-04-08T11:06:50Z</time>
      </trkpt>
      <trkpt lat="48.14518" lon="2.69685">
        <ele>96</ele>
        <time>2017-04-08T11:08:50Z</time>
      </trkpt>
      <trkpt lat="48.14525" lon="2.69675">
        <ele>96</ele>
        <time>2017-04-08T11:10:50Z</time>
      </trkpt>
      <trkpt lat="48.1454" lon="2.69651">
        <ele>97</ele>
        <time>2017-04-08T11:12:50Z</time>
      </trkpt>
      <trkpt lat="48.14554" lon="2.69629">
        <ele>97</ele>
        <time>2017-04-08T11:14:50Z</time>
      </trkpt>
      <trkpt lat="48.14562" lon="2.69616">
        <ele>97</ele>
        <time>2017-04-08T11:16:50Z</time>
      </trkpt>
      <trkpt lat="48.1457" lon="2.69603">
        <ele>97</ele>
        <time>2017-04-08T11:18:50Z</time>
      </trkpt>
      <trkpt lat="48.1458" lon="2.69589">
        <ele>98</ele>
        <time>2017-04-08T11:20:50Z</time>
      </trkpt>
      <trkpt lat="48.14642" lon="2.69516">
        <ele>98</ele>
        <time>2017-04-08T11:22:50Z</time>
      </trkpt>
      <trkpt lat="48.14679" lon="2.69468">
        <ele>98</ele>
        <time>2017-04-08T11:24:50Z</time>
      </trkpt>
      <trkpt lat="48.14714" lon="2.69426">
        <ele>98</ele>
        <time>2017-04-08T11:26:50Z</time>
      </trkpt>
      <trkpt lat="48.14732" lon="2.6941">
        <ele>98</ele>
        <time>2017-04-08T11:28:50Z</time>
      </trkpt>
      <trkpt lat="48.14759" lon="2.69396">
        <ele>99</ele>
        <time>2017-04-08T11:30:50Z</time>
      </trkpt>
      <trkpt lat="48.1477" lon="2.69392">
        <ele>99</ele>
        <time>2017-04-08T11:32:50Z</time>
      </trkpt>
      <trkpt lat="48.14771" lon="2.6939">
        <ele>99</ele>
        <time>2017-04-08T11:34:50Z</time>
      </trkpt>
      <trkpt lat="48.1477" lon="2.6938">
        <ele>99</ele>
        <time>2017-04-08T11:36:50Z</time>
      </trkpt>
    </trkseg>
  </trk>
</gpx>